Time,TemperatureF,DewpointF,PressureIn,WindDirection,WindDirectionDegrees,WindSpeedMPH,WindSpeedGustMPH,Humidity,HourlyPrecipIn,Conditions,Clouds,dailyrainin,SoftwareType,DateUTC
2013-02-18 00:00:00,55.0,29.9,29.86,South,173,6.0,10.0,38,0.00,,---,0.00,VWS V14.00,2013-02-18 06:00:00,
2013-02-18 00:01:00,55.0,29.9,29.86,South,177,5.0,7.0,38,0.00,,---,0.00,VWS V14.00,2013-02-18 06:01:00,
2013-02-18 00:02:00,55.0,29.9,29.85,SSW,192,2.0,11.0,38,0.00,,---,0.00,VWS V14.00,2013-02-18 06:02:00,
2013-02-18 00:03:00,55.0,30.5,29.85,SSW,192,6.0,6.0,39,0.00,,---,0.00,VWS V14.00,2013-02-18 06:03:00,
2013-02-18 00:04:00,54.8,29.7,29.85,South,191,1.0,6.0,38,0.00,,---,0.00,VWS V14.00,2013-02-18 06:04:00,
2013-02-18 00:05:00,54.8,29.7,29.85,South,172,9.0,9.0,38,0.00,,---,0.00,VWS V14.00,2013-02-18 06:05:00,
2013-02-18 00:06:00,54.8,29.7,29.85,SSE,166,6.0,12.0,38,0.00,,---,0.00,VWS V14.00,2013-02-18 06:06:00,
2013-02-18 00:07:00,54.8,29.7,29.85,SSE,167,5.0,6.0,38,0.00,,---,0.00,VWS V14.00,2013-02-18 06:07:00,
2013-02-18 00:08:00,54.8,29.7,29.85,SSE,167,4.0,6.0,38,0.00,,---,0.00,VWS V14.00,2013-02-18 06:08:00,
2013-02-18 00:09:00,54.7,29.6,29.85,SSE,167,9.0,9.0,38,0.00,,---,0.00,VWS V14.00,2013-02-18 06:09:00,
2013-02-18 00:10:00,54.7,29.6,29.85,SSE,165,10.0,10.0,38,0.00,,---,0.00,VWS V14.00,2013-02-18 06:10:00,
2013-02-18 00:11:00,54.7,29.6,29.85,SSE,165,5.0,11.0,38,0.00,,---,0.00,VWS V14.00,2013-02-18 06:11:00,
2013-02-18 00:12:00,54.8,29.7,29.85,SSE,163,11.0,11.0,38,0.00,,---,0.00,VWS V14.00,2013-02-18 06:12:00,
2013-02-18 00:13:00,54.8,29.7,29.85,SSE,167,1.0,11.0,38,0.00,,---,0.00,VWS V14.00,2013-02-18 06:13:00,
2013-02-18 00:14:00,55.0,29.9,29.85,South,169,3.0,7.0,38,0.00,,---,0.00,VWS V14.00,2013-02-18 06:14:00,
2013-02-18 00:15:00,55.0,29.9,29.85,South,169,1.0,6.0,38,0.00,,---,0.00,VWS V14.00,2013-02-18 06:15:00,
2013-02-18 00:16:00,54.8,29.7,29.85,South,173,6.0,11.0,38,0.00,,---,0.00,VWS V14.00,2013-02-18 06:16:00,
2013-02-18 00:17:00,55.0,29.9,29.85,South,170,6.0,9.0,38,0.00,,---,0.00,VWS V14.00,2013-02-18 06:17:00,
2013-02-18 00:18:00,55.0,29.9,29.85,South,169,5.0,9.0,38,0.00,,---,0.00,VWS V14.00,2013-02-18 06:18:00,
2013-02-18 00:19:00,55.0,29.9,29.85,South,169,5.0,6.0,38,0.00,,---,0.00,VWS V14.00,2013-02-18 06:19:00,
2013-02-18 00:20:00,55.0,29.9,29.85,South,169,6.0,7.0,38,0.00,,---,0.00,VWS V14.00,2013-02-18 06:20:00,
2013-02-18 00:21:00,55.0,29.9,29.85,SSE,159,6.0,10.0,38,0.00,,---,0.00,VWS V14.00,2013-02-18 06:21:00,
2013-02-18 00:22:00,55.0,29.9,29.85,South,171,8.0,9.0,38,0.00,,---,0.00,VWS V14.00,2013-02-18 06:22:00,
2013-02-18 00:23:00,54.8,29.7,29.85,South,182,4.0,9.0,38,0.00,,---,0.00,VWS V14.00,2013-02-18 06:23:00,
2013-02-18 00:24:00,54.8,29.7,29.85,SSE,163,6.0,12.0,38,0.00,,---,0.00,VWS V14.00,2013-02-18 06:24:00,
2013-02-18 00:25:00,54.8,29.7,29.85,South,170,7.0,9.0,38,0.00,,---,0.00,VWS V14.00,2013-02-18 06:25:00,
2013-02-18 00:26:00,55.0,29.9,29.85,SSE,167,4.0,9.0,38,0.00,,---,0.00,VWS V14.00,2013-02-18 06:26:00,
2013-02-18 00:27:00,55.0,29.9,29.85,SSE,167,1.0,4.0,38,0.00,,---,0.00,VWS V14.00,2013-02-18 06:27:00,
2013-02-18 00:28:00,54.8,29.7,29.85,SSE,167,5.0,7.0,38,0.00,,---,0.00,VWS V14.00,2013-02-18 06:28:00,
2013-02-18 00:29:00,54.8,29.7,29.85,SSE,165,3.0,11.0,38,0.00,,---,0.00,VWS V14.00,2013-02-18 06:29:00,
2013-02-18 00:30:00,54.8,29.7,29.85,SSE,165,3.0,4.0,38,0.00,,---,0.00,VWS V14.00,2013-02-18 06:30:00,
2013-02-18 00:31:00,54.7,29.6,29.85,South,170,3.0,10.0,38,0.00,,---,0.00,VWS V14.00,2013-02-18 06:31:00,
2013-02-18 00:32:00,54.7,29.6,29.85,South,171,2.0,6.0,38,0.00,,---,0.00,VWS V14.00,2013-02-18 06:32:00,
2013-02-18 00:33:00,54.7,29.6,29.85,South,171,0.0,5.0,38,0.00,,---,0.00,VWS V14.00,2013-02-18 06:33:00,
2013-02-18 00:34:00,54.7,29.6,29.85,South,172,3.0,6.0,38,0.00,,---,0.00,VWS V14.00,2013-02-18 06:34:00,
2013-02-18 00:35:00,54.7,29.6,29.85,South,172,1.0,6.0,38,0.00,,---,0.00,VWS V14.00,2013-02-18 06:35:00,
2013-02-18 00:36:00,54.5,29.4,29.85,South,172,2.0,5.0,38,0.00,,---,0.00,VWS V14.00,2013-02-18 06:36:00,
2013-02-18 00:37:00,54.5,29.4,29.85,South,171,6.0,6.0,38,0.00,,---,0.00,VWS V14.00,2013-02-18 06:37:00,
2013-02-18 00:38:00,54.5,29.4,29.85,South,188,11.0,13.0,38,0.00,,---,0.00,VWS V14.00,2013-02-18 06:38:00,
2013-02-18 00:39:00,54.5,29.4,29.84,SSE,167,6.0,11.0,38,0.00,,---,0.00,VWS V14.00,2013-02-18 06:39:00,
2013-02-18 00:40:00,54.7,29.6,29.85,SSE,168,5.0,7.0,38,0.00,,---,0.00,VWS V14.00,2013-02-18 06:40:00,
2013-02-18 00:41:00,54.7,29.6,29.84,South,169,2.0,5.0,38,0.00,,---,0.00,VWS V14.00,2013-02-18 06:41:00,
2013-02-18 00:42:00,54.7,29.6,29.84,South,169,2.0,5.0,38,0.00,,---,0.00,VWS V14.00,2013-02-18 06:42:00,
2013-02-18 00:43:00,54.7,30.2,29.84,SSE,168,10.0,10.0,39,0.00,,---,0.00,VWS V14.00,2013-02-18 06:43:00,
2013-02-18 00:44:00,54.5,29.4,29.84,South,169,4.0,10.0,38,0.00,,---,0.00,VWS V14.00,2013-02-18 06:44:00,
2013-02-18 00:45:00,54.7,29.6,29.84,South,169,5.0,7.0,38,0.00,,---,0.00,VWS V14.00,2013-02-18 06:45:00,
2013-02-18 00:46:00,54.7,30.2,29.84,South,169,3.0,7.0,39,0.00,,---,0.00,VWS V14.00,2013-02-18 06:46:00,
2013-02-18 00:47:00,54.7,29.6,29.84,South,171,5.0,7.0,38,0.00,,---,0.00,VWS V14.00,2013-02-18 06:47:00,
2013-02-18 00:48:00,54.7,29.6,29.84,South,171,4.0,6.0,38,0.00,,---,0.00,VWS V14.00,2013-02-18 06:48:00,
2013-02-18 00:49:00,54.7,30.2,29.84,South,171,3.0,6.0,39,0.00,,---,0.00,VWS V14.00,2013-02-18 06:49:00,
2013-02-18 00:50:00,54.5,30.7,29.84,SSW,213,2.0,6.0,40,0.00,,---,0.00,VWS V14.00,2013-02-18 06:50:00,
2013-02-18 00:51:00,54.5,29.4,29.84,SSW,200,6.0,7.0,38,0.00,,---,0.00,VWS V14.00,2013-02-18 06:51:00,
2013-02-18 00:52:00,54.5,30.7,29.84,SSW,200,4.0,6.0,40,0.00,,---,0.00,VWS V14.00,2013-02-18 06:52:00,
2013-02-18 00:53:00,54.5,30.1,29.84,South,184,4.0,8.0,39,0.00,,---,0.00,VWS V14.00,2013-02-18 06:53:00,
2013-02-18 00:54:00,54.5,30.1,29.84,South,177,6.0,7.0,39,0.00,,---,0.00,VWS V14.00,2013-02-18 06:54:00,
2013-02-18 00:55:00,54.5,30.1,29.84,South,175,5.0,9.0,39,0.00,,---,0.00,VWS V14.00,2013-02-18 06:55:00,
2013-02-18 00:56:00,54.7,30.2,29.84,SSE,149,8.0,14.0,39,0.00,,---,0.00,VWS V14.00,2013-02-18 06:56:00,
2013-02-18 00:57:00,54.7,29.6,29.84,SSE,159,9.0,10.0,38,0.00,,---,0.00,VWS V14.00,2013-02-18 06:57:00,
2013-02-18 00:58:00,54.8,29.7,29.84,SSE,165,11.0,11.0,38,0.00,,---,0.00,VWS V14.00,2013-02-18 06:58:00,
2013-02-18 00:59:00,54.8,29.7,29.84,SSE,167,5.0,13.0,38,0.00,,---,0.00,VWS V14.00,2013-02-18 06:59:00,
2013-02-18 01:00:00,54.8,29.7,29.84,South,170,5.0,7.0,38,0.00,,---,0.00,VWS V14.00,2013-02-18 07:00:00,
2013-02-18 01:01:00,54.8,29.7,29.84,South,172,6.0,9.0,38,0.00,,---,0.00,VWS V14.00,2013-02-18 07:01:00,
2013-02-18 01:02:00,54.8,29.7,29.84,SSE,165,5.0,10.0,38,0.00,,---,0.00,VWS V14.00,2013-02-18 07:02:00,
2013-02-18 01:03:00,54.8,29.7,29.84,South,169,3.0,10.0,38,0.00,,---,0.00,VWS V14.00,2013-02-18 07:03:00,
2013-02-18 01:04:00,54.8,29.7,29.84,SSE,167,8.0,10.0,38,0.00,,---,0.00,VWS V14.00,2013-02-18 07:04:00,
2013-02-18 01:05:00,54.8,29.7,29.84,South,169,1.0,9.0,38,0.00,,---,0.00,VWS V14.00,2013-02-18 07:05:00,
2013-02-18 01:06:00,54.8,29.7,29.84,SSE,163,7.0,11.0,38,0.00,,---,0.00,VWS V14.00,2013-02-18 07:06:00,
2013-02-18 01:07:00,54.8,29.7,29.84,South,171,5.0,7.0,38,0.00,,---,0.00,VWS V14.00,2013-02-18 07:07:00,
2013-02-18 01:08:00,54.8,29.7,29.84,South,169,5.0,7.0,38,0.00,,---,0.00,VWS V14.00,2013-02-18 07:08:00,
2013-02-18 01:09:00,54.7,30.2,29.84,South,169,4.0,9.0,39,0.00,,---,0.00,VWS V14.00,2013-02-18 07:09:00,
2013-02-18 01:10:00,54.7,30.2,29.84,South,170,7.0,7.0,39,0.00,,---,0.00,VWS V14.00,2013-02-18 07:10:00,
2013-02-18 01:11:00,54.7,30.2,29.84,South,170,6.0,9.0,39,0.00,,---,0.00,VWS V14.00,2013-02-18 07:11:00,
2013-02-18 01:12:00,54.7,30.2,29.84,South,170,5.0,7.0,39,0.00,,---,0.00,VWS V14.00,2013-02-18 07:12:00,
2013-02-18 01:13:00,54.7,30.2,29.84,South,170,8.0,12.0,39,0.00,,---,0.00,VWS V14.00,2013-02-18 07:13:00,
2013-02-18 01:14:00,54.7,30.2,29.84,South,171,5.0,9.0,39,0.00,,---,0.00,VWS V14.00,2013-02-18 07:14:00,
2013-02-18 01:15:00,54.7,30.2,29.84,South,169,9.0,9.0,39,0.00,,---,0.00,VWS V14.00,2013-02-18 07:15:00,
2013-02-18 01:16:00,54.8,30.3,29.84,South,172,5.0,9.0,39,0.00,,---,0.00,VWS V14.00,2013-02-18 07:16:00,
2013-02-18 01:17:00,54.7,30.2,29.84,South,171,3.0,10.0,39,0.00,,---,0.00,VWS V14.00,2013-02-18 07:17:00,
2013-02-18 01:18:00,54.7,30.2,29.84,SSE,155,9.0,12.0,39,0.00,,---,0.00,VWS V14.00,2013-02-18 07:18:00,
2013-02-18 01:19:00,54.8,31.0,29.84,SSE,161,10.0,10.0,40,0.00,,---,0.00,VWS V14.00,2013-02-18 07:19:00,
2013-02-18 01:20:00,54.8,31.0,29.84,South,183,6.0,12.0,40,0.00,,---,0.00,VWS V14.00,2013-02-18 07:20:00,
2013-02-18 01:21:00,54.8,30.3,29.84,South,173,5.0,9.0,39,0.00,,---,0.00,VWS V14.00,2013-02-18 07:21:00,
2013-02-18 01:22:00,54.8,30.3,29.84,SSE,160,9.0,12.0,39,0.00,,---,0.00,VWS V14.00,2013-02-18 07:22:00,
2013-02-18 01:23:00,54.8,30.3,29.84,SSE,165,5.0,11.0,39,0.00,,---,0.00,VWS V14.00,2013-02-18 07:23:00,
2013-02-18 01:24:00,55.0,30.5,29.84,South,169,7.0,11.0,39,0.00,,---,0.00,VWS V14.00,2013-02-18 07:24:00,
2013-02-18 01:25:00,55.0,30.5,29.84,South,169,6.0,7.0,39,0.00,,---,0.00,VWS V14.00,2013-02-18 07:25:00,
2013-02-18 01:26:00,55.0,29.2,29.84,South,183,7.0,14.0,37,0.00,,---,0.00,VWS V14.00,2013-02-18 07:26:00,
2013-02-18 01:27:00,55.0,30.5,29.84,SSE,158,9.0,11.0,39,0.00,,---,0.00,VWS V14.00,2013-02-18 07:27:00,
2013-02-18 01:28:00,55.0,30.5,29.84,South,169,10.0,12.0,39,0.00,,---,0.00,VWS V14.00,2013-02-18 07:28:00,
2013-02-18 01:29:00,55.1,30.6,29.84,South,186,5.0,10.0,39,0.00,,---,0.00,VWS V14.00,2013-02-18 07:29:00,
2013-02-18 01:30:00,55.1,30.6,29.84,South,174,8.0,9.0,39,0.00,,---,0.00,VWS V14.00,2013-02-18 07:30:00,
2013-02-18 01:31:00,55.1,30.6,29.84,SSE,161,6.0,9.0,39,0.00,,---,0.00,VWS V14.00,2013-02-18 07:31:00,
2013-02-18 01:32:00,55.1,30.6,29.84,SSE,162,7.0,9.0,39,0.00,,---,0.00,VWS V14.00,2013-02-18 07:32:00,
2013-02-18 01:33:00,55.1,30.6,29.84,SSE,157,8.0,13.0,39,0.00,,---,0.00,VWS V14.00,2013-02-18 07:33:00,
2013-02-18 01:34:00,55.1,30.6,29.84,SSE,157,3.0,9.0,39,0.00,,---,0.00,VWS V14.00,2013-02-18 07:34:00,
2013-02-18 01:35:00,55.1,30.6,29.84,SSE,155,8.0,9.0,39,0.00,,---,0.00,VWS V14.00,2013-02-18 07:35:00,
2013-02-18 01:36:00,55.1,30.6,29.84,SSE,163,9.0,14.0,39,0.00,,---,0.00,VWS V14.00,2013-02-18 07:36:00,
2013-02-18 01:37:00,55.1,30.6,29.84,SE,145,4.0,16.0,39,0.00,,---,0.00,VWS V14.00,2013-02-18 07:37:00,
2013-02-18 01:38:00,55.1,31.2,29.84,South,186,4.0,11.0,40,0.00,,---,0.00,VWS V14.00,2013-02-18 07:38:00,
2013-02-18 01:39:00,55.1,31.2,29.84,SSE,164,4.0,12.0,40,0.00,,---,0.00,VWS V14.00,2013-02-18 07:39:00,
2013-02-18 01:40:00,55.1,31.2,29.84,SSE,165,5.0,7.0,40,0.00,,---,0.00,VWS V14.00,2013-02-18 07:40:00,
2013-02-18 01:41:00,55.1,31.2,29.84,SSE,157,11.0,11.0,40,0.00,,---,0.00,VWS V14.00,2013-02-18 07:41:00,
2013-02-18 01:42:00,55.1,31.2,29.84,SSE,158,9.0,15.0,40,0.00,,---,0.00,VWS V14.00,2013-02-18 07:42:00,
2013-02-18 01:43:00,55.3,31.4,29.84,South,171,8.0,12.0,40,0.00,,---,0.00,VWS V14.00,2013-02-18 07:43:00,
2013-02-18 01:44:00,55.3,31.4,29.84,South,171,6.0,8.0,40,0.00,,---,0.00,VWS V14.00,2013-02-18 07:44:00,
2013-02-18 01:45:00,55.3,31.4,29.84,SSE,161,10.0,10.0,40,0.00,,---,0.00,VWS V14.00,2013-02-18 07:45:00,
2013-02-18 01:46:00,55.1,31.2,29.84,SSE,164,9.0,12.0,40,0.00,,---,0.00,VWS V14.00,2013-02-18 07:46:00,
2013-02-18 01:47:00,55.1,31.2,29.84,SSE,167,10.0,15.0,40,0.00,,---,0.00,VWS V14.00,2013-02-18 07:47:00,
2013-02-18 01:48:00,55.1,31.2,29.84,SSE,166,8.0,12.0,40,0.00,,---,0.00,VWS V14.00,2013-02-18 07:48:00,
2013-02-18 01:49:00,55.1,31.2,29.84,SSE,159,9.0,13.0,40,0.00,,---,0.00,VWS V14.00,2013-02-18 07:49:00,
2013-02-18 01:50:00,55.1,31.2,29.84,SSE,158,6.0,10.0,40,0.00,,---,0.00,VWS V14.00,2013-02-18 07:50:00,
2013-02-18 01:51:00,55.1,31.2,29.84,South,187,7.0,13.0,40,0.00,,---,0.00,VWS V14.00,2013-02-18 07:51:00,
2013-02-18 01:52:00,55.0,31.8,29.84,SSE,156,12.0,12.0,41,0.00,,---,0.00,VWS V14.00,2013-02-18 07:52:00,
2013-02-18 01:53:00,55.0,31.1,29.84,SSE,162,11.0,14.0,40,0.00,,---,0.00,VWS V14.00,2013-02-18 07:53:00,
2013-02-18 01:54:00,55.0,31.8,29.84,SSE,165,5.0,13.0,41,0.00,,---,0.00,VWS V14.00,2013-02-18 07:54:00,
2013-02-18 01:55:00,55.0,31.8,29.84,SSE,166,8.0,9.0,41,0.00,,---,0.00,VWS V14.00,2013-02-18 07:55:00,
2013-02-18 01:56:00,55.0,31.8,29.84,South,182,5.0,10.0,41,0.00,,---,0.00,VWS V14.00,2013-02-18 07:56:00,
2013-02-18 01:57:00,55.0,31.8,29.84,South,170,8.0,14.0,41,0.00,,---,0.00,VWS V14.00,2013-02-18 07:57:00,
2013-02-18 01:58:00,55.0,31.8,29.84,SSE,164,6.0,12.0,41,0.00,,---,0.00,VWS V14.00,2013-02-18 07:58:00,
2013-02-18 01:59:00,55.0,31.8,29.84,SSE,157,14.0,14.0,41,0.00,,---,0.00,VWS V14.00,2013-02-18 07:59:00,
2013-02-18 02:00:00,55.0,31.8,29.84,South,180,5.0,14.0,41,0.00,,---,0.00,VWS V14.00,2013-02-18 08:00:00,
2013-02-18 02:01:00,55.0,31.8,29.84,South,177,6.0,9.0,41,0.00,,---,0.00,VWS V14.00,2013-02-18 08:01:00,
2013-02-18 02:02:00,54.8,32.2,29.84,South,188,3.0,13.0,42,0.00,,---,0.00,VWS V14.00,2013-02-18 08:02:00,
2013-02-18 02:03:00,54.8,31.6,29.84,South,177,1.0,9.0,41,0.00,,---,0.00,VWS V14.00,2013-02-18 08:03:00,
2013-02-18 02:04:00,54.8,32.2,29.84,South,178,7.0,13.0,42,0.00,,---,0.00,VWS V14.00,2013-02-18 08:04:00,
2013-02-18 02:05:00,54.8,32.2,29.84,South,174,7.0,8.0,42,0.00,,---,0.00,VWS V14.00,2013-02-18 08:05:00,
2013-02-18 02:06:00,55.0,32.3,29.84,SSE,159,11.0,14.0,42,0.00,,---,0.00,VWS V14.00,2013-02-18 08:06:00,
2013-02-18 02:07:00,55.0,32.3,29.84,SSE,167,11.0,14.0,42,0.00,,---,0.00,VWS V14.00,2013-02-18 08:07:00,
2013-02-18 02:08:00,55.0,32.3,29.84,South,171,10.0,14.0,42,0.00,,---,0.00,VWS V14.00,2013-02-18 08:08:00,
2013-02-18 02:09:00,55.0,32.3,29.84,SSE,167,9.0,13.0,42,0.00,,---,0.00,VWS V14.00,2013-02-18 08:09:00,
2013-02-18 02:10:00,55.0,32.3,29.84,South,180,12.0,12.0,42,0.00,,---,0.00,VWS V14.00,2013-02-18 08:10:00,
2013-02-18 02:11:00,55.0,32.3,29.84,SSE,149,13.0,13.0,42,0.00,,---,0.00,VWS V14.00,2013-02-18 08:11:00,
2013-02-18 02:12:00,55.0,32.9,29.84,SSE,165,9.0,16.0,43,0.00,,---,0.00,VWS V14.00,2013-02-18 08:12:00,
2013-02-18 02:13:00,55.0,32.9,29.84,SSE,167,8.0,11.0,43,0.00,,---,0.00,VWS V14.00,2013-02-18 08:13:00,
2013-02-18 02:14:00,55.0,32.9,29.84,South,176,6.0,8.0,43,0.00,,---,0.00,VWS V14.00,2013-02-18 08:14:00,
2013-02-18 02:15:00,55.0,32.9,29.84,South,176,7.0,7.0,43,0.00,,---,0.00,VWS V14.00,2013-02-18 08:15:00,
2013-02-18 02:16:00,54.8,32.8,29.84,SSE,160,8.0,11.0,43,0.00,,---,0.00,VWS V14.00,2013-02-18 08:16:00,
2013-02-18 02:17:00,54.8,32.8,29.84,SSE,151,17.0,17.0,43,0.00,,---,0.00,VWS V14.00,2013-02-18 08:17:00,
2013-02-18 02:18:00,54.8,32.8,29.84,SSE,161,7.0,18.0,43,0.00,,---,0.00,VWS V14.00,2013-02-18 08:18:00,
2013-02-18 02:19:00,54.8,33.3,29.84,SSE,162,5.0,9.0,44,0.00,,---,0.00,VWS V14.00,2013-02-18 08:19:00,
2013-02-18 02:20:00,54.8,33.3,29.83,SSE,163,1.0,6.0,44,0.00,,---,0.00,VWS V14.00,2013-02-18 08:20:00,
2013-02-18 02:21:00,54.7,33.2,29.84,South,169,9.0,10.0,44,0.00,,---,0.00,VWS V14.00,2013-02-18 08:21:00,
2013-02-18 02:22:00,54.5,33.0,29.84,SE,146,10.0,11.0,44,0.00,,---,0.00,VWS V14.00,2013-02-18 08:22:00,
2013-02-18 02:23:00,54.7,33.2,29.83,SSE,167,10.0,16.0,44,0.00,,---,0.00,VWS V14.00,2013-02-18 08:23:00,
2013-02-18 02:24:00,54.7,33.2,29.83,SSW,200,4.0,12.0,44,0.00,,---,0.00,VWS V14.00,2013-02-18 08:24:00,
2013-02-18 02:25:00,54.7,33.2,29.83,SSW,198,5.0,6.0,44,0.00,,---,0.00,VWS V14.00,2013-02-18 08:25:00,
2013-02-18 02:26:00,54.7,33.8,29.83,South,171,7.0,7.0,45,0.00,,---,0.00,VWS V14.00,2013-02-18 08:26:00,
2013-02-18 02:27:00,54.7,33.8,29.83,SSW,211,9.0,15.0,45,0.00,,---,0.00,VWS V14.00,2013-02-18 08:27:00,
2013-02-18 02:28:00,54.7,33.8,29.83,SSW,198,12.0,17.0,45,0.00,,---,0.00,VWS V14.00,2013-02-18 08:28:00,
2013-02-18 02:29:00,54.7,33.8,29.83,South,182,6.0,14.0,45,0.00,,---,0.00,VWS V14.00,2013-02-18 08:29:00,
2013-02-18 02:30:00,54.7,33.8,29.83,SSE,159,6.0,12.0,45,0.00,,---,0.00,VWS V14.00,2013-02-18 08:30:00,
2013-02-18 02:31:00,54.7,34.3,29.83,SSE,153,12.0,13.0,46,0.00,,---,0.00,VWS V14.00,2013-02-18 08:31:00,
2013-02-18 02:32:00,54.7,33.8,29.83,South,179,9.0,20.0,45,0.00,,---,0.00,VWS V14.00,2013-02-18 08:32:00,
2013-02-18 02:33:00,54.7,34.3,29.83,SSE,151,7.0,16.0,46,0.00,,---,0.00,VWS V14.00,2013-02-18 08:33:00,
2013-02-18 02:34:00,54.7,33.8,29.83,SSE,150,11.0,15.0,45,0.00,,---,0.00,VWS V14.00,2013-02-18 08:34:00,
2013-02-18 02:35:00,54.7,34.3,29.83,SE,146,12.0,12.0,46,0.00,,---,0.00,VWS V14.00,2013-02-18 08:35:00,
2013-02-18 02:36:00,54.5,34.2,29.83,SSW,200,6.0,13.0,46,0.00,,---,0.00,VWS V14.00,2013-02-18 08:36:00,
2013-02-18 02:37:00,54.5,34.7,29.83,South,173,12.0,18.0,47,0.00,,---,0.00,VWS V14.00,2013-02-18 08:37:00,
2013-02-18 02:38:00,54.5,34.7,29.83,South,175,9.0,16.0,47,0.00,,---,0.00,VWS V14.00,2013-02-18 08:38:00,
2013-02-18 02:39:00,54.5,34.7,29.83,SSE,158,6.0,14.0,47,0.00,,---,0.00,VWS V14.00,2013-02-18 08:39:00,
2013-02-18 02:40:00,54.5,34.7,29.83,SSE,161,6.0,7.0,47,0.00,,---,0.00,VWS V14.00,2013-02-18 08:40:00,
2013-02-18 02:41:00,54.5,34.7,29.83,South,173,8.0,13.0,47,0.00,,---,0.00,VWS V14.00,2013-02-18 08:41:00,
2013-02-18 02:42:00,54.5,34.7,29.83,SSE,164,13.0,19.0,47,0.00,,---,0.00,VWS V14.00,2013-02-18 08:42:00,
2013-02-18 02:43:00,54.5,34.7,29.83,SSE,154,13.0,14.0,47,0.00,,---,0.00,VWS V14.00,2013-02-18 08:43:00,
2013-02-18 02:44:00,54.5,35.2,29.82,SSE,161,17.0,17.0,48,0.00,,---,0.00,VWS V14.00,2013-02-18 08:44:00,
2013-02-18 02:45:00,54.5,35.2,29.82,South,175,10.0,17.0,48,0.00,,---,0.00,VWS V14.00,2013-02-18 08:45:00,
2013-02-18 02:46:00,54.5,35.2,29.82,SE,141,12.0,15.0,48,0.00,,---,0.00,VWS V14.00,2013-02-18 08:46:00,
2013-02-18 02:47:00,54.5,35.8,29.82,SE,135,14.0,20.0,49,0.00,,---,0.00,VWS V14.00,2013-02-18 08:47:00,
2013-02-18 02:48:00,54.5,35.8,29.82,SSE,154,16.0,21.0,49,0.00,,---,0.00,VWS V14.00,2013-02-18 08:48:00,
2013-02-18 02:49:00,54.5,35.8,29.82,SSE,167,7.0,16.0,49,0.00,,---,0.00,VWS V14.00,2013-02-18 08:49:00,
2013-02-18 02:50:00,54.5,35.8,29.82,South,176,12.0,18.0,49,0.00,,---,0.00,VWS V14.00,2013-02-18 08:50:00,
2013-02-18 02:51:00,54.5,35.8,29.82,SSW,200,16.0,27.0,49,0.00,,---,0.00,VWS V14.00,2013-02-18 08:51:00,
2013-02-18 02:52:00,54.5,35.8,29.82,SSW,207,9.0,18.0,49,0.00,,---,0.00,VWS V14.00,2013-02-18 08:52:00,
2013-02-18 02:53:00,54.5,36.3,29.82,SSE,151,14.0,20.0,50,0.00,,---,0.00,VWS V14.00,2013-02-18 08:53:00,
2013-02-18 02:54:00,54.5,36.3,29.82,SSW,200,19.0,24.0,50,0.00,,---,0.00,VWS V14.00,2013-02-18 08:54:00,
2013-02-18 02:55:00,54.5,36.3,29.82,South,185,3.0,19.0,50,0.00,,---,0.00,VWS V14.00,2013-02-18 08:55:00,
2013-02-18 02:56:00,54.7,36.4,29.82,SSE,161,12.0,17.0,50,0.00,,---,0.00,VWS V14.00,2013-02-18 08:56:00,
2013-02-18 02:57:00,54.7,36.4,29.82,SSE,161,16.0,16.0,50,0.00,,---,0.00,VWS V14.00,2013-02-18 08:57:00,
2013-02-18 02:58:00,54.7,36.9,29.82,SSE,153,13.0,18.0,51,0.00,,---,0.00,VWS V14.00,2013-02-18 08:58:00,
2013-02-18 02:59:00,54.7,36.9,29.82,South,171,6.0,19.0,51,0.00,,---,0.00,VWS V14.00,2013-02-18 08:59:00,
2013-02-18 03:00:00,54.7,36.9,29.82,South,172,7.0,10.0,51,0.00,,---,0.00,VWS V14.00,2013-02-18 09:00:00,
2013-02-18 03:01:00,54.5,36.8,29.82,SSE,167,7.0,12.0,51,0.00,,---,0.00,VWS V14.00,2013-02-18 09:01:00,
2013-02-18 03:02:00,54.5,36.8,29.82,SSE,148,18.0,18.0,51,0.00,,---,0.00,VWS V14.00,2013-02-18 09:02:00,
2013-02-18 03:03:00,54.5,36.8,29.82,SSE,148,16.0,18.0,51,0.00,,---,0.00,VWS V14.00,2013-02-18 09:03:00,
2013-02-18 03:04:00,54.5,36.8,29.82,SSE,156,11.0,17.0,51,0.00,,---,0.00,VWS V14.00,2013-02-18 09:04:00,
2013-02-18 03:05:00,54.5,36.8,29.82,South,186,12.0,13.0,51,0.00,,---,0.00,VWS V14.00,2013-02-18 09:05:00,
2013-02-18 03:06:00,54.5,37.2,29.82,South,184,18.0,19.0,52,0.00,,---,0.00,VWS V14.00,2013-02-18 09:06:00,
2013-02-18 03:07:00,54.5,37.2,29.82,SSE,148,9.0,18.0,52,0.00,,---,0.00,VWS V14.00,2013-02-18 09:07:00,
2013-02-18 03:08:00,54.5,37.2,29.82,South,184,6.0,18.0,52,0.00,,---,0.00,VWS V14.00,2013-02-18 09:08:00,
2013-02-18 03:09:00,54.5,37.2,29.81,South,181,6.0,14.0,52,0.00,,---,0.00,VWS V14.00,2013-02-18 09:09:00,
2013-02-18 03:10:00,54.5,37.2,29.82,SSE,160,15.0,15.0,52,0.00,,---,0.00,VWS V14.00,2013-02-18 09:10:00,
2013-02-18 03:11:00,54.5,37.2,29.82,SSE,163,11.0,16.0,52,0.00,,---,0.00,VWS V14.00,2013-02-18 09:11:00,
2013-02-18 03:12:00,54.5,37.2,29.82,SSE,165,12.0,17.0,52,0.00,,---,0.00,VWS V14.00,2013-02-18 09:12:00,
2013-02-18 03:13:00,54.5,37.2,29.82,South,178,7.0,13.0,52,0.00,,---,0.00,VWS V14.00,2013-02-18 09:13:00,
2013-02-18 03:14:00,54.4,37.2,29.81,South,169,5.0,10.0,52,0.00,,---,0.00,VWS V14.00,2013-02-18 09:14:00,
2013-02-18 03:15:00,54.4,37.6,29.82,South,169,7.0,11.0,53,0.00,,---,0.00,VWS V14.00,2013-02-18 09:15:00,
2013-02-18 03:16:00,54.2,37.5,29.82,South,186,15.0,15.0,53,0.00,,---,0.00,VWS V14.00,2013-02-18 09:16:00,
2013-02-18 03:17:00,54.2,37.5,29.82,South,175,9.0,16.0,53,0.00,,---,0.00,VWS V14.00,2013-02-18 09:17:00,
2013-02-18 03:18:00,54.2,37.5,29.82,SSE,152,12.0,24.0,53,0.00,,---,0.00,VWS V14.00,2013-02-18 09:18:00,
2013-02-18 03:19:00,54.2,37.5,29.82,South,175,9.0,14.0,53,0.00,,---,0.00,VWS V14.00,2013-02-18 09:19:00,
2013-02-18 03:20:00,54.2,37.5,29.82,SSE,165,12.0,17.0,53,0.00,,---,0.00,VWS V14.00,2013-02-18 09:20:00,
2013-02-18 03:21:00,54.2,37.9,29.82,SSE,153,17.0,17.0,54,0.00,,---,0.00,VWS V14.00,2013-02-18 09:21:00,
2013-02-18 03:22:00,54.2,37.9,29.81,SSE,157,19.0,21.0,54,0.00,,---,0.00,VWS V14.00,2013-02-18 09:22:00,
2013-02-18 03:23:00,54.4,38.1,29.82,South,169,10.0,19.0,54,0.00,,---,0.00,VWS V14.00,2013-02-18 09:23:00,
2013-02-18 03:24:00,54.4,38.1,29.82,SSE,157,9.0,18.0,54,0.00,,---,0.00,VWS V14.00,2013-02-18 09:24:00,
2013-02-18 03:25:00,54.4,38.1,29.81,SSE,158,11.0,11.0,54,0.00,,---,0.00,VWS V14.00,2013-02-18 09:25:00,
2013-02-18 03:26:00,54.2,37.9,29.81,SSE,167,16.0,19.0,54,0.00,,---,0.00,VWS V14.00,2013-02-18 09:26:00,
2013-02-18 03:27:00,54.2,37.9,29.81,SSE,159,6.0,16.0,54,0.00,,---,0.00,VWS V14.00,2013-02-18 09:27:00,
2013-02-18 03:28:00,54.2,37.9,29.81,South,171,9.0,10.0,54,0.00,,---,0.00,VWS V14.00,2013-02-18 09:28:00,
2013-02-18 03:29:00,54.2,37.9,29.81,SSE,160,10.0,11.0,54,0.00,,---,0.00,VWS V14.00,2013-02-18 09:29:00,
2013-02-18 03:30:00,54.1,37.8,29.81,South,182,8.0,14.0,54,0.00,,---,0.00,VWS V14.00,2013-02-18 09:30:00,
2013-02-18 03:31:00,54.1,38.3,29.81,SSE,155,15.0,15.0,55,0.00,,---,0.00,VWS V14.00,2013-02-18 09:31:00,
2013-02-18 03:32:00,54.1,38.3,29.81,South,184,5.0,17.0,55,0.00,,---,0.00,VWS V14.00,2013-02-18 09:32:00,
2013-02-18 03:33:00,54.1,38.3,29.81,South,187,7.0,9.0,55,0.00,,---,0.00,VWS V14.00,2013-02-18 09:33:00,
2013-02-18 03:34:00,53.9,38.1,29.81,South,182,3.0,14.0,55,0.00,,---,0.00,VWS V14.00,2013-02-18 09:34:00,
2013-02-18 03:35:00,53.9,38.1,29.81,SSE,158,10.0,10.0,55,0.00,,---,0.00,VWS V14.00,2013-02-18 09:35:00,
2013-02-18 03:36:00,53.9,38.1,29.81,South,171,6.0,16.0,55,0.00,,---,0.00,VWS V14.00,2013-02-18 09:36:00,
2013-02-18 03:37:00,53.9,38.1,29.81,SSE,154,13.0,16.0,55,0.00,,---,0.00,VWS V14.00,2013-02-18 09:37:00,
2013-02-18 03:38:00,53.9,38.6,29.81,SSE,161,17.0,22.0,56,0.00,,---,0.00,VWS V14.00,2013-02-18 09:38:00,
2013-02-18 03:39:00,53.9,38.6,29.81,South,189,5.0,19.0,56,0.00,,---,0.00,VWS V14.00,2013-02-18 09:39:00,
2013-02-18 03:40:00,53.9,38.6,29.81,SSE,160,10.0,10.0,56,0.00,,---,0.00,VWS V14.00,2013-02-18 09:40:00,
2013-02-18 03:41:00,53.8,38.5,29.81,South,169,8.0,11.0,56,0.00,,---,0.00,VWS V14.00,2013-02-18 09:41:00,
2013-02-18 03:42:00,53.8,38.5,29.81,SSE,164,12.0,18.0,56,0.00,,---,0.00,VWS V14.00,2013-02-18 09:42:00,
2013-02-18 03:43:00,53.8,38.5,29.81,SSE,164,14.0,23.0,56,0.00,,---,0.00,VWS V14.00,2013-02-18 09:43:00,
2013-02-18 03:44:00,53.8,38.5,29.81,SSE,165,11.0,14.0,56,0.00,,---,0.00,VWS V14.00,2013-02-18 09:44:00,
2013-02-18 03:45:00,53.8,38.9,29.81,SSE,155,13.0,14.0,57,0.00,,---,0.00,VWS V14.00,2013-02-18 09:45:00,
2013-02-18 03:46:00,53.8,38.9,29.81,SSE,153,13.0,16.0,57,0.00,,---,0.00,VWS V14.00,2013-02-18 09:46:00,
2013-02-18 03:47:00,53.8,38.9,29.81,SSE,149,13.0,14.0,57,0.00,,---,0.00,VWS V14.00,2013-02-18 09:47:00,
2013-02-18 03:48:00,53.6,38.8,29.80,South,180,3.0,17.0,57,0.00,,---,0.00,VWS V14.00,2013-02-18 09:48:00,
2013-02-18 03:49:00,53.6,38.8,29.80,South,171,4.0,8.0,57,0.00,,---,0.00,VWS V14.00,2013-02-18 09:49:00,
2013-02-18 03:50:00,53.6,38.8,29.80,SE,136,15.0,17.0,57,0.00,,---,0.00,VWS V14.00,2013-02-18 09:50:00,
2013-02-18 03:51:00,53.6,38.8,29.80,SE,134,15.0,18.0,57,0.00,,---,0.00,VWS V14.00,2013-02-18 09:51:00,
2013-02-18 03:52:00,53.6,38.8,29.80,SSE,155,18.0,18.0,57,0.00,,---,0.00,VWS V14.00,2013-02-18 09:52:00,
2013-02-18 03:53:00,53.6,38.8,29.80,WSW,251,12.0,18.0,57,0.00,,---,0.00,VWS V14.00,2013-02-18 09:53:00,
2013-02-18 03:54:00,53.6,38.8,29.80,SSE,159,15.0,15.0,57,0.00,,---,0.00,VWS V14.00,2013-02-18 09:54:00,
2013-02-18 03:55:00,53.6,38.8,29.80,SSE,165,6.0,15.0,57,0.00,,---,0.00,VWS V14.00,2013-02-18 09:55:00,
2013-02-18 03:56:00,53.5,38.7,29.80,SSE,149,4.0,19.0,57,0.00,,---,0.00,VWS V14.00,2013-02-18 09:56:00,
2013-02-18 03:57:00,53.5,39.1,29.80,SSE,162,16.0,16.0,58,0.00,,---,0.00,VWS V14.00,2013-02-18 09:57:00,
2013-02-18 03:58:00,53.5,39.1,29.80,South,169,7.0,17.0,58,0.00,,---,0.00,VWS V14.00,2013-02-18 09:58:00,
2013-02-18 03:59:00,53.5,39.1,29.80,SSE,167,15.0,15.0,58,0.00,,---,0.00,VWS V14.00,2013-02-18 09:59:00,
2013-02-18 04:00:00,53.5,39.1,29.80,South,181,9.0,17.0,58,0.00,,---,0.00,VWS V14.00,2013-02-18 10:00:00,
2013-02-18 04:01:00,53.5,39.1,29.80,SSE,163,5.0,13.0,58,0.00,,---,0.00,VWS V14.00,2013-02-18 10:01:00,
2013-02-18 04:02:00,53.5,39.1,29.80,South,175,7.0,11.0,58,0.00,,---,0.00,VWS V14.00,2013-02-18 10:02:00,
2013-02-18 04:03:00,53.5,39.1,29.80,South,171,5.0,16.0,58,0.00,,---,0.00,VWS V14.00,2013-02-18 10:03:00,
2013-02-18 04:04:00,53.5,39.1,29.80,SSE,155,13.0,14.0,58,0.00,,---,0.00,VWS V14.00,2013-02-18 10:04:00,
2013-02-18 04:05:00,53.5,39.1,29.79,South,171,4.0,16.0,58,0.00,,---,0.00,VWS V14.00,2013-02-18 10:05:00,
2013-02-18 04:06:00,53.5,39.1,29.80,South,190,10.0,11.0,58,0.00,,---,0.00,VWS V14.00,2013-02-18 10:06:00,
2013-02-18 04:07:00,53.5,39.1,29.79,SSE,155,14.0,22.0,58,0.00,,---,0.00,VWS V14.00,2013-02-18 10:07:00,
2013-02-18 04:08:00,53.6,39.6,29.79,SE,134,9.0,20.0,59,0.00,,---,0.00,VWS V14.00,2013-02-18 10:08:00,
2013-02-18 04:09:00,53.6,39.6,29.79,SSW,205,6.0,15.0,59,0.00,,---,0.00,VWS V14.00,2013-02-18 10:09:00,
2013-02-18 04:10:00,53.6,39.6,29.79,South,169,10.0,13.0,59,0.00,,---,0.00,VWS V14.00,2013-02-18 10:10:00,
2013-02-18 04:11:00,53.5,39.1,29.79,SSW,197,12.0,14.0,58,0.00,,---,0.00,VWS V14.00,2013-02-18 10:11:00,
2013-02-18 04:12:00,53.6,39.6,29.79,SSE,163,12.0,16.0,59,0.00,,---,0.00,VWS V14.00,2013-02-18 10:12:00,
2013-02-18 04:13:00,53.5,39.5,29.79,SSE,163,15.0,17.0,59,0.00,,---,0.00,VWS V14.00,2013-02-18 10:13:00,
2013-02-18 04:14:00,53.6,39.6,29.79,SSE,149,19.0,20.0,59,0.00,,---,0.00,VWS V14.00,2013-02-18 10:14:00,
2013-02-18 04:15:00,53.6,39.6,29.79,SE,136,16.0,19.0,59,0.00,,---,0.00,VWS V14.00,2013-02-18 10:15:00,
2013-02-18 04:16:00,53.6,39.6,29.79,SSE,150,13.0,16.0,59,0.00,,---,0.00,VWS V14.00,2013-02-18 10:16:00,
2013-02-18 04:17:00,53.6,39.6,29.79,SSE,162,13.0,18.0,59,0.00,,---,0.00,VWS V14.00,2013-02-18 10:17:00,
2013-02-18 04:18:00,53.5,39.5,29.79,SSE,167,7.0,13.0,59,0.00,,---,0.00,VWS V14.00,2013-02-18 10:18:00,
2013-02-18 04:19:00,53.5,39.5,29.79,SSE,154,10.0,15.0,59,0.00,,---,0.00,VWS V14.00,2013-02-18 10:19:00,
2013-02-18 04:20:00,53.5,40.0,29.79,South,182,10.0,17.0,60,0.00,,---,0.00,VWS V14.00,2013-02-18 10:20:00,
2013-02-18 04:21:00,53.6,40.1,29.79,South,179,6.0,19.0,60,0.00,,---,0.00,VWS V14.00,2013-02-18 10:21:00,
2013-02-18 04:22:00,53.6,40.1,29.79,SSW,199,15.0,17.0,60,0.00,,---,0.00,VWS V14.00,2013-02-18 10:22:00,
2013-02-18 04:23:00,53.6,40.1,29.79,SSE,155,22.0,22.0,60,0.00,,---,0.00,VWS V14.00,2013-02-18 10:23:00,
2013-02-18 04:24:00,53.6,40.1,29.78,SSE,161,11.0,22.0,60,0.00,,---,0.00,VWS V14.00,2013-02-18 10:24:00,
2013-02-18 04:25:00,53.6,40.1,29.79,SSE,167,11.0,14.0,60,0.00,,---,0.00,VWS V14.00,2013-02-18 10:25:00,
2013-02-18 04:26:00,53.6,40.1,29.78,SSE,166,17.0,17.0,60,0.00,,---,0.00,VWS V14.00,2013-02-18 10:26:00,
2013-02-18 04:27:00,53.8,40.3,29.79,SSE,157,16.0,25.0,60,0.00,,---,0.00,VWS V14.00,2013-02-18 10:27:00,
2013-02-18 04:28:00,53.8,40.3,29.78,ESE,123,16.0,19.0,60,0.00,,---,0.00,VWS V14.00,2013-02-18 10:28:00,
2013-02-18 04:29:00,53.8,40.3,29.78,South,170,15.0,23.0,60,0.00,,---,0.00,VWS V14.00,2013-02-18 10:29:00,
2013-02-18 04:30:00,53.8,40.3,29.79,SSE,168,6.0,15.0,60,0.00,,---,0.00,VWS V14.00,2013-02-18 10:30:00,
2013-02-18 04:31:00,53.8,40.3,29.79,SSE,159,15.0,25.0,60,0.00,,---,0.00,VWS V14.00,2013-02-18 10:31:00,
2013-02-18 04:32:00,53.6,40.5,29.78,South,173,10.0,16.0,61,0.00,,---,0.00,VWS V14.00,2013-02-18 10:32:00,
2013-02-18 04:33:00,53.8,40.7,29.78,South,169,7.0,20.0,61,0.00,,---,0.00,VWS V14.00,2013-02-18 10:33:00,
2013-02-18 04:34:00,53.8,40.7,29.78,South,172,3.0,13.0,61,0.00,,---,0.00,VWS V14.00,2013-02-18 10:34:00,
2013-02-18 04:35:00,53.6,40.5,29.78,SSW,206,13.0,13.0,61,0.00,,---,0.00,VWS V14.00,2013-02-18 10:35:00,
2013-02-18 04:36:00,53.6,40.5,29.78,SSW,194,15.0,20.0,61,0.00,,---,0.00,VWS V14.00,2013-02-18 10:36:00,
2013-02-18 04:37:00,53.6,40.5,29.78,SE,144,11.0,15.0,61,0.00,,---,0.00,VWS V14.00,2013-02-18 10:37:00,
2013-02-18 04:38:00,53.8,40.7,29.78,SSE,156,7.0,20.0,61,0.00,,---,0.00,VWS V14.00,2013-02-18 10:38:00,
2013-02-18 04:39:00,53.6,40.5,29.78,SSW,199,11.0,14.0,61,0.00,,---,0.00,VWS V14.00,2013-02-18 10:39:00,
2013-02-18 04:40:00,53.6,40.5,29.78,SSW,197,6.0,11.0,61,0.00,,---,0.00,VWS V14.00,2013-02-18 10:40:00,
2013-02-18 04:41:00,53.6,40.5,29.78,SSE,155,17.0,21.0,61,0.00,,---,0.00,VWS V14.00,2013-02-18 10:41:00,
2013-02-18 04:42:00,53.6,40.9,29.78,South,169,7.0,17.0,62,0.00,,---,0.00,VWS V14.00,2013-02-18 10:42:00,
2013-02-18 04:43:00,53.6,40.9,29.78,SE,140,12.0,14.0,62,0.00,,---,0.00,VWS V14.00,2013-02-18 10:43:00,
2013-02-18 04:44:00,53.6,40.9,29.78,South,182,5.0,21.0,62,0.00,,---,0.00,VWS V14.00,2013-02-18 10:44:00,
2013-02-18 04:45:00,53.6,40.9,29.78,South,184,12.0,12.0,62,0.00,,---,0.00,VWS V14.00,2013-02-18 10:45:00,
2013-02-18 04:46:00,53.6,40.9,29.78,SE,144,14.0,16.0,62,0.00,,---,0.00,VWS V14.00,2013-02-18 10:46:00,
2013-02-18 04:47:00,53.6,40.9,29.78,South,173,11.0,15.0,62,0.00,,---,0.00,VWS V14.00,2013-02-18 10:47:00,
2013-02-18 04:48:00,53.6,40.9,29.78,SSE,164,18.0,21.0,62,0.00,,---,0.00,VWS V14.00,2013-02-18 10:48:00,
2013-02-18 04:49:00,53.6,40.9,29.77,South,173,12.0,20.0,62,0.00,,---,0.00,VWS V14.00,2013-02-18 10:49:00,
2013-02-18 04:50:00,53.6,40.9,29.78,SSE,159,14.0,23.0,62,0.00,,---,0.00,VWS V14.00,2013-02-18 10:50:00,
2013-02-18 04:51:00,53.8,41.1,29.78,South,173,11.0,16.0,62,0.00,,---,0.00,VWS V14.00,2013-02-18 10:51:00,
2013-02-18 04:52:00,53.8,41.1,29.78,SSE,160,9.0,12.0,62,0.00,,---,0.00,VWS V14.00,2013-02-18 10:52:00,
2013-02-18 04:53:00,53.8,41.1,29.78,South,187,4.0,12.0,62,0.00,,---,0.00,VWS V14.00,2013-02-18 10:53:00,
2013-02-18 04:54:00,53.6,40.9,29.78,SSW,207,9.0,14.0,62,0.00,,---,0.00,VWS V14.00,2013-02-18 10:54:00,
2013-02-18 04:55:00,53.6,40.9,29.78,South,174,11.0,11.0,62,0.00,,---,0.00,VWS V14.00,2013-02-18 10:55:00,
2013-02-18 04:56:00,53.6,40.9,29.78,SSE,157,12.0,16.0,62,0.00,,---,0.00,VWS V14.00,2013-02-18 10:56:00,
2013-02-18 04:57:00,53.6,40.9,29.78,South,190,14.0,19.0,62,0.00,,---,0.00,VWS V14.00,2013-02-18 10:57:00,
2013-02-18 04:58:00,53.6,40.9,29.78,SSE,161,16.0,20.0,62,0.00,,---,0.00,VWS V14.00,2013-02-18 10:58:00,
2013-02-18 04:59:00,53.8,41.1,29.78,SSW,195,14.0,23.0,62,0.00,,---,0.00,VWS V14.00,2013-02-18 10:59:00,
2013-02-18 05:00:00,53.8,41.1,29.78,SSW,193,15.0,16.0,62,0.00,,---,0.00,VWS V14.00,2013-02-18 11:00:00,
2013-02-18 05:01:00,53.6,40.9,29.78,South,177,7.0,13.0,62,0.00,,---,0.00,VWS V14.00,2013-02-18 11:01:00,
2013-02-18 05:02:00,53.6,40.9,29.78,SSE,155,9.0,20.0,62,0.00,,---,0.00,VWS V14.00,2013-02-18 11:02:00,
2013-02-18 05:03:00,53.6,40.9,29.78,SSE,157,8.0,15.0,62,0.00,,---,0.00,VWS V14.00,2013-02-18 11:03:00,
2013-02-18 05:04:00,53.5,40.8,29.78,SSE,161,11.0,14.0,62,0.00,,---,0.00,VWS V14.00,2013-02-18 11:04:00,
2013-02-18 05:05:00,53.5,40.8,29.78,SSE,167,10.0,14.0,62,0.00,,---,0.00,VWS V14.00,2013-02-18 11:05:00,
2013-02-18 05:06:00,53.5,40.8,29.78,SSE,155,4.0,13.0,62,0.00,,---,0.00,VWS V14.00,2013-02-18 11:06:00,
2013-02-18 05:07:00,53.5,40.8,29.78,SSE,159,12.0,13.0,62,0.00,,---,0.00,VWS V14.00,2013-02-18 11:07:00,
2013-02-18 05:08:00,53.3,40.6,29.78,South,180,6.0,17.0,62,0.00,,---,0.00,VWS V14.00,2013-02-18 11:08:00,
2013-02-18 05:09:00,53.3,40.6,29.78,South,178,11.0,12.0,62,0.00,,---,0.00,VWS V14.00,2013-02-18 11:09:00,
2013-02-18 05:10:00,53.3,40.6,29.78,SSE,167,7.0,12.0,62,0.00,,---,0.00,VWS V14.00,2013-02-18 11:10:00,
2013-02-18 05:11:00,53.3,41.0,29.78,SSW,192,14.0,14.0,63,0.00,,---,0.00,VWS V14.00,2013-02-18 11:11:00,
2013-02-18 05:12:00,53.3,41.0,29.78,SSE,168,7.0,18.0,63,0.00,,---,0.00,VWS V14.00,2013-02-18 11:12:00,
2013-02-18 05:13:00,53.3,41.0,29.78,SSE,155,18.0,20.0,63,0.00,,---,0.00,VWS V14.00,2013-02-18 11:13:00,
2013-02-18 05:14:00,53.3,40.6,29.78,South,178,10.0,18.0,62,0.00,,---,0.00,VWS V14.00,2013-02-18 11:14:00,
2013-02-18 05:15:00,53.3,40.6,29.78,SE,124,2.0,13.0,62,0.00,,---,0.00,VWS V14.00,2013-02-18 11:15:00,
2013-02-18 05:16:00,53.3,41.0,29.78,SSW,204,5.0,14.0,63,0.00,,---,0.00,VWS V14.00,2013-02-18 11:16:00,
2013-02-18 05:17:00,53.3,41.0,29.78,South,171,10.0,13.0,63,0.00,,---,0.00,VWS V14.00,2013-02-18 11:17:00,
2013-02-18 05:18:00,53.3,41.0,29.78,SSW,205,5.0,15.0,63,0.00,,---,0.00,VWS V14.00,2013-02-18 11:18:00,
2013-02-18 05:19:00,53.3,41.0,29.78,SW,232,11.0,16.0,63,0.00,,---,0.00,VWS V14.00,2013-02-18 11:19:00,
2013-02-18 05:20:00,53.3,41.0,29.78,SE,132,16.0,21.0,63,0.00,,---,0.00,VWS V14.00,2013-02-18 11:20:00,
2013-02-18 05:21:00,53.3,41.0,29.78,SE,142,15.0,15.0,63,0.00,,---,0.00,VWS V14.00,2013-02-18 11:21:00,
2013-02-18 05:22:00,53.3,41.0,29.78,SSW,196,15.0,16.0,63,0.00,,---,0.00,VWS V14.00,2013-02-18 11:22:00,
2013-02-18 05:23:00,53.3,41.0,29.78,SSE,165,6.0,16.0,63,0.00,,---,0.00,VWS V14.00,2013-02-18 11:23:00,
2013-02-18 05:24:00,53.5,41.2,29.78,SSW,194,7.0,15.0,63,0.00,,---,0.00,VWS V14.00,2013-02-18 11:24:00,
2013-02-18 05:25:00,53.5,41.2,29.78,SSW,194,6.0,12.0,63,0.00,,---,0.00,VWS V14.00,2013-02-18 11:25:00,
2013-02-18 05:26:00,53.5,41.2,29.78,SSE,167,13.0,21.0,63,0.00,,---,0.00,VWS V14.00,2013-02-18 11:26:00,
2013-02-18 05:27:00,53.5,41.2,29.78,South,171,7.0,17.0,63,0.00,,---,0.00,VWS V14.00,2013-02-18 11:27:00,
2013-02-18 05:28:00,53.5,41.2,29.78,SSW,205,11.0,11.0,63,0.00,,---,0.00,VWS V14.00,2013-02-18 11:28:00,
2013-02-18 05:29:00,53.3,41.0,29.78,SSE,161,7.0,12.0,63,0.00,,---,0.00,VWS V14.00,2013-02-18 11:29:00,
2013-02-18 05:30:00,53.3,41.0,29.78,SSE,153,11.0,11.0,63,0.00,,---,0.00,VWS V14.00,2013-02-18 11:30:00,
2013-02-18 05:31:00,53.3,41.0,29.78,SSW,211,7.0,11.0,63,0.00,,---,0.00,VWS V14.00,2013-02-18 11:31:00,
2013-02-18 05:32:00,53.3,41.0,29.78,South,172,10.0,11.0,63,0.00,,---,0.00,VWS V14.00,2013-02-18 11:32:00,
2013-02-18 05:33:00,53.3,41.0,29.78,SSE,149,7.0,20.0,63,0.00,,---,0.00,VWS V14.00,2013-02-18 11:33:00,
2013-02-18 05:34:00,53.3,41.0,29.78,South,169,9.0,13.0,63,0.00,,---,0.00,VWS V14.00,2013-02-18 11:34:00,
2013-02-18 05:35:00,53.5,41.2,29.78,South,178,12.0,13.0,63,0.00,,---,0.00,VWS V14.00,2013-02-18 11:35:00,
2013-02-18 05:36:00,53.5,41.2,29.78,South,183,4.0,14.0,63,0.00,,---,0.00,VWS V14.00,2013-02-18 11:36:00,
2013-02-18 05:37:00,53.5,41.2,29.78,SSE,148,7.0,12.0,63,0.00,,---,0.00,VWS V14.00,2013-02-18 11:37:00,
2013-02-18 05:38:00,53.5,41.2,29.78,SSE,162,12.0,13.0,63,0.00,,---,0.00,VWS V14.00,2013-02-18 11:38:00,
2013-02-18 05:39:00,53.5,41.2,29.78,South,184,6.0,15.0,63,0.00,,---,0.00,VWS V14.00,2013-02-18 11:39:00,
2013-02-18 05:40:00,53.5,41.6,29.78,SSE,150,13.0,15.0,64,0.00,,---,0.00,VWS V14.00,2013-02-18 11:40:00,
2013-02-18 05:41:00,53.5,41.6,29.78,SSE,161,5.0,13.0,64,0.00,,---,0.00,VWS V14.00,2013-02-18 11:41:00,
2013-02-18 05:42:00,53.5,41.6,29.77,SSE,167,7.0,9.0,64,0.00,,---,0.00,VWS V14.00,2013-02-18 11:42:00,
2013-02-18 05:43:00,53.5,41.6,29.77,SSE,162,8.0,11.0,64,0.00,,---,0.00,VWS V14.00,2013-02-18 11:43:00,
2013-02-18 05:44:00,53.5,41.6,29.78,South,169,10.0,14.0,64,0.00,,---,0.00,VWS V14.00,2013-02-18 11:44:00,
2013-02-18 05:45:00,53.5,41.6,29.77,South,173,13.0,13.0,64,0.00,,---,0.00,VWS V14.00,2013-02-18 11:45:00,
2013-02-18 05:46:00,53.5,41.6,29.77,South,169,12.0,15.0,64,0.00,,---,0.00,VWS V14.00,2013-02-18 11:46:00,
2013-02-18 05:47:00,53.5,41.6,29.77,South,171,11.0,12.0,64,0.00,,---,0.00,VWS V14.00,2013-02-18 11:47:00,
2013-02-18 05:48:00,53.5,41.6,29.77,South,190,12.0,13.0,64,0.00,,---,0.00,VWS V14.00,2013-02-18 11:48:00,
2013-02-18 05:49:00,53.5,41.6,29.77,SE,144,9.0,12.0,64,0.00,,---,0.00,VWS V14.00,2013-02-18 11:49:00,
2013-02-18 05:50:00,53.5,41.6,29.77,SSE,150,10.0,11.0,64,0.00,,---,0.00,VWS V14.00,2013-02-18 11:50:00,
2013-02-18 05:51:00,53.5,41.6,29.77,South,169,13.0,16.0,64,0.00,,---,0.00,VWS V14.00,2013-02-18 11:51:00,
2013-02-18 05:52:00,53.5,41.6,29.77,SSE,162,9.0,15.0,64,0.00,,---,0.00,VWS V14.00,2013-02-18 11:52:00,
2013-02-18 05:53:00,53.5,41.6,29.77,SSE,165,10.0,12.0,64,0.00,,---,0.00,VWS V14.00,2013-02-18 11:53:00,
2013-02-18 05:54:00,53.6,41.7,29.77,South,179,11.0,23.0,64,0.00,,---,0.00,VWS V14.00,2013-02-18 11:54:00,
2013-02-18 05:55:00,53.6,41.7,29.77,South,179,7.0,13.0,64,0.00,,---,0.00,VWS V14.00,2013-02-18 11:55:00,
2013-02-18 05:56:00,53.8,41.9,29.77,SSE,166,6.0,10.0,64,0.00,,---,0.00,VWS V14.00,2013-02-18 11:56:00,
2013-02-18 05:57:00,53.8,41.9,29.77,South,189,13.0,13.0,64,0.00,,---,0.00,VWS V14.00,2013-02-18 11:57:00,
2013-02-18 05:58:00,53.8,41.9,29.77,South,169,8.0,15.0,64,0.00,,---,0.00,VWS V14.00,2013-02-18 11:58:00,
2013-02-18 05:59:00,53.8,41.9,29.77,South,173,10.0,12.0,64,0.00,,---,0.00,VWS V14.00,2013-02-18 11:59:00,
2013-02-18 06:00:00,53.8,41.9,29.77,SSE,163,10.0,14.0,64,0.00,,---,0.00,VWS V14.00,2013-02-18 12:00:00,
2013-02-18 06:01:00,53.8,41.9,29.77,South,174,14.0,16.0,64,0.00,,---,0.00,VWS V14.00,2013-02-18 12:01:00,
2013-02-18 06:02:00,53.8,41.9,29.77,SSE,165,11.0,20.0,64,0.00,,---,0.00,VWS V14.00,2013-02-18 12:02:00,
2013-02-18 06:03:00,53.9,42.0,29.77,SE,141,13.0,15.0,64,0.00,,---,0.00,VWS V14.00,2013-02-18 12:03:00,
2013-02-18 06:04:00,53.9,42.0,29.77,SSE,159,12.0,14.0,64,0.00,,---,0.00,VWS V14.00,2013-02-18 12:04:00,
2013-02-18 06:05:00,53.9,42.0,29.77,South,174,6.0,12.0,64,0.00,,---,0.00,VWS V14.00,2013-02-18 12:05:00,
2013-02-18 06:06:00,53.8,41.1,29.77,SSE,165,6.0,11.0,62,0.00,,---,0.00,VWS V14.00,2013-02-18 12:06:00,
2013-02-18 06:07:00,53.8,41.9,29.77,South,170,11.0,11.0,64,0.00,,---,0.00,VWS V14.00,2013-02-18 12:07:00,
2013-02-18 06:08:00,53.8,42.3,29.77,SSE,154,5.0,11.0,65,0.00,,---,0.00,VWS V14.00,2013-02-18 12:08:00,
2013-02-18 06:09:00,53.6,42.1,29.77,SSE,164,6.0,15.0,65,0.00,,---,0.00,VWS V14.00,2013-02-18 12:09:00,
2013-02-18 06:10:00,53.6,42.1,29.77,SSE,162,5.0,14.0,65,0.00,,---,0.00,VWS V14.00,2013-02-18 12:10:00,
2013-02-18 06:11:00,53.6,42.1,29.77,South,176,8.0,21.0,65,0.00,,---,0.00,VWS V14.00,2013-02-18 12:11:00,
2013-02-18 06:12:00,53.8,42.3,29.77,South,169,12.0,13.0,65,0.00,,---,0.00,VWS V14.00,2013-02-18 12:12:00,
2013-02-18 06:13:00,53.8,42.3,29.77,SSE,161,19.0,19.0,65,0.00,,---,0.00,VWS V14.00,2013-02-18 12:13:00,
2013-02-18 06:14:00,53.8,42.3,29.77,SSE,153,12.0,19.0,65,0.00,,---,0.00,VWS V14.00,2013-02-18 12:14:00,
2013-02-18 06:15:00,53.8,42.3,29.77,South,176,7.0,13.0,65,0.00,,---,0.00,VWS V14.00,2013-02-18 12:15:00,
2013-02-18 06:16:00,53.8,42.3,29.77,SSE,163,6.0,12.0,65,0.00,,---,0.00,VWS V14.00,2013-02-18 12:16:00,
2013-02-18 06:17:00,53.6,42.1,29.77,SE,139,14.0,14.0,65,0.00,,---,0.00,VWS V14.00,2013-02-18 12:17:00,
2013-02-18 06:18:00,53.6,42.1,29.77,SE,141,14.0,16.0,65,0.00,,---,0.00,VWS V14.00,2013-02-18 12:18:00,
2013-02-18 06:19:00,53.6,42.1,29.77,SSE,157,12.0,15.0,65,0.00,,---,0.00,VWS V14.00,2013-02-18 12:19:00,
2013-02-18 06:20:00,53.6,42.1,29.76,South,184,17.0,17.0,65,0.00,,---,0.00,VWS V14.00,2013-02-18 12:20:00,
2013-02-18 06:21:00,53.6,42.1,29.76,South,172,12.0,20.0,65,0.00,,---,0.00,VWS V14.00,2013-02-18 12:21:00,
2013-02-18 06:22:00,53.6,42.1,29.76,South,169,7.0,12.0,65,0.00,,---,0.00,VWS V14.00,2013-02-18 12:22:00,
2013-02-18 06:23:00,53.6,42.1,29.76,SSE,157,11.0,17.0,65,0.00,,---,0.00,VWS V14.00,2013-02-18 12:23:00,
2013-02-18 06:24:00,53.6,42.1,29.76,SSE,165,9.0,14.0,65,0.00,,---,0.00,VWS V14.00,2013-02-18 12:24:00,
2013-02-18 06:25:00,53.5,42.0,29.76,SSE,157,7.0,13.0,65,0.00,,---,0.00,VWS V14.00,2013-02-18 12:25:00,
2013-02-18 06:26:00,53.5,42.0,29.75,SSE,155,14.0,18.0,65,0.00,,---,0.00,VWS V14.00,2013-02-18 12:26:00,
2013-02-18 06:27:00,53.5,42.0,29.75,SSE,160,11.0,21.0,65,0.00,,---,0.00,VWS V14.00,2013-02-18 12:27:00,
2013-02-18 06:28:00,53.5,42.0,29.75,South,172,6.0,15.0,65,0.00,,---,0.00,VWS V14.00,2013-02-18 12:28:00,
2013-02-18 06:29:00,53.5,42.0,29.75,SSE,154,15.0,17.0,65,0.00,,---,0.00,VWS V14.00,2013-02-18 12:29:00,
2013-02-18 06:30:00,53.5,42.4,29.75,SSE,167,12.0,15.0,66,0.00,,---,0.00,VWS V14.00,2013-02-18 12:30:00,
2013-02-18 06:31:00,53.5,42.4,29.75,SE,134,14.0,20.0,66,0.00,,---,0.00,VWS V14.00,2013-02-18 12:31:00,
2013-02-18 06:32:00,53.5,42.4,29.76,South,180,14.0,19.0,66,0.00,,---,0.00,VWS V14.00,2013-02-18 12:32:00,
2013-02-18 06:33:00,53.5,42.4,29.76,SE,126,17.0,17.0,66,0.00,,---,0.00,VWS V14.00,2013-02-18 12:33:00,
2013-02-18 06:34:00,53.5,42.4,29.76,South,185,10.0,17.0,66,0.00,,---,0.00,VWS V14.00,2013-02-18 12:34:00,
2013-02-18 06:35:00,53.6,42.5,29.76,SSE,167,8.0,16.0,66,0.00,,---,0.00,VWS V14.00,2013-02-18 12:35:00,
2013-02-18 06:36:00,53.6,42.5,29.75,SSE,167,13.0,15.0,66,0.00,,---,0.00,VWS V14.00,2013-02-18 12:36:00,
2013-02-18 06:37:00,53.6,42.5,29.75,SSE,148,6.0,16.0,66,0.00,,---,0.00,VWS V14.00,2013-02-18 12:37:00,
2013-02-18 06:38:00,53.6,42.5,29.75,SSE,165,13.0,18.0,66,0.00,,---,0.00,VWS V14.00,2013-02-18 12:38:00,
2013-02-18 06:39:00,53.6,42.5,29.75,SE,146,9.0,15.0,66,0.00,,---,0.00,VWS V14.00,2013-02-18 12:39:00,
2013-02-18 06:40:00,53.6,42.5,29.75,SE,132,11.0,16.0,66,0.00,,---,0.00,VWS V14.00,2013-02-18 12:40:00,
2013-02-18 06:41:00,53.6,42.5,29.75,SSW,197,6.0,17.0,66,0.00,,---,0.00,VWS V14.00,2013-02-18 12:41:00,
2013-02-18 06:42:00,53.6,42.5,29.75,SSE,164,13.0,14.0,66,0.00,,---,0.00,VWS V14.00,2013-02-18 12:42:00,
2013-02-18 06:43:00,53.6,42.5,29.75,South,184,7.0,13.0,66,0.00,,---,0.00,VWS V14.00,2013-02-18 12:43:00,
2013-02-18 06:44:00,53.6,42.5,29.75,SE,144,13.0,13.0,66,0.00,,---,0.00,VWS V14.00,2013-02-18 12:44:00,
2013-02-18 06:45:00,53.6,42.5,29.75,SSE,165,8.0,14.0,66,0.00,,---,0.00,VWS V14.00,2013-02-18 12:45:00,
2013-02-18 06:46:00,53.6,42.5,29.75,SW,217,17.0,17.0,66,0.00,,---,0.00,VWS V14.00,2013-02-18 12:46:00,
2013-02-18 06:47:00,53.6,42.9,29.75,South,169,9.0,17.0,67,0.00,,---,0.00,VWS V14.00,2013-02-18 12:47:00,
2013-02-18 06:48:00,53.6,42.9,29.75,SSE,154,10.0,15.0,67,0.00,,---,0.00,VWS V14.00,2013-02-18 12:48:00,
2013-02-18 06:49:00,53.6,42.9,29.75,South,172,6.0,11.0,67,0.00,,---,0.00,VWS V14.00,2013-02-18 12:49:00,
2013-02-18 06:50:00,53.8,43.1,29.75,SSE,163,15.0,19.0,67,0.00,,---,0.00,VWS V14.00,2013-02-18 12:50:00,
2013-02-18 06:51:00,53.8,43.1,29.75,South,174,8.0,16.0,67,0.00,,---,0.00,VWS V14.00,2013-02-18 12:51:00,
2013-02-18 06:52:00,53.8,43.1,29.75,SSE,162,9.0,12.0,67,0.00,,---,0.00,VWS V14.00,2013-02-18 12:52:00,
2013-02-18 06:53:00,53.8,43.1,29.75,South,190,9.0,16.0,67,0.00,,---,0.00,VWS V14.00,2013-02-18 12:53:00,
2013-02-18 06:54:00,53.8,43.1,29.75,South,171,6.0,11.0,67,0.00,,---,0.00,VWS V14.00,2013-02-18 12:54:00,
2013-02-18 06:55:00,53.8,43.1,29.75,South,174,10.0,17.0,67,0.00,,---,0.00,VWS V14.00,2013-02-18 12:55:00,
2013-02-18 06:56:00,53.9,43.2,29.75,SSE,162,12.0,14.0,67,0.00,,---,0.00,VWS V14.00,2013-02-18 12:56:00,
2013-02-18 06:57:00,53.9,43.2,29.75,SSW,204,6.0,15.0,67,0.00,,---,0.00,VWS V14.00,2013-02-18 12:57:00,
2013-02-18 06:58:00,53.9,43.2,29.75,SSE,162,10.0,10.0,67,0.00,,---,0.00,VWS V14.00,2013-02-18 12:58:00,
2013-02-18 06:59:00,53.8,43.1,29.75,SE,145,18.0,19.0,67,0.00,,---,0.00,VWS V14.00,2013-02-18 12:59:00,
2013-02-18 07:00:00,53.9,43.2,29.75,South,184,5.0,18.0,67,0.00,,---,0.00,VWS V14.00,2013-02-18 13:00:00,
2013-02-18 07:01:00,53.9,43.2,29.75,SSE,165,9.0,16.0,67,0.00,,---,0.00,VWS V14.00,2013-02-18 13:01:00,
2013-02-18 07:02:00,53.9,43.2,29.75,South,184,19.0,25.0,67,0.00,,---,0.00,VWS V14.00,2013-02-18 13:02:00,
2013-02-18 07:03:00,53.9,43.6,29.75,SSE,161,10.0,22.0,68,0.00,,---,0.00,VWS V14.00,2013-02-18 13:03:00,
2013-02-18 07:04:00,53.9,43.6,29.74,SSE,159,14.0,15.0,68,0.00,,---,0.00,VWS V14.00,2013-02-18 13:04:00,
2013-02-18 07:05:00,53.9,43.6,29.74,SE,141,6.0,16.0,68,0.00,,---,0.00,VWS V14.00,2013-02-18 13:05:00,
2013-02-18 07:06:00,54.1,43.8,29.74,SE,145,10.0,24.0,68,0.00,,---,0.00,VWS V14.00,2013-02-18 13:06:00,
2013-02-18 07:07:00,54.1,43.8,29.74,South,171,10.0,14.0,68,0.00,,---,0.00,VWS V14.00,2013-02-18 13:07:00,
2013-02-18 07:08:00,53.9,43.6,29.74,SSE,157,10.0,15.0,68,0.00,,---,0.00,VWS V14.00,2013-02-18 13:08:00,
2013-02-18 07:09:00,53.9,43.6,29.74,South,180,11.0,11.0,68,0.00,,---,0.00,VWS V14.00,2013-02-18 13:09:00,
2013-02-18 07:10:00,53.9,43.6,29.75,South,183,3.0,12.0,68,0.00,,---,0.00,VWS V14.00,2013-02-18 13:10:00,
2013-02-18 07:11:00,53.9,43.6,29.75,SSE,161,4.0,14.0,68,0.00,,---,0.00,VWS V14.00,2013-02-18 13:11:00,
2013-02-18 07:12:00,53.9,43.6,29.75,SE,142,15.0,22.0,68,0.00,,---,0.00,VWS V14.00,2013-02-18 13:12:00,
2013-02-18 07:13:00,53.9,43.6,29.74,SSE,167,7.0,17.0,68,0.00,,---,0.00,VWS V14.00,2013-02-18 13:13:00,
2013-02-18 07:14:00,53.9,43.6,29.75,SSE,161,15.0,16.0,68,0.00,,---,0.00,VWS V14.00,2013-02-18 13:14:00,
2013-02-18 07:15:00,53.9,43.6,29.75,SSW,195,10.0,15.0,68,0.00,,---,0.00,VWS V14.00,2013-02-18 13:15:00,
2013-02-18 07:16:00,53.9,43.6,29.75,South,188,8.0,13.0,68,0.00,,---,0.00,VWS V14.00,2013-02-18 13:16:00,
2013-02-18 07:17:00,53.9,43.6,29.75,South,181,12.0,12.0,68,0.00,,---,0.00,VWS V14.00,2013-02-18 13:17:00,
2013-02-18 07:18:00,53.9,43.6,29.75,South,171,9.0,19.0,68,0.00,,---,0.00,VWS V14.00,2013-02-18 13:18:00,
2013-02-18 07:19:00,53.9,43.6,29.75,South,188,15.0,15.0,68,0.00,,---,0.00,VWS V14.00,2013-02-18 13:19:00,
2013-02-18 07:20:00,53.9,44.0,29.75,SSE,150,12.0,15.0,69,0.00,,---,0.00,VWS V14.00,2013-02-18 13:20:00,
2013-02-18 07:21:00,53.9,44.0,29.75,SSW,206,4.0,14.0,69,0.00,,---,0.00,VWS V14.00,2013-02-18 13:21:00,
2013-02-18 07:22:00,53.9,44.0,29.75,SE,146,11.0,14.0,69,0.00,,---,0.00,VWS V14.00,2013-02-18 13:22:00,
2013-02-18 07:23:00,53.9,44.0,29.75,SSE,168,12.0,13.0,69,0.00,,---,0.00,VWS V14.00,2013-02-18 13:23:00,
2013-02-18 07:24:00,53.9,44.0,29.74,South,171,10.0,18.0,69,0.00,,---,0.00,VWS V14.00,2013-02-18 13:24:00,
2013-02-18 07:25:00,53.9,44.0,29.74,South,182,14.0,14.0,69,0.00,,---,0.00,VWS V14.00,2013-02-18 13:25:00,
2013-02-18 07:26:00,53.9,44.0,29.75,South,178,12.0,16.0,69,0.00,,---,0.00,VWS V14.00,2013-02-18 13:26:00,
2013-02-18 07:27:00,53.9,44.0,29.75,South,176,4.0,17.0,69,0.00,,---,0.00,VWS V14.00,2013-02-18 13:27:00,
2013-02-18 07:28:00,53.9,44.0,29.75,SSE,168,7.0,12.0,69,0.00,,---,0.00,VWS V14.00,2013-02-18 13:28:00,
2013-02-18 07:29:00,53.9,44.0,29.75,South,180,11.0,16.0,69,0.00,,---,0.00,VWS V14.00,2013-02-18 13:29:00,
2013-02-18 07:30:00,53.9,44.0,29.75,South,188,12.0,12.0,69,0.00,,---,0.00,VWS V14.00,2013-02-18 13:30:00,
2013-02-18 07:31:00,53.9,44.0,29.75,SSE,158,13.0,20.0,69,0.00,,---,0.00,VWS V14.00,2013-02-18 13:31:00,
2013-02-18 07:32:00,53.9,44.0,29.75,South,169,6.0,17.0,69,0.00,,---,0.00,VWS V14.00,2013-02-18 13:32:00,
2013-02-18 07:33:00,53.9,44.0,29.75,SSE,165,4.0,12.0,69,0.00,,---,0.00,VWS V14.00,2013-02-18 13:33:00,
2013-02-18 07:34:00,53.9,44.0,29.75,South,184,13.0,13.0,69,0.00,,---,0.00,VWS V14.00,2013-02-18 13:34:00,
2013-02-18 07:35:00,53.9,44.0,29.75,SSE,159,6.0,13.0,69,0.00,,---,0.00,VWS V14.00,2013-02-18 13:35:00,
2013-02-18 07:36:00,53.9,44.0,29.75,South,175,12.0,17.0,69,0.00,,---,0.00,VWS V14.00,2013-02-18 13:36:00,
2013-02-18 07:37:00,53.9,44.0,29.75,South,172,10.0,17.0,69,0.00,,---,0.00,VWS V14.00,2013-02-18 13:37:00,
2013-02-18 07:38:00,53.9,44.0,29.75,SSE,167,11.0,11.0,69,0.00,,---,0.00,VWS V14.00,2013-02-18 13:38:00,
2013-02-18 07:39:00,54.1,44.2,29.75,SSE,161,10.0,19.0,69,0.00,,---,0.00,VWS V14.00,2013-02-18 13:39:00,
2013-02-18 07:40:00,54.1,44.5,29.75,SSW,201,7.0,11.0,70,0.00,,---,0.00,VWS V14.00,2013-02-18 13:40:00,
2013-02-18 07:41:00,54.1,44.5,29.75,South,184,13.0,20.0,70,0.00,,---,0.00,VWS V14.00,2013-02-18 13:41:00,
2013-02-18 07:42:00,54.1,44.5,29.75,South,174,11.0,15.0,70,0.00,,---,0.00,VWS V14.00,2013-02-18 13:42:00,
2013-02-18 07:43:00,54.1,44.5,29.75,SSE,155,19.0,19.0,70,0.00,,---,0.00,VWS V14.00,2013-02-18 13:43:00,
2013-02-18 07:44:00,54.2,44.6,29.75,SSE,155,16.0,25.0,70,0.00,,---,0.00,VWS V14.00,2013-02-18 13:44:00,
2013-02-18 07:45:00,54.2,45.8,29.75,South,188,15.0,19.0,73,0.00,,---,0.00,VWS V14.00,2013-02-18 13:45:00,
2013-02-18 07:46:00,54.4,44.8,29.75,South,171,11.0,21.0,70,0.00,,---,0.00,VWS V14.00,2013-02-18 13:46:00,
2013-02-18 07:47:00,54.4,44.8,29.75,South,171,4.0,15.0,70,0.00,,---,0.00,VWS V14.00,2013-02-18 13:47:00,
2013-02-18 07:48:00,54.4,44.5,29.75,South,171,5.0,16.0,69,0.00,,---,0.00,VWS V14.00,2013-02-18 13:48:00,
2013-02-18 07:49:00,54.2,44.6,29.75,South,188,10.0,13.0,70,0.00,,---,0.00,VWS V14.00,2013-02-18 13:49:00,
2013-02-18 07:50:00,54.2,44.6,29.75,South,179,7.0,12.0,70,0.00,,---,0.00,VWS V14.00,2013-02-18 13:50:00,
2013-02-18 07:51:00,54.2,44.6,29.75,South,181,13.0,21.0,70,0.00,,---,0.00,VWS V14.00,2013-02-18 13:51:00,
2013-02-18 07:52:00,54.4,44.8,29.75,SSW,209,10.0,21.0,70,0.00,,---,0.00,VWS V14.00,2013-02-18 13:52:00,
2013-02-18 07:53:00,54.4,44.8,29.75,South,189,12.0,16.0,70,0.00,,---,0.00,VWS V14.00,2013-02-18 13:53:00,
2013-02-18 07:54:00,54.4,44.8,29.75,South,181,2.0,13.0,70,0.00,,---,0.00,VWS V14.00,2013-02-18 13:54:00,
2013-02-18 07:55:00,54.4,44.8,29.75,SSE,163,7.0,16.0,70,0.00,,---,0.00,VWS V14.00,2013-02-18 13:55:00,
2013-02-18 07:56:00,54.4,44.8,29.75,South,176,6.0,9.0,70,0.00,,---,0.00,VWS V14.00,2013-02-18 13:56:00,
2013-02-18 07:57:00,54.4,44.8,29.75,SSW,192,7.0,12.0,70,0.00,,---,0.00,VWS V14.00,2013-02-18 13:57:00,
2013-02-18 07:58:00,54.4,44.8,29.75,South,175,8.0,13.0,70,0.00,,---,0.00,VWS V14.00,2013-02-18 13:58:00,
2013-02-18 07:59:00,54.4,44.8,29.76,South,169,6.0,11.0,70,0.00,,---,0.00,VWS V14.00,2013-02-18 13:59:00,
2013-02-18 08:00:00,54.4,44.8,29.76,South,182,3.0,11.0,70,0.00,,---,0.00,VWS V14.00,2013-02-18 14:00:00,
2013-02-18 08:01:00,54.4,44.8,29.76,SSW,205,4.0,14.0,70,0.00,,---,0.00,VWS V14.00,2013-02-18 14:01:00,
2013-02-18 08:02:00,54.4,44.8,29.77,SSW,202,8.0,13.0,70,0.00,,---,0.00,VWS V14.00,2013-02-18 14:02:00,
2013-02-18 08:03:00,54.4,44.8,29.76,SSE,160,11.0,13.0,70,0.00,,---,0.00,VWS V14.00,2013-02-18 14:03:00,
2013-02-18 08:04:00,54.4,44.8,29.76,SSE,163,6.0,12.0,70,0.00,,---,0.00,VWS V14.00,2013-02-18 14:04:00,
2013-02-18 08:05:00,54.4,44.8,29.76,SSE,163,3.0,6.0,70,0.00,,---,0.00,VWS V14.00,2013-02-18 14:05:00,
2013-02-18 08:06:00,54.5,44.9,29.76,South,186,3.0,11.0,70,0.00,,---,0.00,VWS V14.00,2013-02-18 14:06:00,
2013-02-18 08:07:00,54.5,44.9,29.76,South,171,14.0,14.0,70,0.00,,---,0.00,VWS V14.00,2013-02-18 14:07:00,
2013-02-18 08:08:00,54.5,44.9,29.76,South,171,9.0,18.0,70,0.00,,---,0.00,VWS V14.00,2013-02-18 14:08:00,
2013-02-18 08:09:00,54.5,44.9,29.76,South,178,12.0,14.0,70,0.00,,---,0.00,VWS V14.00,2013-02-18 14:09:00,
2013-02-18 08:10:00,54.5,44.9,29.76,South,186,6.0,12.0,70,0.00,,---,0.00,VWS V14.00,2013-02-18 14:10:00,
2013-02-18 08:11:00,54.5,44.9,29.76,SE,146,10.0,15.0,70,0.00,,---,0.00,VWS V14.00,2013-02-18 14:11:00,
2013-02-18 08:12:00,54.5,44.9,29.76,SE,142,11.0,12.0,70,0.00,,---,0.00,VWS V14.00,2013-02-18 14:12:00,
2013-02-18 08:13:00,54.5,44.9,29.76,SSW,193,9.0,12.0,70,0.00,,---,0.00,VWS V14.00,2013-02-18 14:13:00,
2013-02-18 08:14:00,54.5,45.3,29.77,SSE,167,10.0,16.0,71,0.00,,---,0.00,VWS V14.00,2013-02-18 14:14:00,
2013-02-18 08:15:00,54.5,45.3,29.77,South,180,6.0,13.0,71,0.00,,---,0.00,VWS V14.00,2013-02-18 14:15:00,
2013-02-18 08:16:00,54.7,45.5,29.77,South,172,7.0,12.0,71,0.00,,---,0.00,VWS V14.00,2013-02-18 14:16:00,
2013-02-18 08:17:00,54.7,45.1,29.76,SSE,166,11.0,11.0,70,0.00,,---,0.00,VWS V14.00,2013-02-18 14:17:00,
2013-02-18 08:18:00,54.7,45.5,29.76,South,178,11.0,17.0,71,0.00,,---,0.00,VWS V14.00,2013-02-18 14:18:00,
2013-02-18 08:19:00,54.7,45.5,29.77,South,175,12.0,14.0,71,0.00,,---,0.00,VWS V14.00,2013-02-18 14:19:00,
2013-02-18 08:20:00,54.7,45.5,29.77,SSE,162,9.0,13.0,71,0.00,,---,0.00,VWS V14.00,2013-02-18 14:20:00,
2013-02-18 08:21:00,54.7,45.5,29.77,SSE,162,13.0,20.0,71,0.00,,---,0.00,VWS V14.00,2013-02-18 14:21:00,
2013-02-18 08:22:00,54.7,45.5,29.77,SSE,161,5.0,16.0,71,0.00,,---,0.00,VWS V14.00,2013-02-18 14:22:00,
2013-02-18 08:23:00,54.7,45.5,29.77,SSE,163,13.0,13.0,71,0.00,,---,0.00,VWS V14.00,2013-02-18 14:23:00,
2013-02-18 08:24:00,54.7,45.5,29.77,SSE,162,9.0,14.0,71,0.00,,---,0.00,VWS V14.00,2013-02-18 14:24:00,
2013-02-18 08:25:00,54.7,45.5,29.77,South,174,6.0,9.0,71,0.00,,---,0.00,VWS V14.00,2013-02-18 14:25:00,
2013-02-18 08:26:00,54.7,45.5,29.77,SSW,202,12.0,12.0,71,0.00,,---,0.00,VWS V14.00,2013-02-18 14:26:00,
2013-02-18 08:27:00,54.7,45.5,29.77,South,180,3.0,15.0,71,0.00,,---,0.00,VWS V14.00,2013-02-18 14:27:00,
2013-02-18 08:28:00,54.7,45.5,29.76,South,179,5.0,14.0,71,0.00,,---,0.00,VWS V14.00,2013-02-18 14:28:00,
2013-02-18 08:29:00,54.7,45.5,29.77,SSE,163,13.0,16.0,71,0.00,,---,0.00,VWS V14.00,2013-02-18 14:29:00,
2013-02-18 08:30:00,54.7,45.5,29.77,South,175,11.0,13.0,71,0.00,,---,0.00,VWS V14.00,2013-02-18 14:30:00,
2013-02-18 08:31:00,54.7,45.5,29.77,South,178,10.0,11.0,71,0.00,,---,0.00,VWS V14.00,2013-02-18 14:31:00,
2013-02-18 08:32:00,54.8,45.6,29.77,SSE,157,16.0,19.0,71,0.00,,---,0.00,VWS V14.00,2013-02-18 14:32:00,
2013-02-18 08:33:00,54.8,45.6,29.77,South,178,9.0,16.0,71,0.00,,---,0.00,VWS V14.00,2013-02-18 14:33:00,
2013-02-18 08:34:00,54.8,45.6,29.77,SSE,165,16.0,16.0,71,0.00,,---,0.00,VWS V14.00,2013-02-18 14:34:00,
2013-02-18 08:35:00,55.0,45.8,29.77,SSE,163,11.0,19.0,71,0.00,,---,0.00,VWS V14.00,2013-02-18 14:35:00,
2013-02-18 08:36:00,55.0,45.8,29.77,SSE,160,11.0,11.0,71,0.00,,---,0.00,VWS V14.00,2013-02-18 14:36:00,
2013-02-18 08:37:00,55.0,45.8,29.77,SSE,162,15.0,16.0,71,0.00,,---,0.00,VWS V14.00,2013-02-18 14:37:00,
2013-02-18 08:38:00,55.0,45.8,29.77,SSE,167,12.0,22.0,71,0.00,,---,0.00,VWS V14.00,2013-02-18 14:38:00,
2013-02-18 08:39:00,55.0,45.8,29.77,SSE,167,5.0,15.0,71,0.00,,---,0.00,VWS V14.00,2013-02-18 14:39:00,
2013-02-18 08:40:00,55.0,45.8,29.77,South,171,8.0,21.0,71,0.00,,---,0.00,VWS V14.00,2013-02-18 14:40:00,
2013-02-18 08:41:00,55.0,45.8,29.77,South,171,7.0,8.0,71,0.00,,---,0.00,VWS V14.00,2013-02-18 14:41:00,
2013-02-18 08:42:00,55.0,45.8,29.77,SSE,168,21.0,21.0,71,0.00,,---,0.00,VWS V14.00,2013-02-18 14:42:00,
2013-02-18 08:43:00,55.0,45.8,29.77,SSE,153,18.0,18.0,71,0.00,,---,0.00,VWS V14.00,2013-02-18 14:43:00,
2013-02-18 08:44:00,55.0,45.8,29.77,South,184,19.0,19.0,71,0.00,,---,0.00,VWS V14.00,2013-02-18 14:44:00,
2013-02-18 08:45:00,55.1,45.9,29.77,SSE,159,14.0,19.0,71,0.00,,---,0.00,VWS V14.00,2013-02-18 14:45:00,
2013-02-18 08:46:00,55.1,45.9,29.77,SSE,159,14.0,19.0,71,0.00,,---,0.00,VWS V14.00,2013-02-18 14:46:00,
2013-02-18 08:47:00,55.1,45.9,29.77,SSW,195,10.0,18.0,71,0.00,,---,0.00,VWS V14.00,2013-02-18 14:47:00,
2013-02-18 08:48:00,55.1,45.9,29.77,South,176,12.0,17.0,71,0.00,,---,0.00,VWS V14.00,2013-02-18 14:48:00,
2013-02-18 08:49:00,55.1,45.9,29.77,South,174,4.0,13.0,71,0.00,,---,0.00,VWS V14.00,2013-02-18 14:49:00,
2013-02-18 08:50:00,55.1,45.9,29.77,South,173,14.0,16.0,71,0.00,,---,0.00,VWS V14.00,2013-02-18 14:50:00,
2013-02-18 08:51:00,55.1,45.9,29.77,South,177,12.0,14.0,71,0.00,,---,0.00,VWS V14.00,2013-02-18 14:51:00,
2013-02-18 08:52:00,55.1,46.2,29.76,SSE,165,13.0,16.0,72,0.00,,---,0.00,VWS V14.00,2013-02-18 14:52:00,
2013-02-18 08:53:00,55.0,46.2,29.77,SSE,156,9.0,14.0,72,0.00,,---,0.00,VWS V14.00,2013-02-18 14:53:00,
2013-02-18 08:54:00,55.0,46.2,29.76,SSE,160,13.0,13.0,72,0.00,,---,0.00,VWS V14.00,2013-02-18 14:54:00,
2013-02-18 08:55:00,55.0,46.2,29.76,South,173,11.0,19.0,72,0.00,,---,0.00,VWS V14.00,2013-02-18 14:55:00,
2013-02-18 08:56:00,55.0,46.2,29.76,South,173,11.0,19.0,72,0.00,,---,0.00,VWS V14.00,2013-02-18 14:56:00,
2013-02-18 08:57:00,55.1,46.2,29.76,South,173,7.0,16.0,72,0.00,,---,0.00,VWS V14.00,2013-02-18 14:57:00,
2013-02-18 08:58:00,55.1,46.2,29.76,SSE,161,6.0,12.0,72,0.00,,---,0.00,VWS V14.00,2013-02-18 14:58:00,
2013-02-18 08:59:00,55.1,46.2,29.76,SSE,161,6.0,13.0,72,0.00,,---,0.00,VWS V14.00,2013-02-18 14:59:00,
2013-02-18 09:00:00,55.1,46.2,29.76,South,179,6.0,12.0,72,0.00,,---,0.00,VWS V14.00,2013-02-18 15:00:00,
2013-02-18 09:01:00,55.1,46.2,29.76,South,179,6.0,12.0,72,0.00,,---,0.00,VWS V14.00,2013-02-18 15:01:00,
2013-02-18 09:02:00,55.1,46.2,29.76,SSE,167,8.0,16.0,72,0.00,,---,0.00,VWS V14.00,2013-02-18 15:02:00,
2013-02-18 09:03:00,55.1,46.2,29.76,SSW,197,9.0,17.0,72,0.00,,---,0.00,VWS V14.00,2013-02-18 15:03:00,
2013-02-18 09:04:00,55.1,46.2,29.76,SSE,153,11.0,12.0,72,0.00,,---,0.00,VWS V14.00,2013-02-18 15:04:00,
2013-02-18 09:05:00,55.1,46.2,29.76,SE,143,14.0,14.0,72,0.00,,---,0.00,VWS V14.00,2013-02-18 15:05:00,
2013-02-18 09:06:00,55.1,46.2,29.76,SSE,150,12.0,14.0,72,0.00,,---,0.00,VWS V14.00,2013-02-18 15:06:00,
2013-02-18 09:07:00,55.1,46.2,29.76,South,171,16.0,17.0,72,0.00,,---,0.00,VWS V14.00,2013-02-18 15:07:00,
2013-02-18 09:08:00,55.1,46.2,29.76,South,181,7.0,16.0,72,0.00,,---,0.00,VWS V14.00,2013-02-18 15:08:00,
2013-02-18 09:09:00,55.3,46.4,29.76,SSE,160,13.0,13.0,72,0.00,,---,0.00,VWS V14.00,2013-02-18 15:09:00,
2013-02-18 09:10:00,55.3,46.4,29.76,SSE,157,15.0,15.0,72,0.00,,---,0.00,VWS V14.00,2013-02-18 15:10:00,
2013-02-18 09:11:00,55.3,46.4,29.76,SSE,156,16.0,16.0,72,0.00,,---,0.00,VWS V14.00,2013-02-18 15:11:00,
2013-02-18 09:12:00,55.3,46.4,29.76,South,177,13.0,14.0,72,0.00,,---,0.00,VWS V14.00,2013-02-18 15:12:00,
2013-02-18 09:13:00,55.3,46.4,29.76,SSE,165,13.0,16.0,72,0.00,,---,0.00,VWS V14.00,2013-02-18 15:13:00,
2013-02-18 09:14:00,55.3,46.4,29.76,South,179,5.0,13.0,72,0.00,,---,0.00,VWS V14.00,2013-02-18 15:14:00,
2013-02-18 09:15:00,55.3,46.4,29.76,South,175,9.0,16.0,72,0.00,,---,0.00,VWS V14.00,2013-02-18 15:15:00,
2013-02-18 09:16:00,55.3,46.4,29.76,South,175,9.0,16.0,72,0.00,,---,0.00,VWS V14.00,2013-02-18 15:16:00,
2013-02-18 09:17:00,55.3,46.4,29.76,SSE,164,9.0,13.0,72,0.00,,---,0.00,VWS V14.00,2013-02-18 15:17:00,
2013-02-18 09:18:00,55.3,46.4,29.76,SSW,198,15.0,16.0,72,0.00,,---,0.00,VWS V14.00,2013-02-18 15:18:00,
2013-02-18 09:19:00,55.3,47.9,29.76,South,179,14.0,17.0,76,0.00,,---,0.00,VWS V14.00,2013-02-18 15:19:00,
2013-02-18 09:20:00,55.3,46.4,29.75,South,178,5.0,14.0,72,0.00,,---,0.00,VWS V14.00,2013-02-18 15:20:00,
2013-02-18 09:21:00,55.3,46.4,29.75,South,178,5.0,14.0,72,0.00,,---,0.00,VWS V14.00,2013-02-18 15:21:00,
2013-02-18 09:22:00,55.3,46.4,29.75,SSE,168,9.0,16.0,72,0.00,,---,0.00,VWS V14.00,2013-02-18 15:22:00,
2013-02-18 09:23:00,55.3,46.4,29.75,SE,140,7.0,18.0,72,0.00,,---,0.00,VWS V14.00,2013-02-18 15:23:00,
2013-02-18 09:24:00,55.3,46.4,29.75,SSE,157,14.0,25.0,72,0.00,,---,0.00,VWS V14.00,2013-02-18 15:24:00,
2013-02-18 09:25:00,55.4,46.5,29.75,SSE,164,7.0,19.0,72,0.00,,---,0.00,VWS V14.00,2013-02-18 15:25:00,
2013-02-18 09:26:00,55.4,46.5,29.75,SSE,164,7.0,19.0,72,0.00,,---,0.00,VWS V14.00,2013-02-18 15:26:00,
2013-02-18 09:27:00,55.4,46.5,29.75,SSE,166,13.0,17.0,72,0.00,,---,0.00,VWS V14.00,2013-02-18 15:27:00,
2013-02-18 09:28:00,55.4,46.5,29.75,SSE,163,11.0,17.0,72,0.00,,---,0.00,VWS V14.00,2013-02-18 15:28:00,
2013-02-18 09:29:00,55.4,46.5,29.75,South,170,8.0,13.0,72,0.00,,---,0.00,VWS V14.00,2013-02-18 15:29:00,
2013-02-18 09:30:00,55.4,46.5,29.75,SSE,154,14.0,14.0,72,0.00,,---,0.00,VWS V14.00,2013-02-18 15:30:00,
2013-02-18 09:31:00,55.4,46.5,29.75,SSE,154,14.0,14.0,72,0.00,,---,0.00,VWS V14.00,2013-02-18 15:31:00,
2013-02-18 09:32:00,55.4,46.5,29.75,SSE,155,15.0,15.0,72,0.00,,---,0.00,VWS V14.00,2013-02-18 15:32:00,
2013-02-18 09:33:00,55.4,46.5,29.75,South,180,9.0,19.0,72,0.00,,---,0.00,VWS V14.00,2013-02-18 15:33:00,
2013-02-18 09:34:00,55.4,46.9,29.75,SSE,168,10.0,17.0,73,0.00,,---,0.00,VWS V14.00,2013-02-18 15:34:00,
2013-02-18 09:35:00,55.4,46.9,29.75,South,179,4.0,13.0,73,0.00,,---,0.00,VWS V14.00,2013-02-18 15:35:00,
2013-02-18 09:36:00,55.4,46.9,29.75,South,179,4.0,13.0,73,0.00,,---,0.00,VWS V14.00,2013-02-18 15:36:00,
2013-02-18 09:37:00,55.6,47.1,29.75,SSE,163,12.0,22.0,73,0.00,,---,0.00,VWS V14.00,2013-02-18 15:37:00,
2013-02-18 09:38:00,55.6,47.1,29.75,SSE,158,14.0,18.0,73,0.00,,---,0.00,VWS V14.00,2013-02-18 15:38:00,
2013-02-18 09:39:00,55.6,47.1,29.75,SSE,157,11.0,25.0,73,0.00,,---,0.00,VWS V14.00,2013-02-18 15:39:00,
2013-02-18 09:40:00,55.6,47.1,29.75,South,179,10.0,16.0,73,0.00,,---,0.00,VWS V14.00,2013-02-18 15:40:00,
2013-02-18 09:41:00,55.6,47.1,29.75,South,179,10.0,16.0,73,0.00,,---,0.00,VWS V14.00,2013-02-18 15:41:00,
2013-02-18 09:42:00,55.6,47.1,29.75,SSE,152,13.0,21.0,73,0.00,,---,0.00,VWS V14.00,2013-02-18 15:42:00,
2013-02-18 09:43:00,55.6,47.1,29.75,South,175,10.0,19.0,73,0.00,,---,0.00,VWS V14.00,2013-02-18 15:43:00,
2013-02-18 09:44:00,55.6,47.1,29.75,South,185,22.0,23.0,73,0.00,,---,0.00,VWS V14.00,2013-02-18 15:44:00,
2013-02-18 09:45:00,55.6,47.1,29.75,South,184,11.0,22.0,73,0.00,,---,0.00,VWS V14.00,2013-02-18 15:45:00,
2013-02-18 09:46:00,55.6,47.1,29.75,South,182,13.0,22.0,73,0.00,,---,0.00,VWS V14.00,2013-02-18 15:46:00,
2013-02-18 09:47:00,55.6,47.1,29.74,South,170,8.0,11.0,73,0.00,,---,0.00,VWS V14.00,2013-02-18 15:47:00,
2013-02-18 09:48:00,55.6,47.1,29.74,South,169,6.0,12.0,73,0.00,,---,0.00,VWS V14.00,2013-02-18 15:48:00,
2013-02-18 09:49:00,55.6,47.1,29.74,SSE,158,8.0,12.0,73,0.00,,---,0.00,VWS V14.00,2013-02-18 15:49:00,
2013-02-18 09:50:00,55.6,47.1,29.74,SSE,161,11.0,19.0,73,0.00,,---,0.00,VWS V14.00,2013-02-18 15:50:00,
2013-02-18 09:51:00,55.6,47.1,29.74,South,171,7.0,13.0,73,0.00,,---,0.00,VWS V14.00,2013-02-18 15:51:00,
2013-02-18 09:52:00,55.6,47.1,29.74,SSE,148,23.0,23.0,73,0.00,,---,0.00,VWS V14.00,2013-02-18 15:52:00,
2013-02-18 09:53:00,55.6,47.1,29.74,SSE,165,16.0,23.0,73,0.00,,---,0.00,VWS V14.00,2013-02-18 15:53:00,
2013-02-18 09:54:00,55.6,47.1,29.74,SSE,165,8.0,21.0,73,0.00,,---,0.00,VWS V14.00,2013-02-18 15:54:00,
2013-02-18 09:55:00,55.6,47.1,29.74,South,190,11.0,18.0,73,0.00,,---,0.00,VWS V14.00,2013-02-18 15:55:00,
2013-02-18 09:56:00,55.6,47.1,29.74,South,175,11.0,18.0,73,0.00,,---,0.00,VWS V14.00,2013-02-18 15:56:00,
2013-02-18 09:57:00,55.7,47.2,29.74,SSE,157,11.0,18.0,73,0.00,,---,0.00,VWS V14.00,2013-02-18 15:57:00,
2013-02-18 09:58:00,55.7,47.2,29.74,SSW,202,15.0,17.0,73,0.00,,---,0.00,VWS V14.00,2013-02-18 15:58:00,
2013-02-18 09:59:00,55.7,47.2,29.74,South,188,13.0,17.0,73,0.00,,---,0.00,VWS V14.00,2013-02-18 15:59:00,
2013-02-18 10:00:00,55.7,47.2,29.74,SSE,157,11.0,14.0,73,0.00,,---,0.00,VWS V14.00,2013-02-18 16:00:00,
2013-02-18 10:01:00,55.7,47.2,29.74,SSE,157,11.0,14.0,73,0.00,,---,0.00,VWS V14.00,2013-02-18 16:01:00,
2013-02-18 10:02:00,55.7,47.2,29.73,SE,139,10.0,14.0,73,0.00,,---,0.00,VWS V14.00,2013-02-18 16:02:00,
2013-02-18 10:03:00,55.7,47.2,29.73,SSE,164,10.0,18.0,73,0.00,,---,0.00,VWS V14.00,2013-02-18 16:03:00,
2013-02-18 10:04:00,55.7,47.2,29.74,SE,146,12.0,15.0,73,0.00,,---,0.00,VWS V14.00,2013-02-18 16:04:00,
2013-02-18 10:05:00,55.7,47.2,29.73,SSE,163,15.0,17.0,73,0.00,,---,0.00,VWS V14.00,2013-02-18 16:05:00,
2013-02-18 10:06:00,55.7,47.2,29.73,SSE,163,15.0,17.0,73,0.00,,---,0.00,VWS V14.00,2013-02-18 16:06:00,
2013-02-18 10:07:00,55.7,47.2,29.73,SSW,194,7.0,21.0,73,0.00,,---,0.00,VWS V14.00,2013-02-18 16:07:00,
2013-02-18 10:08:00,55.7,47.5,29.73,South,171,12.0,12.0,74,0.00,,---,0.00,VWS V14.00,2013-02-18 16:08:00,
2013-02-18 10:09:00,55.7,47.5,29.73,SSE,161,16.0,16.0,74,0.00,,---,0.00,VWS V14.00,2013-02-18 16:09:00,
2013-02-18 10:10:00,55.7,47.5,29.73,SSW,195,7.0,16.0,74,0.00,,---,0.00,VWS V14.00,2013-02-18 16:10:00,
2013-02-18 10:11:00,55.7,47.5,29.73,SSW,195,7.0,16.0,74,0.00,,---,0.00,VWS V14.00,2013-02-18 16:11:00,
2013-02-18 10:12:00,55.7,47.2,29.73,SSE,165,10.0,15.0,73,0.00,,---,0.00,VWS V14.00,2013-02-18 16:12:00,
2013-02-18 10:13:00,55.9,47.4,29.73,South,176,10.0,15.0,73,0.00,,---,0.00,VWS V14.00,2013-02-18 16:13:00,
2013-02-18 10:14:00,55.9,47.4,29.73,South,180,15.0,21.0,73,0.00,,---,0.00,VWS V14.00,2013-02-18 16:14:00,
2013-02-18 10:15:00,55.9,47.7,29.73,SSE,153,10.0,15.0,74,0.00,,---,0.00,VWS V14.00,2013-02-18 16:15:00,
2013-02-18 10:16:00,55.9,47.7,29.73,SSE,153,9.0,15.0,74,0.00,,---,0.00,VWS V14.00,2013-02-18 16:16:00,
2013-02-18 10:17:00,55.9,47.7,29.73,SW,216,9.0,15.0,74,0.00,,---,0.00,VWS V14.00,2013-02-18 16:17:00,
2013-02-18 10:18:00,55.9,47.7,29.73,South,181,7.0,9.0,74,0.00,,---,0.00,VWS V14.00,2013-02-18 16:18:00,
2013-02-18 10:19:00,55.9,47.4,29.73,SSE,151,9.0,14.0,73,0.00,,---,0.00,VWS V14.00,2013-02-18 16:19:00,
2013-02-18 10:20:00,55.9,47.7,29.73,SSE,150,14.0,17.0,74,0.00,,---,0.00,VWS V14.00,2013-02-18 16:20:00,
2013-02-18 10:21:00,55.9,47.7,29.73,SSE,150,14.0,17.0,74,0.00,,---,0.00,VWS V14.00,2013-02-18 16:21:00,
2013-02-18 10:22:00,55.9,47.7,29.73,SSE,149,13.0,15.0,74,0.00,,---,0.00,VWS V14.00,2013-02-18 16:22:00,
2013-02-18 10:23:00,55.9,47.7,29.73,South,190,5.0,14.0,74,0.00,,---,0.00,VWS V14.00,2013-02-18 16:23:00,
2013-02-18 10:24:00,55.9,47.4,29.73,South,182,10.0,16.0,73,0.00,,---,0.00,VWS V14.00,2013-02-18 16:24:00,
2013-02-18 10:25:00,56.0,47.5,29.73,SSW,204,14.0,18.0,73,0.00,,---,0.00,VWS V14.00,2013-02-18 16:25:00,
2013-02-18 10:26:00,56.0,47.5,29.73,SSW,204,14.0,18.0,73,0.00,,---,0.00,VWS V14.00,2013-02-18 16:26:00,
2013-02-18 10:27:00,56.0,47.5,29.73,South,170,10.0,13.0,73,0.00,,---,0.00,VWS V14.00,2013-02-18 16:27:00,
2013-02-18 10:28:00,56.0,47.5,29.73,South,173,7.0,11.0,73,0.00,,---,0.00,VWS V14.00,2013-02-18 16:28:00,
2013-02-18 10:29:00,56.0,47.5,29.73,SSW,192,4.0,17.0,73,0.00,,---,0.00,VWS V14.00,2013-02-18 16:29:00,
2013-02-18 10:30:00,56.0,47.5,29.73,SW,221,12.0,13.0,73,0.00,,---,0.00,VWS V14.00,2013-02-18 16:30:00,
2013-02-18 10:31:00,56.0,47.5,29.73,SW,221,12.0,13.0,73,0.00,,---,0.00,VWS V14.00,2013-02-18 16:31:00,
2013-02-18 10:32:00,55.9,47.7,29.73,South,175,4.0,13.0,74,0.00,,---,0.00,VWS V14.00,2013-02-18 16:32:00,
2013-02-18 10:33:00,55.9,47.7,29.73,SSE,167,8.0,9.0,74,0.00,,---,0.00,VWS V14.00,2013-02-18 16:33:00,
2013-02-18 10:34:00,55.9,47.7,29.73,SE,136,0.0,14.0,74,0.00,,---,0.00,VWS V14.00,2013-02-18 16:34:00,
2013-02-18 10:35:00,55.9,47.7,29.72,SSE,165,10.0,16.0,74,0.00,,---,0.00,VWS V14.00,2013-02-18 16:35:00,
2013-02-18 10:36:00,55.9,47.7,29.72,SSE,154,11.0,12.0,74,0.00,,---,0.00,VWS V14.00,2013-02-18 16:36:00,
2013-02-18 10:37:00,55.9,47.7,29.72,SSE,161,2.0,11.0,74,0.00,,---,0.00,VWS V14.00,2013-02-18 16:37:00,
2013-02-18 10:38:00,55.9,47.7,29.72,SSW,213,13.0,18.0,74,0.00,,---,0.00,VWS V14.00,2013-02-18 16:38:00,
2013-02-18 10:39:00,55.9,47.7,29.72,South,186,7.0,13.0,74,0.00,,---,0.00,VWS V14.00,2013-02-18 16:39:00,
2013-02-18 10:40:00,55.9,47.7,29.72,South,186,11.0,13.0,74,0.00,,---,0.00,VWS V14.00,2013-02-18 16:40:00,
2013-02-18 10:41:00,55.9,47.7,29.72,SSE,150,12.0,13.0,74,0.00,,---,0.00,VWS V14.00,2013-02-18 16:41:00,
2013-02-18 10:42:00,55.9,47.7,29.72,South,171,8.0,11.0,74,0.00,,---,0.00,VWS V14.00,2013-02-18 16:42:00,
2013-02-18 10:43:00,55.7,47.5,29.72,South,171,10.0,13.0,74,0.00,,---,0.00,VWS V14.00,2013-02-18 16:43:00,
2013-02-18 10:44:00,55.7,47.5,29.72,SSE,162,7.0,13.0,74,0.00,,---,0.00,VWS V14.00,2013-02-18 16:44:00,
2013-02-18 10:45:00,55.7,47.5,29.72,SSE,165,7.0,18.0,74,0.00,,---,0.00,VWS V14.00,2013-02-18 16:45:00,
2013-02-18 10:46:00,55.7,47.5,29.72,SSE,167,6.0,18.0,74,0.00,,---,0.00,VWS V14.00,2013-02-18 16:46:00,
2013-02-18 10:47:00,55.6,47.5,29.72,SSE,161,4.0,14.0,74,0.00,,---,0.00,VWS V14.00,2013-02-18 16:47:00,
2013-02-18 10:48:00,55.6,47.8,29.72,SSE,157,11.0,12.0,75,0.00,,---,0.00,VWS V14.00,2013-02-18 16:48:00,
2013-02-18 10:49:00,55.6,47.8,29.72,South,170,9.0,12.0,75,0.00,,---,0.00,VWS V14.00,2013-02-18 16:49:00,
2013-02-18 10:50:00,55.4,47.6,29.72,South,179,7.0,13.0,75,0.00,,---,0.00,VWS V14.00,2013-02-18 16:50:00,
2013-02-18 10:51:00,55.4,47.6,29.72,South,179,7.0,13.0,75,0.00,,---,0.00,VWS V14.00,2013-02-18 16:51:00,
2013-02-18 10:52:00,55.3,47.5,29.72,SSE,157,7.0,16.0,75,0.00,,---,0.00,VWS V14.00,2013-02-18 16:52:00,
2013-02-18 10:53:00,55.3,47.5,29.72,SSE,147,15.0,16.0,75,0.00,,---,0.00,VWS V14.00,2013-02-18 16:53:00,
2013-02-18 10:54:00,55.3,47.5,29.72,SSE,157,11.0,16.0,75,0.00,,---,0.00,VWS V14.00,2013-02-18 16:54:00,
2013-02-18 10:55:00,55.3,47.5,29.72,SSE,153,5.0,16.0,75,0.00,,---,0.00,VWS V14.00,2013-02-18 16:55:00,
2013-02-18 10:56:00,55.3,47.5,29.72,SSE,153,6.0,16.0,75,0.00,,---,0.00,VWS V14.00,2013-02-18 16:56:00,
2013-02-18 10:57:00,55.3,47.5,29.72,SSE,167,12.0,16.0,75,0.00,,---,0.00,VWS V14.00,2013-02-18 16:57:00,
2013-02-18 10:58:00,55.3,47.9,29.72,SSE,151,10.0,13.0,76,0.00,,---,0.00,VWS V14.00,2013-02-18 16:58:00,
2013-02-18 10:59:00,55.3,47.5,29.72,SSE,150,11.0,13.0,75,0.00,,---,0.00,VWS V14.00,2013-02-18 16:59:00,
2013-02-18 11:00:00,55.1,47.7,29.72,SSE,149,15.0,15.0,76,0.00,,---,0.00,VWS V14.00,2013-02-18 17:00:00,
2013-02-18 11:01:00,55.1,47.7,29.72,South,176,9.0,15.0,76,0.00,,---,0.00,VWS V14.00,2013-02-18 17:01:00,
2013-02-18 11:02:00,55.1,47.7,29.72,SSE,165,7.0,9.0,76,0.00,,---,0.00,VWS V14.00,2013-02-18 17:02:00,
2013-02-18 11:03:00,55.1,47.7,29.72,South,183,11.0,16.0,76,0.00,,---,0.00,VWS V14.00,2013-02-18 17:03:00,
2013-02-18 11:04:00,55.3,47.9,29.72,SSE,151,9.0,16.0,76,0.00,,---,0.00,VWS V14.00,2013-02-18 17:04:00,
2013-02-18 11:05:00,55.3,47.9,29.72,SSE,161,12.0,16.0,76,0.00,,---,0.00,VWS V14.00,2013-02-18 17:05:00,
2013-02-18 11:06:00,55.3,47.9,29.72,SSE,161,12.0,13.0,76,0.00,,---,0.00,VWS V14.00,2013-02-18 17:06:00,
2013-02-18 11:07:00,55.1,47.7,29.72,SSE,166,8.0,13.0,76,0.00,,---,0.00,VWS V14.00,2013-02-18 17:07:00,
2013-02-18 11:08:00,55.1,47.7,29.72,SSE,159,11.0,13.0,76,0.00,,---,0.00,VWS V14.00,2013-02-18 17:08:00,
2013-02-18 11:09:00,55.1,47.7,29.72,SSE,161,10.0,11.0,76,0.00,,---,0.00,VWS V14.00,2013-02-18 17:09:00,
2013-02-18 11:10:00,55.1,48.0,29.72,SE,144,15.0,18.0,77,0.00,,---,0.00,VWS V14.00,2013-02-18 17:10:00,
2013-02-18 11:11:00,55.1,48.0,29.72,SSE,153,11.0,15.0,77,0.00,,---,0.00,VWS V14.00,2013-02-18 17:11:00,
2013-02-18 11:12:00,55.0,47.9,29.72,SSE,159,13.0,14.0,77,0.00,,---,0.00,VWS V14.00,2013-02-18 17:12:00,
2013-02-18 11:13:00,55.0,47.9,29.72,SSE,154,12.0,15.0,77,0.00,,---,0.00,VWS V14.00,2013-02-18 17:13:00,
2013-02-18 11:14:00,55.0,47.9,29.72,SSE,157,12.0,12.0,77,0.00,,---,0.00,VWS V14.00,2013-02-18 17:14:00,
2013-02-18 11:15:00,54.8,47.7,29.72,SSE,153,13.0,14.0,77,0.00,,---,0.00,VWS V14.00,2013-02-18 17:15:00,
2013-02-18 11:16:00,54.8,48.1,29.72,SSE,159,8.0,13.0,78,0.00,,---,0.00,VWS V14.00,2013-02-18 17:16:00,
2013-02-18 11:17:00,54.7,48.0,29.71,SE,144,10.0,13.0,78,0.00,,---,0.00,VWS V14.00,2013-02-18 17:17:00,
2013-02-18 11:18:00,54.7,48.0,29.71,SSE,164,10.0,12.0,78,0.00,,---,0.00,VWS V14.00,2013-02-18 17:18:00,
2013-02-18 11:19:00,54.5,48.1,29.71,SSE,161,10.0,10.0,79,0.00,,---,0.00,VWS V14.00,2013-02-18 17:19:00,
2013-02-18 11:20:00,54.5,48.1,29.71,SSE,165,7.0,11.0,79,0.00,,---,0.00,VWS V14.00,2013-02-18 17:20:00,
2013-02-18 11:21:00,54.5,48.1,29.71,SSE,163,6.0,10.0,79,0.00,,---,0.00,VWS V14.00,2013-02-18 17:21:00,
2013-02-18 11:22:00,54.4,48.0,29.71,SSE,153,10.0,14.0,79,0.00,,---,0.00,VWS V14.00,2013-02-18 17:22:00,
2013-02-18 11:23:00,54.4,48.0,29.71,SSE,158,7.0,10.0,79,0.00,,---,0.00,VWS V14.00,2013-02-18 17:23:00,
2013-02-18 11:24:00,54.4,48.4,29.71,SSE,154,7.0,9.0,80,0.00,,---,0.00,VWS V14.00,2013-02-18 17:24:00,
2013-02-18 11:25:00,54.2,48.2,29.71,SSE,152,11.0,11.0,80,0.00,,---,0.00,VWS V14.00,2013-02-18 17:25:00,
2013-02-18 11:26:00,54.2,48.2,29.71,SSE,148,12.0,12.0,80,0.00,,---,0.00,VWS V14.00,2013-02-18 17:26:00,
2013-02-18 11:27:00,54.2,48.2,29.71,SSE,154,11.0,12.0,80,0.00,,---,0.00,VWS V14.00,2013-02-18 17:27:00,
2013-02-18 11:28:00,54.2,48.5,29.71,SSE,159,13.0,15.0,81,0.00,,---,0.00,VWS V14.00,2013-02-18 17:28:00,
2013-02-18 11:29:00,54.2,48.5,29.71,SSE,164,9.0,13.0,81,0.00,,---,0.00,VWS V14.00,2013-02-18 17:29:00,
2013-02-18 11:30:00,54.2,48.5,29.71,SSE,161,11.0,16.0,81,0.00,,---,0.00,VWS V14.00,2013-02-18 17:30:00,
2013-02-18 11:31:00,54.1,48.4,29.71,SSE,165,7.0,11.0,81,0.00,,---,0.00,VWS V14.00,2013-02-18 17:31:00,
2013-02-18 11:32:00,54.1,48.4,29.71,SSE,153,6.0,11.0,81,0.00,,---,0.00,VWS V14.00,2013-02-18 17:32:00,
2013-02-18 11:33:00,54.1,48.4,29.70,SSE,153,10.0,11.0,81,0.00,,---,0.00,VWS V14.00,2013-02-18 17:33:00,
2013-02-18 11:34:00,54.1,48.4,29.70,SSE,153,6.0,11.0,81,0.00,,---,0.00,VWS V14.00,2013-02-18 17:34:00,
2013-02-18 11:35:00,54.1,48.4,29.70,SSE,155,4.0,9.0,81,0.00,,---,0.00,VWS V14.00,2013-02-18 17:35:00,
2013-02-18 11:36:00,54.1,48.4,29.70,SSE,155,6.0,7.0,81,0.00,,---,0.00,VWS V14.00,2013-02-18 17:36:00,
2013-02-18 11:37:00,53.9,48.5,29.70,SSE,160,6.0,12.0,82,0.00,,---,0.00,VWS V14.00,2013-02-18 17:37:00,
2013-02-18 11:38:00,53.9,48.5,29.70,SSE,157,5.0,14.0,82,0.00,,---,0.00,VWS V14.00,2013-02-18 17:38:00,
2013-02-18 11:39:00,53.9,48.5,29.70,SSE,157,12.0,12.0,82,0.00,,---,0.00,VWS V14.00,2013-02-18 17:39:00,
2013-02-18 11:40:00,53.9,48.5,29.70,SSE,152,10.0,15.0,82,0.00,,---,0.00,VWS V14.00,2013-02-18 17:40:00,
2013-02-18 11:41:00,53.9,48.5,29.70,SSE,149,12.0,14.0,82,0.00,,---,0.00,VWS V14.00,2013-02-18 17:41:00,
2013-02-18 11:42:00,53.9,48.5,29.70,SSE,154,12.0,12.0,82,0.00,,---,0.00,VWS V14.00,2013-02-18 17:42:00,
2013-02-18 11:43:00,53.9,48.9,29.70,SSE,163,13.0,14.0,83,0.00,,---,0.00,VWS V14.00,2013-02-18 17:43:00,
2013-02-18 11:44:00,53.9,48.9,29.70,SSE,161,6.0,13.0,83,0.00,,---,0.00,VWS V14.00,2013-02-18 17:44:00,
2013-02-18 11:45:00,53.9,48.9,29.70,SSE,160,7.0,13.0,83,0.00,,---,0.00,VWS V14.00,2013-02-18 17:45:00,
2013-02-18 11:46:00,53.9,48.9,29.70,SSE,160,5.0,7.0,83,0.00,,---,0.00,VWS V14.00,2013-02-18 17:46:00,
2013-02-18 11:47:00,53.9,48.9,29.70,SSE,159,10.0,13.0,83,0.00,,---,0.00,VWS V14.00,2013-02-18 17:47:00,
2013-02-18 11:48:00,53.9,48.9,29.70,SSE,163,13.0,13.0,83,0.00,,---,0.00,VWS V14.00,2013-02-18 17:48:00,
2013-02-18 11:49:00,53.9,48.9,29.70,SSE,165,7.0,13.0,83,0.00,,---,0.00,VWS V14.00,2013-02-18 17:49:00,
2013-02-18 11:50:00,53.9,48.9,29.70,SSE,167,7.0,11.0,83,0.00,,---,0.00,VWS V14.00,2013-02-18 17:50:00,
2013-02-18 11:51:00,53.9,48.9,29.70,South,171,10.0,11.0,83,0.00,,---,0.00,VWS V14.00,2013-02-18 17:51:00,
2013-02-18 11:52:00,54.1,49.1,29.70,South,169,9.0,11.0,83,0.00,,---,0.00,VWS V14.00,2013-02-18 17:52:00,
2013-02-18 11:53:00,54.1,49.1,29.70,South,178,9.0,11.0,83,0.00,,---,0.00,VWS V14.00,2013-02-18 17:53:00,
2013-02-18 11:54:00,54.1,49.1,29.70,South,171,4.0,11.0,83,0.00,,---,0.00,VWS V14.00,2013-02-18 17:54:00,
2013-02-18 11:55:00,54.1,49.1,29.70,SSE,164,10.0,13.0,83,0.00,,---,0.00,VWS V14.00,2013-02-18 17:55:00,
2013-02-18 11:56:00,54.1,49.1,29.69,SSE,165,6.0,10.0,83,0.00,,---,0.00,VWS V14.00,2013-02-18 17:56:00,
2013-02-18 11:57:00,54.1,49.1,29.69,South,171,4.0,13.0,83,0.00,,---,0.00,VWS V14.00,2013-02-18 17:57:00,
2013-02-18 11:58:00,54.2,49.2,29.69,South,169,10.0,10.0,83,0.00,,---,0.00,VWS V14.00,2013-02-18 17:58:00,
2013-02-18 11:59:00,54.2,49.2,29.69,SSE,159,7.0,12.0,83,0.00,,---,0.00,VWS V14.00,2013-02-18 17:59:00,
2013-02-18 12:00:00,54.2,49.2,29.69,SSE,167,3.0,15.0,83,0.00,,---,0.00,VWS V14.00,2013-02-18 18:00:00,
2013-02-18 12:01:00,54.2,49.2,29.69,SSE,164,11.0,11.0,83,0.00,,---,0.00,VWS V14.00,2013-02-18 18:01:00,
2013-02-18 12:02:00,54.2,49.2,29.69,SSE,161,11.0,11.0,83,0.00,,---,0.00,VWS V14.00,2013-02-18 18:02:00,
2013-02-18 12:03:00,54.2,49.2,29.69,SSE,149,9.0,16.0,83,0.00,,---,0.00,VWS V14.00,2013-02-18 18:03:00,
2013-02-18 12:04:00,54.2,49.2,29.69,SSE,157,9.0,13.0,83,0.00,,---,0.00,VWS V14.00,2013-02-18 18:04:00,
2013-02-18 12:05:00,54.2,49.2,29.69,SSE,156,12.0,12.0,83,0.00,,---,0.00,VWS V14.00,2013-02-18 18:05:00,
2013-02-18 12:06:00,54.2,49.2,29.69,SSE,153,11.0,12.0,83,0.00,,---,0.00,VWS V14.00,2013-02-18 18:06:00,
2013-02-18 12:07:00,54.2,49.2,29.69,SSE,156,7.0,9.0,83,0.00,,---,0.00,VWS V14.00,2013-02-18 18:07:00,
2013-02-18 12:08:00,54.2,49.2,29.69,SSE,155,12.0,12.0,83,0.00,,---,0.00,VWS V14.00,2013-02-18 18:08:00,
2013-02-18 12:09:00,54.2,49.2,29.69,SSE,159,10.0,17.0,83,0.00,,---,0.00,VWS V14.00,2013-02-18 18:09:00,
2013-02-18 12:10:00,54.2,49.2,29.68,South,178,12.0,15.0,83,0.00,,---,0.00,VWS V14.00,2013-02-18 18:10:00,
2013-02-18 12:11:00,54.2,49.2,29.69,SSE,160,11.0,13.0,83,0.00,,---,0.00,VWS V14.00,2013-02-18 18:11:00,
2013-02-18 12:12:00,54.2,49.2,29.68,SSE,165,5.0,13.0,83,0.00,,---,0.00,VWS V14.00,2013-02-18 18:12:00,
2013-02-18 12:13:00,54.2,49.2,29.68,SSE,150,10.0,14.0,83,0.00,,---,0.00,VWS V14.00,2013-02-18 18:13:00,
2013-02-18 12:14:00,54.2,49.2,29.68,SSE,167,9.0,13.0,83,0.00,,---,0.00,VWS V14.00,2013-02-18 18:14:00,
2013-02-18 12:15:00,54.2,49.2,29.68,South,181,11.0,13.0,83,0.00,,---,0.00,VWS V14.00,2013-02-18 18:15:00,
2013-02-18 12:16:00,54.2,49.2,29.68,SSE,160,6.0,13.0,83,0.00,,---,0.00,VWS V14.00,2013-02-18 18:16:00,
2013-02-18 12:17:00,54.2,49.5,29.68,SSE,166,9.0,10.0,84,0.00,,---,0.00,VWS V14.00,2013-02-18 18:17:00,
2013-02-18 12:18:00,54.2,49.5,29.68,SSE,167,12.0,12.0,84,0.00,,---,0.00,VWS V14.00,2013-02-18 18:18:00,
2013-02-18 12:19:00,54.2,49.5,29.68,SSE,151,11.0,14.0,84,0.00,,---,0.00,VWS V14.00,2013-02-18 18:19:00,
2013-02-18 12:20:00,54.2,49.5,29.68,SSE,165,11.0,12.0,84,0.00,,---,0.00,VWS V14.00,2013-02-18 18:20:00,
2013-02-18 12:21:00,54.2,49.5,29.68,South,181,6.0,14.0,84,0.00,,---,0.00,VWS V14.00,2013-02-18 18:21:00,
2013-02-18 12:22:00,54.2,49.5,29.68,SSE,157,9.0,13.0,84,0.00,,---,0.00,VWS V14.00,2013-02-18 18:22:00,
2013-02-18 12:23:00,54.2,49.5,29.68,South,175,6.0,15.0,84,0.00,,---,0.00,VWS V14.00,2013-02-18 18:23:00,
2013-02-18 12:24:00,54.2,49.5,29.68,SSE,157,10.0,11.0,84,0.00,,---,0.00,VWS V14.00,2013-02-18 18:24:00,
2013-02-18 12:25:00,54.2,49.5,29.68,SSE,162,9.0,13.0,84,0.01,,---,0.01,VWS V14.00,2013-02-18 18:25:00,
2013-02-18 12:26:00,54.2,49.5,29.68,SSE,162,4.0,9.0,84,0.01,,---,0.01,VWS V14.00,2013-02-18 18:26:00,
2013-02-18 12:27:00,54.2,49.5,29.68,SSE,159,12.0,12.0,84,0.01,,---,0.01,VWS V14.00,2013-02-18 18:27:00,
2013-02-18 12:28:00,54.2,49.5,29.68,SSE,166,8.0,12.0,84,0.01,,---,0.01,VWS V14.00,2013-02-18 18:28:00,
2013-02-18 12:29:00,54.2,49.5,29.68,South,175,8.0,11.0,84,0.01,,---,0.01,VWS V14.00,2013-02-18 18:29:00,
2013-02-18 12:30:00,54.2,49.5,29.68,South,172,10.0,10.0,84,0.01,,---,0.01,VWS V14.00,2013-02-18 18:30:00,
2013-02-18 12:31:00,54.2,49.8,29.68,South,175,5.0,10.0,85,0.01,,---,0.01,VWS V14.00,2013-02-18 18:31:00,
2013-02-18 12:32:00,54.2,49.8,29.67,SSE,158,10.0,12.0,85,0.02,,---,0.02,VWS V14.00,2013-02-18 18:32:00,
2013-02-18 12:33:00,54.1,49.7,29.67,SE,145,8.0,13.0,85,0.02,,---,0.02,VWS V14.00,2013-02-18 18:33:00,
2013-02-18 12:34:00,54.1,49.7,29.67,SSE,163,11.0,16.0,85,0.02,,---,0.02,VWS V14.00,2013-02-18 18:34:00,
2013-02-18 12:35:00,54.1,49.7,29.67,SSE,158,10.0,11.0,85,0.02,,---,0.02,VWS V14.00,2013-02-18 18:35:00,
2013-02-18 12:36:00,54.1,49.7,29.67,SSE,166,9.0,10.0,85,0.02,,---,0.02,VWS V14.00,2013-02-18 18:36:00,
2013-02-18 12:37:00,54.1,50.0,29.67,SSE,161,9.0,13.0,86,0.02,,---,0.02,VWS V14.00,2013-02-18 18:37:00,
2013-02-18 12:38:00,54.1,49.7,29.67,SSE,158,8.0,12.0,85,0.02,,---,0.02,VWS V14.00,2013-02-18 18:38:00,
2013-02-18 12:39:00,54.1,50.0,29.67,SSE,152,12.0,12.0,86,0.02,,---,0.02,VWS V14.00,2013-02-18 18:39:00,
2013-02-18 12:40:00,54.1,50.0,29.67,SSE,153,8.0,12.0,86,0.02,,---,0.02,VWS V14.00,2013-02-18 18:40:00,
2013-02-18 12:41:00,54.1,50.0,29.67,SSE,155,9.0,10.0,86,0.02,,---,0.02,VWS V14.00,2013-02-18 18:41:00,
2013-02-18 12:42:00,54.1,50.0,29.67,SSE,152,13.0,13.0,86,0.02,,---,0.02,VWS V14.00,2013-02-18 18:42:00,
2013-02-18 12:43:00,54.1,50.0,29.66,SSE,153,7.0,13.0,86,0.02,,---,0.02,VWS V14.00,2013-02-18 18:43:00,
2013-02-18 12:44:00,54.1,50.0,29.66,SSE,155,12.0,12.0,86,0.02,,---,0.02,VWS V14.00,2013-02-18 18:44:00,
2013-02-18 12:45:00,54.1,50.0,29.66,SE,144,12.0,15.0,86,0.02,,---,0.02,VWS V14.00,2013-02-18 18:45:00,
2013-02-18 12:46:00,54.1,50.0,29.66,SSE,153,13.0,13.0,86,0.02,,---,0.02,VWS V14.00,2013-02-18 18:46:00,
2013-02-18 12:47:00,54.1,50.0,29.66,SSE,160,7.0,13.0,86,0.02,,---,0.02,VWS V14.00,2013-02-18 18:47:00,
2013-02-18 12:48:00,54.1,50.0,29.66,SE,146,10.0,12.0,86,0.03,,---,0.03,VWS V14.00,2013-02-18 18:48:00,
2013-02-18 12:49:00,54.1,50.0,29.66,SE,146,9.0,10.0,86,0.03,,---,0.03,VWS V14.00,2013-02-18 18:49:00,
2013-02-18 12:50:00,54.1,50.0,29.66,SSE,150,7.0,12.0,86,0.03,,---,0.03,VWS V14.00,2013-02-18 18:50:00,
2013-02-18 12:51:00,54.1,50.0,29.65,SSE,149,11.0,11.0,86,0.03,,---,0.03,VWS V14.00,2013-02-18 18:51:00,
2013-02-18 12:52:00,54.2,50.1,29.65,SSE,154,10.0,12.0,86,0.03,,---,0.03,VWS V14.00,2013-02-18 18:52:00,
2013-02-18 12:53:00,54.2,50.1,29.65,SSE,149,11.0,12.0,86,0.03,,---,0.03,VWS V14.00,2013-02-18 18:53:00,
2013-02-18 12:54:00,54.2,50.1,29.65,SSE,149,10.0,13.0,86,0.03,,---,0.03,VWS V14.00,2013-02-18 18:54:00,
2013-02-18 12:55:00,54.2,50.1,29.65,SSE,159,3.0,10.0,86,0.03,,---,0.03,VWS V14.00,2013-02-18 18:55:00,
2013-02-18 12:56:00,54.2,50.1,29.66,SSE,158,9.0,10.0,86,0.03,,---,0.03,VWS V14.00,2013-02-18 18:56:00,
2013-02-18 12:57:00,54.4,50.3,29.65,SSE,157,9.0,12.0,86,0.03,,---,0.03,VWS V14.00,2013-02-18 18:57:00,
2013-02-18 12:58:00,54.4,50.3,29.66,SSE,157,10.0,11.0,86,0.03,,---,0.03,VWS V14.00,2013-02-18 18:58:00,
2013-02-18 12:59:00,54.4,50.3,29.65,SSE,157,10.0,11.0,86,0.03,,---,0.03,VWS V14.00,2013-02-18 18:59:00,
2013-02-18 13:00:00,54.4,50.3,29.65,SSE,157,2.0,10.0,86,0.03,,---,0.03,VWS V14.00,2013-02-18 19:00:00,
2013-02-18 13:01:00,54.4,50.3,29.65,SSE,157,4.0,4.0,86,0.03,,---,0.03,VWS V14.00,2013-02-18 19:01:00,
2013-02-18 13:02:00,54.4,50.3,29.65,SSE,157,6.0,9.0,86,0.03,,---,0.03,VWS V14.00,2013-02-18 19:02:00,
2013-02-18 13:03:00,54.4,50.3,29.65,SSE,157,5.0,9.0,86,0.04,,---,0.04,VWS V14.00,2013-02-18 19:03:00,
2013-02-18 13:04:00,54.4,50.3,29.65,SSE,157,7.0,11.0,86,0.04,,---,0.04,VWS V14.00,2013-02-18 19:04:00,
2013-02-18 13:05:00,54.4,50.3,29.65,SSE,157,7.0,7.0,86,0.04,,---,0.04,VWS V14.00,2013-02-18 19:05:00,
2013-02-18 13:06:00,54.4,50.3,29.65,SSE,157,9.0,9.0,86,0.04,,---,0.04,VWS V14.00,2013-02-18 19:06:00,
2013-02-18 13:07:00,54.4,50.3,29.65,SSE,157,6.0,10.0,86,0.06,,---,0.06,VWS V14.00,2013-02-18 19:07:00,
2013-02-18 13:08:00,54.4,50.3,29.64,SSE,157,5.0,9.0,86,0.06,,---,0.06,VWS V14.00,2013-02-18 19:08:00,
2013-02-18 13:09:00,54.4,50.3,29.64,SSE,157,9.0,12.0,86,0.06,,---,0.06,VWS V14.00,2013-02-18 19:09:00,
2013-02-18 13:10:00,54.4,50.3,29.64,South,169,9.0,12.0,86,0.06,,---,0.06,VWS V14.00,2013-02-18 19:10:00,
2013-02-18 13:11:00,54.4,50.3,29.64,South,169,5.0,9.0,86,0.06,,---,0.06,VWS V14.00,2013-02-18 19:11:00,
2013-02-18 13:12:00,54.4,50.6,29.65,South,169,4.0,7.0,87,0.06,,---,0.06,VWS V14.00,2013-02-18 19:12:00,
2013-02-18 13:13:00,54.5,50.7,29.65,South,169,3.0,6.0,87,0.06,,---,0.06,VWS V14.00,2013-02-18 19:13:00,
2013-02-18 13:14:00,54.4,50.6,29.65,South,169,0.0,5.0,87,0.07,,---,0.07,VWS V14.00,2013-02-18 19:14:00,
2013-02-18 13:15:00,54.4,50.6,29.65,South,169,0.0,0.0,87,0.08,,---,0.08,VWS V14.00,2013-02-18 19:15:00,
2013-02-18 13:16:00,54.4,50.6,29.65,South,169,0.0,0.0,87,0.08,,---,0.08,VWS V14.00,2013-02-18 19:16:00,
2013-02-18 13:17:00,54.4,50.6,29.65,SSE,168,5.0,5.0,87,0.12,,---,0.12,VWS V14.00,2013-02-18 19:17:00,
2013-02-18 13:18:00,54.2,50.4,29.65,SSE,168,2.0,7.0,87,0.12,,---,0.12,VWS V14.00,2013-02-18 19:18:00,
2013-02-18 13:19:00,54.2,50.4,29.65,SSE,168,0.0,2.0,87,0.12,,---,0.12,VWS V14.00,2013-02-18 19:19:00,
2013-02-18 13:20:00,54.2,50.4,29.64,SSE,168,0.0,1.0,87,0.13,,---,0.13,VWS V14.00,2013-02-18 19:20:00,
2013-02-18 13:21:00,54.2,50.4,29.64,SSE,168,0.0,0.0,87,0.13,,---,0.13,VWS V14.00,2013-02-18 19:21:00,
2013-02-18 13:22:00,54.2,50.7,29.64,SSE,167,6.0,7.0,88,0.13,,---,0.13,VWS V14.00,2013-02-18 19:22:00,
2013-02-18 13:23:00,54.2,50.7,29.64,SSE,164,5.0,10.0,88,0.13,,---,0.13,VWS V14.00,2013-02-18 19:23:00,
2013-02-18 13:24:00,54.4,50.9,29.64,South,169,2.0,7.0,88,0.14,,---,0.14,VWS V14.00,2013-02-18 19:24:00,
2013-02-18 13:25:00,54.4,50.9,29.64,South,169,0.0,4.0,88,0.14,,---,0.14,VWS V14.00,2013-02-18 19:25:00,
2013-02-18 13:26:00,54.4,50.9,29.64,South,169,0.0,0.0,88,0.13,,---,0.14,VWS V14.00,2013-02-18 19:26:00,
2013-02-18 13:27:00,54.4,50.9,29.64,SSE,166,6.0,6.0,88,0.14,,---,0.15,VWS V14.00,2013-02-18 19:27:00,
2013-02-18 13:28:00,54.4,50.9,29.64,SSE,165,5.0,7.0,88,0.14,,---,0.15,VWS V14.00,2013-02-18 19:28:00,
2013-02-18 13:29:00,54.5,51.0,29.64,SSE,150,7.0,16.0,88,0.14,,---,0.15,VWS V14.00,2013-02-18 19:29:00,
2013-02-18 13:30:00,54.5,51.0,29.64,South,176,1.0,12.0,88,0.14,,---,0.15,VWS V14.00,2013-02-18 19:30:00,
2013-02-18 13:31:00,54.7,51.2,29.64,South,176,0.0,1.0,88,0.14,,---,0.15,VWS V14.00,2013-02-18 19:31:00,
2013-02-18 13:32:00,54.7,51.2,29.64,South,176,0.0,4.0,88,0.15,,---,0.16,VWS V14.00,2013-02-18 19:32:00,
2013-02-18 13:33:00,54.8,51.3,29.64,South,177,1.0,6.0,88,0.14,,---,0.16,VWS V14.00,2013-02-18 19:33:00,
2013-02-18 13:34:00,54.8,51.3,29.64,SSW,203,7.0,7.0,88,0.14,,---,0.16,VWS V14.00,2013-02-18 19:34:00,
2013-02-18 13:35:00,55.0,50.6,29.64,South,186,4.0,13.0,85,0.14,,---,0.16,VWS V14.00,2013-02-18 19:35:00,
2013-02-18 13:36:00,55.0,51.5,29.64,SSW,207,4.0,10.0,88,0.14,,---,0.16,VWS V14.00,2013-02-18 19:36:00,
2013-02-18 13:37:00,55.1,51.3,29.64,SSW,196,5.0,6.0,87,0.14,,---,0.16,VWS V14.00,2013-02-18 19:37:00,
2013-02-18 13:38:00,55.1,51.3,29.64,SSW,195,0.0,6.0,87,0.14,,---,0.16,VWS V14.00,2013-02-18 19:38:00,
2013-02-18 13:39:00,55.1,51.3,29.64,SSW,195,5.0,6.0,87,0.14,,---,0.16,VWS V14.00,2013-02-18 19:39:00,
2013-02-18 13:40:00,55.1,51.3,29.63,SE,146,4.0,9.0,87,0.14,,---,0.16,VWS V14.00,2013-02-18 19:40:00,
2013-02-18 13:41:00,55.1,51.3,29.63,SE,146,5.0,7.0,87,0.14,,---,0.16,VWS V14.00,2013-02-18 19:41:00,
2013-02-18 13:42:00,55.3,51.5,29.63,SSE,152,6.0,6.0,87,0.14,,---,0.16,VWS V14.00,2013-02-18 19:42:00,
2013-02-18 13:43:00,55.3,51.5,29.62,SSE,151,4.0,6.0,87,0.14,,---,0.16,VWS V14.00,2013-02-18 19:43:00,
2013-02-18 13:44:00,55.3,51.5,29.62,SSE,151,5.0,6.0,87,0.14,,---,0.16,VWS V14.00,2013-02-18 19:44:00,
2013-02-18 13:45:00,55.3,51.5,29.62,SSE,153,4.0,6.0,87,0.14,,---,0.16,VWS V14.00,2013-02-18 19:45:00,
2013-02-18 13:46:00,55.3,51.5,29.62,SSE,152,5.0,7.0,87,0.14,,---,0.16,VWS V14.00,2013-02-18 19:46:00,
2013-02-18 13:47:00,55.3,51.5,29.62,SSE,152,6.0,7.0,87,0.14,,---,0.16,VWS V14.00,2013-02-18 19:47:00,
2013-02-18 13:48:00,55.3,51.5,29.62,SSE,151,6.0,7.0,87,0.14,,---,0.16,VWS V14.00,2013-02-18 19:48:00,
2013-02-18 13:49:00,55.3,51.5,29.62,SSE,151,7.0,8.0,87,0.13,,---,0.16,VWS V14.00,2013-02-18 19:49:00,
2013-02-18 13:50:00,55.3,51.5,29.61,SSE,151,3.0,7.0,87,0.13,,---,0.16,VWS V14.00,2013-02-18 19:50:00,
2013-02-18 13:51:00,55.3,51.5,29.61,SSE,152,5.0,5.0,87,0.13,,---,0.16,VWS V14.00,2013-02-18 19:51:00,
2013-02-18 13:52:00,55.3,51.5,29.62,SSE,152,5.0,7.0,87,0.13,,---,0.16,VWS V14.00,2013-02-18 19:52:00,
2013-02-18 13:53:00,55.3,51.5,29.62,SSE,152,2.0,6.0,87,0.13,,---,0.16,VWS V14.00,2013-02-18 19:53:00,
2013-02-18 13:54:00,55.3,51.5,29.62,SW,224,10.0,15.0,87,0.13,,---,0.16,VWS V14.00,2013-02-18 19:54:00,
2013-02-18 13:55:00,55.3,51.5,29.62,SSW,211,4.0,12.0,87,0.14,,---,0.17,VWS V14.00,2013-02-18 19:55:00,
2013-02-18 13:56:00,55.3,51.5,29.62,SSW,205,5.0,7.0,87,0.14,,---,0.17,VWS V14.00,2013-02-18 19:56:00,
2013-02-18 13:57:00,55.4,51.3,29.62,SSW,205,2.0,6.0,86,0.14,,---,0.17,VWS V14.00,2013-02-18 19:57:00,
2013-02-18 13:58:00,55.4,51.3,29.62,SSW,205,3.0,9.0,86,0.14,,---,0.17,VWS V14.00,2013-02-18 19:58:00,
2013-02-18 13:59:00,55.6,51.5,29.62,SSW,208,0.0,7.0,86,0.14,,---,0.17,VWS V14.00,2013-02-18 19:59:00,
2013-02-18 14:00:00,55.6,51.5,29.62,SSW,207,2.0,2.0,86,0.14,,---,0.17,VWS V14.00,2013-02-18 20:00:00,
2013-02-18 14:01:00,55.6,51.5,29.62,SSW,207,3.0,4.0,86,0.14,,---,0.17,VWS V14.00,2013-02-18 20:01:00,
2013-02-18 14:02:00,55.6,51.5,29.63,SSW,207,1.0,3.0,86,0.14,,---,0.17,VWS V14.00,2013-02-18 20:02:00,
2013-02-18 14:03:00,55.7,51.6,29.63,SSW,207,1.0,4.0,86,0.14,,---,0.17,VWS V14.00,2013-02-18 20:03:00,
2013-02-18 14:04:00,55.7,51.6,29.63,SSW,207,3.0,6.0,86,0.13,,---,0.17,VWS V14.00,2013-02-18 20:04:00,
2013-02-18 14:05:00,55.7,51.6,29.62,SSW,207,5.0,7.0,86,0.13,,---,0.17,VWS V14.00,2013-02-18 20:05:00,
2013-02-18 14:06:00,55.7,51.6,29.62,SSW,207,0.0,5.0,86,0.13,,---,0.17,VWS V14.00,2013-02-18 20:06:00,
2013-02-18 14:07:00,55.7,51.6,29.63,SSW,206,5.0,7.0,86,0.13,,---,0.17,VWS V14.00,2013-02-18 20:07:00,
2013-02-18 14:08:00,55.9,51.8,29.62,SSW,206,0.0,5.0,86,0.11,,---,0.17,VWS V14.00,2013-02-18 20:08:00,
2013-02-18 14:09:00,55.9,51.8,29.62,SSW,206,2.0,3.0,86,0.11,,---,0.17,VWS V14.00,2013-02-18 20:09:00,
2013-02-18 14:10:00,55.9,51.8,29.62,SSW,206,0.0,2.0,86,0.11,,---,0.17,VWS V14.00,2013-02-18 20:10:00,
2013-02-18 14:11:00,55.9,51.8,29.62,SSW,206,0.0,3.0,86,0.11,,---,0.17,VWS V14.00,2013-02-18 20:11:00,
2013-02-18 14:12:00,55.9,51.8,29.62,SSW,206,0.0,4.0,86,0.11,,---,0.17,VWS V14.00,2013-02-18 20:12:00,
2013-02-18 14:13:00,55.9,51.8,29.62,SSW,206,0.0,0.0,86,0.11,,---,0.17,VWS V14.00,2013-02-18 20:13:00,
2013-02-18 14:14:00,55.9,51.8,29.62,SSW,206,3.0,3.0,86,0.11,,---,0.17,VWS V14.00,2013-02-18 20:14:00,
2013-02-18 14:15:00,56.0,51.9,29.62,SSW,208,0.0,4.0,86,0.10,,---,0.17,VWS V14.00,2013-02-18 20:15:00,
2013-02-18 14:16:00,56.0,51.9,29.62,SSW,208,1.0,1.0,86,0.09,,---,0.17,VWS V14.00,2013-02-18 20:16:00,
2013-02-18 14:17:00,56.0,51.6,29.62,SSW,208,0.0,0.0,85,0.07,,---,0.17,VWS V14.00,2013-02-18 20:17:00,
2013-02-18 14:18:00,56.0,51.9,29.62,SSW,208,0.0,0.0,86,0.05,,---,0.17,VWS V14.00,2013-02-18 20:18:00,
2013-02-18 14:19:00,56.0,51.6,29.63,SSW,209,5.0,9.0,85,0.05,,---,0.17,VWS V14.00,2013-02-18 20:19:00,
2013-02-18 14:20:00,56.0,51.6,29.63,SSW,209,0.0,5.0,85,0.05,,---,0.17,VWS V14.00,2013-02-18 20:20:00,
2013-02-18 14:21:00,56.0,51.6,29.62,SSW,209,3.0,4.0,85,0.04,,---,0.17,VWS V14.00,2013-02-18 20:21:00,
2013-02-18 14:22:00,56.2,51.8,29.63,SSW,209,0.0,5.0,85,0.04,,---,0.17,VWS V14.00,2013-02-18 20:22:00,
2013-02-18 14:23:00,56.2,51.8,29.63,SSW,209,0.0,0.0,85,0.04,,---,0.17,VWS V14.00,2013-02-18 20:23:00,
2013-02-18 14:24:00,56.2,51.8,29.63,SSW,209,0.0,3.0,85,0.04,,---,0.17,VWS V14.00,2013-02-18 20:24:00,
2013-02-18 14:25:00,56.2,51.8,29.63,WNW,298,4.0,11.0,85,0.03,,---,0.17,VWS V14.00,2013-02-18 20:25:00,
2013-02-18 14:26:00,56.2,51.8,29.63,WNW,290,0.0,7.0,85,0.03,,---,0.17,VWS V14.00,2013-02-18 20:26:00,
2013-02-18 14:27:00,56.2,51.8,29.63,West,277,0.0,7.0,85,0.02,,---,0.17,VWS V14.00,2013-02-18 20:27:00,
2013-02-18 14:28:00,56.2,51.8,29.64,West,277,2.0,2.0,85,0.03,,---,0.18,VWS V14.00,2013-02-18 20:28:00,
2013-02-18 14:29:00,56.2,51.8,29.65,WNW,282,5.0,8.0,85,0.03,,---,0.18,VWS V14.00,2013-02-18 20:29:00,
2013-02-18 14:30:00,56.2,51.8,29.66,NW,306,8.0,12.0,85,0.04,,---,0.19,VWS V14.00,2013-02-18 20:30:00,
2013-02-18 14:31:00,56.2,51.8,29.66,WNW,293,12.0,12.0,85,0.04,,---,0.19,VWS V14.00,2013-02-18 20:31:00,
2013-02-18 14:32:00,56.0,50.9,29.65,NW,320,7.0,17.0,83,0.04,,---,0.19,VWS V14.00,2013-02-18 20:32:00,
2013-02-18 14:33:00,55.9,50.8,29.66,NW,319,4.0,7.0,83,0.03,,---,0.19,VWS V14.00,2013-02-18 20:33:00,
2013-02-18 14:34:00,55.7,50.3,29.66,WSW,239,3.0,10.0,82,0.03,,---,0.19,VWS V14.00,2013-02-18 20:34:00,
2013-02-18 14:35:00,55.4,50.0,29.66,WNW,301,0.0,10.0,82,0.04,,---,0.20,VWS V14.00,2013-02-18 20:35:00,
2013-02-18 14:36:00,55.3,49.6,29.66,WNW,302,1.0,6.0,81,0.04,,---,0.20,VWS V14.00,2013-02-18 20:36:00,
2013-02-18 14:37:00,55.1,49.4,29.66,NW,305,0.0,6.0,81,0.04,,---,0.20,VWS V14.00,2013-02-18 20:37:00,
2013-02-18 14:38:00,55.0,49.3,29.66,SSE,153,5.0,7.0,81,0.04,,---,0.20,VWS V14.00,2013-02-18 20:38:00,
2013-02-18 14:39:00,54.8,49.1,29.66,SSE,154,3.0,5.0,81,0.04,,---,0.20,VWS V14.00,2013-02-18 20:39:00,
2013-02-18 14:40:00,54.5,48.8,29.66,South,171,3.0,4.0,81,0.04,,---,0.20,VWS V14.00,2013-02-18 20:40:00,
2013-02-18 14:41:00,54.5,48.8,29.66,South,179,5.0,5.0,81,0.04,,---,0.20,VWS V14.00,2013-02-18 20:41:00,
2013-02-18 14:42:00,54.4,48.7,29.67,South,180,0.0,2.0,81,0.04,,---,0.20,VWS V14.00,2013-02-18 20:42:00,
2013-02-18 14:43:00,54.2,48.5,29.67,SSW,213,2.0,6.0,81,0.04,,---,0.20,VWS V14.00,2013-02-18 20:43:00,
2013-02-18 14:44:00,54.1,48.4,29.67,SSW,213,0.0,3.0,81,0.04,,---,0.20,VWS V14.00,2013-02-18 20:44:00,
2013-02-18 14:45:00,54.1,48.7,29.66,SSW,213,0.0,2.0,82,0.04,,---,0.20,VWS V14.00,2013-02-18 20:45:00,
2013-02-18 14:46:00,53.9,48.5,29.66,SW,227,7.0,7.0,82,0.04,,---,0.20,VWS V14.00,2013-02-18 20:46:00,
2013-02-18 14:47:00,53.9,48.5,29.66,WSW,244,6.0,6.0,82,0.04,,---,0.20,VWS V14.00,2013-02-18 20:47:00,
2013-02-18 14:48:00,53.8,48.4,29.66,WSW,246,2.0,6.0,82,0.04,,---,0.20,VWS V14.00,2013-02-18 20:48:00,
2013-02-18 14:49:00,53.8,48.4,29.66,WSW,247,2.0,5.0,82,0.04,,---,0.20,VWS V14.00,2013-02-18 20:49:00,
2013-02-18 14:50:00,53.8,48.4,29.66,WSW,247,4.0,4.0,82,0.04,,---,0.20,VWS V14.00,2013-02-18 20:50:00,
2013-02-18 14:51:00,53.8,48.4,29.66,WSW,251,5.0,6.0,82,0.04,,---,0.20,VWS V14.00,2013-02-18 20:51:00,
2013-02-18 14:52:00,53.8,48.4,29.66,NW,307,5.0,7.0,82,0.04,,---,0.20,VWS V14.00,2013-02-18 20:52:00,
2013-02-18 14:53:00,53.8,48.8,29.66,NW,308,6.0,7.0,83,0.04,,---,0.20,VWS V14.00,2013-02-18 20:53:00,
2013-02-18 14:54:00,53.9,48.9,29.66,NW,308,6.0,7.0,83,0.04,,---,0.20,VWS V14.00,2013-02-18 20:54:00,
2013-02-18 14:55:00,53.9,48.9,29.66,NW,309,9.0,10.0,83,0.04,,---,0.20,VWS V14.00,2013-02-18 20:55:00,
2013-02-18 14:56:00,54.1,49.1,29.66,NW,305,6.0,10.0,83,0.03,,---,0.20,VWS V14.00,2013-02-18 20:56:00,
2013-02-18 14:57:00,54.1,49.1,29.66,NW,305,4.0,6.0,83,0.03,,---,0.20,VWS V14.00,2013-02-18 20:57:00,
2013-02-18 14:58:00,54.2,49.2,29.66,NW,305,4.0,6.0,83,0.03,,---,0.20,VWS V14.00,2013-02-18 20:58:00,
2013-02-18 14:59:00,54.4,49.0,29.66,NW,306,7.0,7.0,82,0.03,,---,0.20,VWS V14.00,2013-02-18 20:59:00,
2013-02-18 15:00:00,54.5,49.5,29.66,NW,306,3.0,6.0,83,0.03,,---,0.20,VWS V14.00,2013-02-18 21:00:00,
2013-02-18 15:01:00,54.7,49.7,29.66,NW,306,0.0,3.0,83,0.03,,---,0.20,VWS V14.00,2013-02-18 21:01:00,
2013-02-18 15:02:00,54.8,49.7,29.67,NW,306,6.0,6.0,83,0.03,,---,0.20,VWS V14.00,2013-02-18 21:02:00,
2013-02-18 15:03:00,55.0,49.6,29.67,NW,305,5.0,7.0,82,0.03,,---,0.20,VWS V14.00,2013-02-18 21:03:00,
2013-02-18 15:04:00,55.1,49.7,29.67,NNW,329,6.0,14.0,82,0.03,,---,0.20,VWS V14.00,2013-02-18 21:04:00,
2013-02-18 15:05:00,55.4,49.7,29.67,WNW,297,6.0,13.0,81,0.03,,---,0.20,VWS V14.00,2013-02-18 21:05:00,
2013-02-18 15:06:00,55.6,49.9,29.67,WNW,297,2.0,9.0,81,0.03,,---,0.20,VWS V14.00,2013-02-18 21:06:00,
2013-02-18 15:07:00,55.7,49.6,29.66,NW,304,6.0,12.0,80,0.03,,---,0.20,VWS V14.00,2013-02-18 21:07:00,
2013-02-18 15:08:00,55.9,49.8,29.67,WNW,296,9.0,11.0,80,0.03,,---,0.20,VWS V14.00,2013-02-18 21:08:00,
2013-02-18 15:09:00,56.0,49.6,29.67,WNW,296,6.0,10.0,79,0.03,,---,0.20,VWS V14.00,2013-02-18 21:09:00,
2013-02-18 15:10:00,56.2,49.8,29.67,WNW,297,5.0,7.0,79,0.03,,---,0.20,VWS V14.00,2013-02-18 21:10:00,
2013-02-18 15:11:00,56.2,49.4,29.67,WNW,298,6.0,9.0,78,0.03,,---,0.20,VWS V14.00,2013-02-18 21:11:00,
2013-02-18 15:12:00,56.3,49.2,29.67,WNW,285,8.0,18.0,77,0.03,,---,0.20,VWS V14.00,2013-02-18 21:12:00,
2013-02-18 15:13:00,56.5,48.7,29.67,NW,311,11.0,19.0,75,0.03,,---,0.20,VWS V14.00,2013-02-18 21:13:00,
2013-02-18 15:14:00,56.5,48.0,29.67,NNW,337,21.0,21.0,73,0.03,,---,0.20,VWS V14.00,2013-02-18 21:14:00,
2013-02-18 15:15:00,56.5,46.8,29.68,WNW,288,8.0,24.0,70,0.03,,---,0.20,VWS V14.00,2013-02-18 21:15:00,
2013-02-18 15:16:00,56.5,46.5,29.68,West,275,10.0,15.0,69,0.03,,---,0.20,VWS V14.00,2013-02-18 21:16:00,
2013-02-18 15:17:00,56.5,46.5,29.68,NW,309,11.0,17.0,69,0.03,,---,0.20,VWS V14.00,2013-02-18 21:17:00,
2013-02-18 15:18:00,56.5,46.1,29.68,NNW,327,13.0,13.0,68,0.03,,---,0.20,VWS V14.00,2013-02-18 21:18:00,
2013-02-18 15:19:00,56.5,45.7,29.68,NW,306,9.0,24.0,67,0.03,,---,0.20,VWS V14.00,2013-02-18 21:19:00,
2013-02-18 15:20:00,56.3,44.7,29.68,NW,309,13.0,18.0,65,0.03,,---,0.20,VWS V14.00,2013-02-18 21:20:00,
2013-02-18 15:21:00,56.3,45.1,29.68,NW,309,11.0,15.0,66,0.03,,---,0.20,VWS V14.00,2013-02-18 21:21:00,
2013-02-18 15:22:00,56.3,44.7,29.68,NW,306,11.0,12.0,65,0.03,,---,0.20,VWS V14.00,2013-02-18 21:22:00,
2013-02-18 15:23:00,56.3,44.3,29.68,NNW,328,14.0,19.0,64,0.03,,---,0.20,VWS V14.00,2013-02-18 21:23:00,
2013-02-18 15:24:00,56.3,44.3,29.68,NNW,337,15.0,15.0,64,0.03,,---,0.20,VWS V14.00,2013-02-18 21:24:00,
2013-02-18 15:25:00,56.3,44.3,29.68,NW,304,5.0,17.0,64,0.03,,---,0.20,VWS V14.00,2013-02-18 21:25:00,
2013-02-18 15:26:00,56.3,43.9,29.69,NW,315,11.0,14.0,63,0.03,,---,0.20,VWS V14.00,2013-02-18 21:26:00,
2013-02-18 15:27:00,56.3,43.9,29.69,NW,312,13.0,14.0,63,0.03,,---,0.20,VWS V14.00,2013-02-18 21:27:00,
2013-02-18 15:28:00,56.3,43.9,29.69,NW,324,11.0,14.0,63,0.03,,---,0.20,VWS V14.00,2013-02-18 21:28:00,
2013-02-18 15:29:00,56.3,44.3,29.69,WNW,302,13.0,15.0,64,0.02,,---,0.20,VWS V14.00,2013-02-18 21:29:00,
2013-02-18 15:30:00,56.3,43.5,29.69,NW,311,13.0,18.0,62,0.02,,---,0.20,VWS V14.00,2013-02-18 21:30:00,
2013-02-18 15:31:00,56.3,43.5,29.69,WNW,297,4.0,13.0,62,0.01,,---,0.20,VWS V14.00,2013-02-18 21:31:00,
2013-02-18 15:32:00,56.3,43.5,29.69,WNW,296,5.0,5.0,62,0.01,,---,0.20,VWS V14.00,2013-02-18 21:32:00,
2013-02-18 15:33:00,56.3,43.0,29.70,NNW,333,9.0,17.0,61,0.01,,---,0.20,VWS V14.00,2013-02-18 21:33:00,
2013-02-18 15:34:00,56.3,43.0,29.70,WNW,303,6.0,18.0,61,0.01,,---,0.20,VWS V14.00,2013-02-18 21:34:00,
2013-02-18 15:35:00,56.3,43.0,29.70,NW,312,6.0,14.0,61,0.01,,---,0.20,VWS V14.00,2013-02-18 21:35:00,
2013-02-18 15:36:00,56.3,43.5,29.70,NW,305,3.0,11.0,62,0.00,,---,0.20,VWS V14.00,2013-02-18 21:36:00,
2013-02-18 15:37:00,56.3,43.5,29.70,NW,306,3.0,3.0,62,0.00,,---,0.20,VWS V14.00,2013-02-18 21:37:00,
2013-02-18 15:38:00,56.3,42.6,29.70,NW,308,18.0,20.0,60,0.00,,---,0.20,VWS V14.00,2013-02-18 21:38:00,
2013-02-18 15:39:00,56.3,41.7,29.70,WNW,294,15.0,23.0,58,0.00,,---,0.20,VWS V14.00,2013-02-18 21:39:00,
2013-02-18 15:40:00,56.2,41.6,29.71,NW,322,15.0,18.0,58,0.00,,---,0.20,VWS V14.00,2013-02-18 21:40:00,
2013-02-18 15:41:00,56.2,41.2,29.70,NNW,333,16.0,18.0,57,0.00,,---,0.20,VWS V14.00,2013-02-18 21:41:00,
2013-02-18 15:42:00,56.2,41.2,29.70,NW,325,15.0,16.0,57,0.00,,---,0.20,VWS V14.00,2013-02-18 21:42:00,
2013-02-18 15:43:00,56.0,41.5,29.71,NW,315,16.0,18.0,58,0.00,,---,0.20,VWS V14.00,2013-02-18 21:43:00,
2013-02-18 15:44:00,55.9,40.9,29.71,WNW,298,19.0,23.0,57,0.00,,---,0.20,VWS V14.00,2013-02-18 21:44:00,
2013-02-18 15:45:00,55.7,39.8,29.71,WNW,289,21.0,22.0,55,0.00,,---,0.20,VWS V14.00,2013-02-18 21:45:00,
2013-02-18 15:46:00,55.7,40.3,29.71,WNW,300,22.0,23.0,56,0.00,,---,0.20,VWS V14.00,2013-02-18 21:46:00,
2013-02-18 15:47:00,55.7,40.3,29.71,WNW,300,22.0,23.0,56,0.00,,---,0.20,VWS V14.00,2013-02-18 21:47:00,
2013-02-18 15:48:00,55.6,40.6,29.72,NNW,327,16.0,18.0,57,0.00,,---,0.20,VWS V14.00,2013-02-18 21:48:00,
2013-02-18 15:49:00,55.4,39.5,29.72,NW,317,22.0,22.0,55,0.00,,---,0.20,VWS V14.00,2013-02-18 21:49:00,
2013-02-18 15:50:00,55.4,41.3,29.72,NW,316,11.0,22.0,59,0.00,,---,0.20,VWS V14.00,2013-02-18 21:50:00,
2013-02-18 15:51:00,55.4,40.0,29.72,WNW,300,18.0,20.0,56,0.00,,---,0.20,VWS V14.00,2013-02-18 21:51:00,
2013-02-18 15:52:00,55.4,39.5,29.72,WNW,292,20.0,20.0,55,0.00,,---,0.20,VWS V14.00,2013-02-18 21:52:00,
2013-02-18 15:53:00,55.3,39.9,29.72,NW,315,14.0,17.0,56,0.00,,---,0.20,VWS V14.00,2013-02-18 21:53:00,
2013-02-18 15:54:00,55.3,39.9,29.73,NW,312,9.0,18.0,56,0.00,,---,0.20,VWS V14.00,2013-02-18 21:54:00,
2013-02-18 15:55:00,55.3,39.9,29.73,WNW,296,12.0,15.0,56,0.00,,---,0.20,VWS V14.00,2013-02-18 21:55:00,
2013-02-18 15:56:00,55.3,39.9,29.73,NNW,340,12.0,22.0,56,0.00,,---,0.20,VWS V14.00,2013-02-18 21:56:00,
2013-02-18 15:57:00,55.1,39.7,29.73,NNW,329,14.0,14.0,56,0.00,,---,0.20,VWS V14.00,2013-02-18 21:57:00,
2013-02-18 15:58:00,55.1,39.7,29.73,NW,311,21.0,25.0,56,0.00,,---,0.20,VWS V14.00,2013-02-18 21:58:00,
2013-02-18 15:59:00,55.0,39.6,29.74,NW,305,11.0,21.0,56,0.00,,---,0.20,VWS V14.00,2013-02-18 21:59:00,
2013-02-18 16:00:00,54.8,39.4,29.74,WNW,298,13.0,21.0,56,0.00,,---,0.20,VWS V14.00,2013-02-18 22:00:00,
2013-02-18 16:01:00,54.7,39.8,29.74,NNW,336,13.0,21.0,57,0.00,,---,0.20,VWS V14.00,2013-02-18 22:01:00,
2013-02-18 16:02:00,54.7,39.8,29.74,NW,323,18.0,18.0,57,0.00,,---,0.20,VWS V14.00,2013-02-18 22:02:00,
2013-02-18 16:03:00,54.5,39.6,29.74,NW,315,14.0,21.0,57,0.00,,---,0.20,VWS V14.00,2013-02-18 22:03:00,
2013-02-18 16:04:00,54.4,39.0,29.74,NW,323,16.0,23.0,56,0.00,,---,0.20,VWS V14.00,2013-02-18 22:04:00,
2013-02-18 16:05:00,54.2,38.9,29.74,WNW,294,22.0,28.0,56,0.00,,---,0.20,VWS V14.00,2013-02-18 22:05:00,
2013-02-18 16:06:00,54.1,38.8,29.74,WNW,298,14.0,24.0,56,0.00,,---,0.20,VWS V14.00,2013-02-18 22:06:00,
2013-02-18 16:07:00,54.1,38.8,29.74,NW,320,16.0,18.0,56,0.00,,---,0.20,VWS V14.00,2013-02-18 22:07:00,
2013-02-18 16:08:00,53.9,39.0,29.75,WNW,298,9.0,18.0,57,0.00,,---,0.20,VWS V14.00,2013-02-18 22:08:00,
2013-02-18 16:09:00,53.9,39.5,29.75,NW,316,11.0,17.0,58,0.00,,---,0.20,VWS V14.00,2013-02-18 22:09:00,
2013-02-18 16:10:00,53.8,39.4,29.75,WNW,301,15.0,19.0,58,0.00,,---,0.20,VWS V14.00,2013-02-18 22:10:00,
2013-02-18 16:11:00,53.8,39.4,29.75,NNW,331,13.0,17.0,58,0.00,,---,0.20,VWS V14.00,2013-02-18 22:11:00,
2013-02-18 16:12:00,53.8,39.4,29.75,NW,305,18.0,20.0,58,0.00,,---,0.20,VWS V14.00,2013-02-18 22:12:00,
2013-02-18 16:13:00,53.6,38.8,29.75,WNW,294,10.0,21.0,57,0.00,,---,0.20,VWS V14.00,2013-02-18 22:13:00,
2013-02-18 16:14:00,53.6,38.8,29.75,NW,321,14.0,15.0,57,0.00,,---,0.20,VWS V14.00,2013-02-18 22:14:00,
2013-02-18 16:15:00,53.6,39.2,29.75,WNW,298,12.0,14.0,58,0.00,,---,0.20,VWS V14.00,2013-02-18 22:15:00,
2013-02-18 16:16:00,53.6,39.6,29.75,NW,324,13.0,13.0,59,0.00,,---,0.20,VWS V14.00,2013-02-18 22:16:00,
2013-02-18 16:17:00,53.6,39.6,29.75,WNW,302,16.0,17.0,59,0.00,,---,0.20,VWS V14.00,2013-02-18 22:17:00,
2013-02-18 16:18:00,53.5,39.1,29.76,NNW,341,22.0,31.0,58,0.00,,---,0.20,VWS V14.00,2013-02-18 22:18:00,
2013-02-18 16:19:00,53.3,38.5,29.76,NW,315,23.0,27.0,57,0.00,,---,0.20,VWS V14.00,2013-02-18 22:19:00,
2013-02-18 16:20:00,53.1,38.3,29.77,NW,315,21.0,31.0,57,0.00,,---,0.20,VWS V14.00,2013-02-18 22:20:00,
2013-02-18 16:21:00,52.9,38.5,29.76,NW,315,20.0,22.0,58,0.00,,---,0.20,VWS V14.00,2013-02-18 22:21:00,
2013-02-18 16:22:00,52.9,38.5,29.77,NW,314,18.0,20.0,58,0.00,,---,0.20,VWS V14.00,2013-02-18 22:22:00,
2013-02-18 16:23:00,52.6,38.7,29.77,NW,319,13.0,20.0,59,0.00,,---,0.20,VWS V14.00,2013-02-18 22:23:00,
2013-02-18 16:24:00,52.5,38.6,29.77,NW,314,16.0,18.0,59,0.00,,---,0.20,VWS V14.00,2013-02-18 22:24:00,
2013-02-18 16:25:00,52.3,38.4,29.77,NW,319,13.0,17.0,59,0.00,,---,0.20,VWS V14.00,2013-02-18 22:25:00,
2013-02-18 16:26:00,52.2,38.8,29.77,NNW,328,15.0,21.0,60,0.00,,---,0.20,VWS V14.00,2013-02-18 22:26:00,
2013-02-18 16:27:00,52.2,38.3,29.77,NW,304,17.0,20.0,59,0.00,,---,0.20,VWS V14.00,2013-02-18 22:27:00,
2013-02-18 16:28:00,52.0,38.1,29.77,NW,311,16.0,18.0,59,0.00,,---,0.20,VWS V14.00,2013-02-18 22:28:00,
2013-02-18 16:29:00,51.9,38.5,29.77,NW,321,18.0,18.0,60,0.00,,---,0.20,VWS V14.00,2013-02-18 22:29:00,
2013-02-18 16:30:00,51.7,37.8,29.77,NW,315,16.0,18.0,59,0.00,,---,0.20,VWS V14.00,2013-02-18 22:30:00,
2013-02-18 16:31:00,51.7,37.8,29.77,WNW,303,11.0,16.0,59,0.00,,---,0.20,VWS V14.00,2013-02-18 22:31:00,
2013-02-18 16:32:00,51.7,37.8,29.77,NW,304,10.0,11.0,59,0.00,,---,0.20,VWS V14.00,2013-02-18 22:32:00,
2013-02-18 16:33:00,51.6,37.8,29.77,WNW,298,9.0,17.0,59,0.00,,---,0.20,VWS V14.00,2013-02-18 22:33:00,
2013-02-18 16:34:00,51.6,38.2,29.78,NW,319,9.0,14.0,60,0.00,,---,0.20,VWS V14.00,2013-02-18 22:34:00,
2013-02-18 16:35:00,51.6,37.8,29.78,NW,304,22.0,22.0,59,0.00,,---,0.20,VWS V14.00,2013-02-18 22:35:00,
2013-02-18 16:36:00,51.4,37.1,29.78,NW,322,16.0,28.0,58,0.00,,---,0.20,VWS V14.00,2013-02-18 22:36:00,
2013-02-18 16:37:00,51.4,37.6,29.78,NW,325,15.0,21.0,59,0.00,,---,0.20,VWS V14.00,2013-02-18 22:37:00,
2013-02-18 16:38:00,51.4,38.0,29.79,WNW,290,13.0,17.0,60,0.00,,---,0.20,VWS V14.00,2013-02-18 22:38:00,
2013-02-18 16:39:00,51.3,37.0,29.78,WNW,302,15.0,25.0,58,0.00,,---,0.20,VWS V14.00,2013-02-18 22:39:00,
2013-02-18 16:40:00,51.1,37.3,29.79,NW,313,17.0,19.0,59,0.00,,---,0.20,VWS V14.00,2013-02-18 22:40:00,
2013-02-18 16:41:00,51.0,37.2,29.79,NW,314,14.0,20.0,59,0.00,,---,0.20,VWS V14.00,2013-02-18 22:41:00,
2013-02-18 16:42:00,51.0,36.8,29.79,NW,319,22.0,26.0,58,0.00,,---,0.20,VWS V14.00,2013-02-18 22:42:00,
2013-02-18 16:43:00,50.8,37.0,29.79,NW,321,18.0,22.0,59,0.00,,---,0.20,VWS V14.00,2013-02-18 22:43:00,
2013-02-18 16:44:00,50.8,37.4,29.79,NW,308,12.0,20.0,60,0.00,,---,0.20,VWS V14.00,2013-02-18 22:44:00,
2013-02-18 16:45:00,50.7,36.9,29.79,NNW,332,16.0,20.0,59,0.00,,---,0.20,VWS V14.00,2013-02-18 22:45:00,
2013-02-18 16:46:00,50.7,37.3,29.79,NW,309,13.0,18.0,60,0.00,,---,0.20,VWS V14.00,2013-02-18 22:46:00,
2013-02-18 16:47:00,50.5,37.2,29.79,WNW,302,11.0,15.0,60,0.00,,---,0.20,VWS V14.00,2013-02-18 22:47:00,
2013-02-18 16:48:00,50.5,36.7,29.79,NW,326,17.0,18.0,59,0.00,,---,0.20,VWS V14.00,2013-02-18 22:48:00,
2013-02-18 16:49:00,50.4,37.0,29.79,NW,306,15.0,28.0,60,0.00,,---,0.20,VWS V14.00,2013-02-18 22:49:00,
2013-02-18 16:50:00,50.4,36.6,29.79,NW,318,18.0,21.0,59,0.00,,---,0.20,VWS V14.00,2013-02-18 22:50:00,
2013-02-18 16:51:00,50.4,36.6,29.79,NW,311,17.0,19.0,59,0.00,,---,0.20,VWS V14.00,2013-02-18 22:51:00,
2013-02-18 16:52:00,50.2,36.4,29.79,WNW,294,13.0,19.0,59,0.00,,---,0.20,VWS V14.00,2013-02-18 22:52:00,
2013-02-18 16:53:00,50.2,36.4,29.79,WNW,296,11.0,21.0,59,0.00,,---,0.20,VWS V14.00,2013-02-18 22:53:00,
2013-02-18 16:54:00,50.2,36.9,29.79,NW,314,18.0,19.0,60,0.00,,---,0.20,VWS V14.00,2013-02-18 22:54:00,
2013-02-18 16:55:00,50.1,36.8,29.80,NW,313,15.0,22.0,60,0.00,,---,0.20,VWS V14.00,2013-02-18 22:55:00,
2013-02-18 16:56:00,50.1,36.3,29.80,NW,307,20.0,22.0,59,0.00,,---,0.20,VWS V14.00,2013-02-18 22:56:00,
2013-02-18 16:57:00,50.1,36.3,29.80,NW,313,14.0,20.0,59,0.00,,---,0.20,VWS V14.00,2013-02-18 22:57:00,
2013-02-18 16:58:00,50.1,36.8,29.80,NW,325,20.0,20.0,60,0.00,,---,0.20,VWS V14.00,2013-02-18 22:58:00,
2013-02-18 16:59:00,50.1,36.3,29.80,WNW,287,9.0,25.0,59,0.00,,---,0.20,VWS V14.00,2013-02-18 22:59:00,
2013-02-18 17:00:00,49.9,36.6,29.80,WNW,295,13.0,16.0,60,0.00,,---,0.20,VWS V14.00,2013-02-18 23:00:00,
2013-02-18 17:01:00,49.9,36.6,29.80,NW,309,14.0,14.0,60,0.00,,---,0.20,VWS V14.00,2013-02-18 23:01:00,
2013-02-18 17:02:00,49.9,36.6,29.81,NW,315,15.0,20.0,60,0.00,,---,0.20,VWS V14.00,2013-02-18 23:02:00,
2013-02-18 17:03:00,49.9,36.6,29.81,WNW,290,13.0,14.0,60,0.00,,---,0.20,VWS V14.00,2013-02-18 23:03:00,
2013-02-18 17:04:00,49.9,36.6,29.81,WNW,297,15.0,18.0,60,0.00,,---,0.20,VWS V14.00,2013-02-18 23:04:00,
2013-02-18 17:05:00,49.9,36.6,29.81,NW,318,17.0,18.0,60,0.00,,---,0.20,VWS V14.00,2013-02-18 23:05:00,
2013-02-18 17:06:00,49.9,36.2,29.81,NW,312,11.0,20.0,59,0.00,,---,0.20,VWS V14.00,2013-02-18 23:06:00,
2013-02-18 17:07:00,49.9,36.6,29.81,NW,307,13.0,13.0,60,0.00,,---,0.20,VWS V14.00,2013-02-18 23:07:00,
2013-02-18 17:08:00,49.8,36.5,29.81,NW,314,14.0,17.0,60,0.00,,---,0.20,VWS V14.00,2013-02-18 23:08:00,
2013-02-18 17:09:00,49.8,36.5,29.81,NW,312,14.0,23.0,60,0.00,,---,0.20,VWS V14.00,2013-02-18 23:09:00,
2013-02-18 17:10:00,49.8,36.5,29.81,NW,306,14.0,16.0,60,0.00,,---,0.20,VWS V14.00,2013-02-18 23:10:00,
2013-02-18 17:11:00,49.8,36.5,29.81,NW,306,16.0,18.0,60,0.00,,---,0.20,VWS V14.00,2013-02-18 23:11:00,
2013-02-18 17:12:00,49.8,36.1,29.81,NW,318,20.0,23.0,59,0.00,,---,0.20,VWS V14.00,2013-02-18 23:12:00,
2013-02-18 17:13:00,49.8,36.1,29.81,NW,318,20.0,23.0,59,0.00,,---,0.20,VWS V14.00,2013-02-18 23:13:00,
2013-02-18 17:14:00,49.8,36.5,29.82,NW,320,14.0,20.0,60,0.00,,---,0.20,VWS V14.00,2013-02-18 23:14:00,
2013-02-18 17:15:00,49.8,36.5,29.82,NW,313,16.0,18.0,60,0.00,,---,0.20,VWS V14.00,2013-02-18 23:15:00,
2013-02-18 17:16:00,49.8,36.5,29.82,NW,308,10.0,17.0,60,0.00,,---,0.20,VWS V14.00,2013-02-18 23:16:00,
2013-02-18 17:17:00,49.8,36.5,29.82,WNW,286,12.0,13.0,60,0.00,,---,0.20,VWS V14.00,2013-02-18 23:17:00,
2013-02-18 17:18:00,49.8,36.5,29.82,WNW,286,12.0,13.0,60,0.00,,---,0.20,VWS V14.00,2013-02-18 23:18:00,
2013-02-18 17:19:00,49.8,36.9,29.82,NW,321,14.0,15.0,61,0.00,,---,0.20,VWS V14.00,2013-02-18 23:19:00,
2013-02-18 17:20:00,49.8,36.5,29.82,NW,323,20.0,20.0,60,0.00,,---,0.20,VWS V14.00,2013-02-18 23:20:00,
2013-02-18 17:21:00,49.8,36.5,29.82,NNW,334,18.0,24.0,60,0.00,,---,0.20,VWS V14.00,2013-02-18 23:21:00,
2013-02-18 17:22:00,49.8,36.5,29.82,NW,323,21.0,21.0,60,0.00,,---,0.20,VWS V14.00,2013-02-18 23:22:00,
2013-02-18 17:23:00,49.8,36.5,29.82,NW,323,21.0,21.0,60,0.00,,---,0.20,VWS V14.00,2013-02-18 23:23:00,
2013-02-18 17:24:00,49.8,36.5,29.82,NW,323,20.0,21.0,60,0.00,,---,0.20,VWS V14.00,2013-02-18 23:24:00,
2013-02-18 17:25:00,49.8,36.5,29.82,NW,317,17.0,20.0,60,0.00,,---,0.20,VWS V14.00,2013-02-18 23:25:00,
2013-02-18 17:26:00,49.8,36.9,29.82,WNW,287,17.0,17.0,61,0.00,,---,0.20,VWS V14.00,2013-02-18 23:26:00,
2013-02-18 17:27:00,49.8,36.1,29.82,WNW,297,13.0,17.0,59,0.00,,---,0.20,VWS V14.00,2013-02-18 23:27:00,
2013-02-18 17:28:00,49.8,36.5,29.82,WNW,302,11.0,13.0,60,0.00,,---,0.20,VWS V14.00,2013-02-18 23:28:00,
2013-02-18 17:29:00,49.8,36.5,29.83,WNW,302,12.0,17.0,60,0.00,,---,0.20,VWS V14.00,2013-02-18 23:29:00,
2013-02-18 17:30:00,49.6,36.3,29.83,NW,309,11.0,12.0,60,0.00,,---,0.20,VWS V14.00,2013-02-18 23:30:00,
2013-02-18 17:31:00,49.6,36.3,29.83,NW,310,11.0,16.0,60,0.00,,---,0.20,VWS V14.00,2013-02-18 23:31:00,
2013-02-18 17:32:00,49.6,36.7,29.83,WNW,284,14.0,16.0,61,0.00,,---,0.20,VWS V14.00,2013-02-18 23:32:00,
2013-02-18 17:33:00,49.6,36.3,29.83,NW,309,9.0,14.0,60,0.00,,---,0.20,VWS V14.00,2013-02-18 23:33:00,
2013-02-18 17:34:00,49.6,36.7,29.84,NW,306,5.0,12.0,61,0.00,,---,0.20,VWS V14.00,2013-02-18 23:34:00,
2013-02-18 17:35:00,49.5,36.6,29.84,WNW,297,15.0,15.0,61,0.00,,---,0.20,VWS V14.00,2013-02-18 23:35:00,
2013-02-18 17:36:00,49.5,36.2,29.84,WNW,298,11.0,15.0,60,0.00,,---,0.20,VWS V14.00,2013-02-18 23:36:00,
2013-02-18 17:37:00,49.5,36.2,29.84,WNW,298,16.0,16.0,60,0.00,,---,0.20,VWS V14.00,2013-02-18 23:37:00,
2013-02-18 17:38:00,49.5,36.2,29.84,WNW,298,16.0,16.0,60,0.00,,---,0.20,VWS V14.00,2013-02-18 23:38:00,
2013-02-18 17:39:00,49.5,36.2,29.84,NW,311,14.0,22.0,60,0.00,,---,0.20,VWS V14.00,2013-02-18 23:39:00,
2013-02-18 17:40:00,49.5,36.2,29.84,NW,314,14.0,15.0,60,0.00,,---,0.20,VWS V14.00,2013-02-18 23:40:00,
2013-02-18 17:41:00,49.4,36.1,29.85,NW,306,14.0,17.0,60,0.00,,---,0.20,VWS V14.00,2013-02-18 23:41:00,
2013-02-18 17:42:00,49.4,36.1,29.85,WNW,302,10.0,16.0,60,0.00,,---,0.20,VWS V14.00,2013-02-18 23:42:00,
2013-02-18 17:43:00,49.4,36.1,29.85,WNW,302,13.0,16.0,60,0.00,,---,0.20,VWS V14.00,2013-02-18 23:43:00,
2013-02-18 17:44:00,49.2,35.9,29.85,NW,313,13.0,15.0,60,0.00,,---,0.20,VWS V14.00,2013-02-18 23:44:00,
2013-02-18 17:45:00,49.2,35.9,29.85,NW,321,19.0,19.0,60,0.00,,---,0.20,VWS V14.00,2013-02-18 23:45:00,
2013-02-18 17:46:00,49.1,35.4,29.85,NW,306,14.0,19.0,59,0.00,,---,0.20,VWS V14.00,2013-02-18 23:46:00,
2013-02-18 17:47:00,49.1,35.8,29.86,WNW,296,10.0,14.0,60,0.00,,---,0.20,VWS V14.00,2013-02-18 23:47:00,
2013-02-18 17:48:00,49.1,35.8,29.86,WNW,296,10.0,14.0,60,0.00,,---,0.20,VWS V14.00,2013-02-18 23:48:00,
2013-02-18 17:49:00,48.9,35.6,29.86,WNW,298,14.0,14.0,60,0.00,,---,0.20,VWS V14.00,2013-02-18 23:49:00,
2013-02-18 17:50:00,48.9,35.6,29.86,NW,310,10.0,18.0,60,0.00,,---,0.20,VWS V14.00,2013-02-18 23:50:00,
2013-02-18 17:51:00,48.9,36.1,29.87,NW,323,8.0,12.0,61,0.00,,---,0.20,VWS V14.00,2013-02-18 23:51:00,
2013-02-18 17:52:00,48.9,36.1,29.87,NW,317,10.0,11.0,61,0.00,,---,0.20,VWS V14.00,2013-02-18 23:52:00,
2013-02-18 17:53:00,48.9,36.1,29.87,NW,317,10.0,11.0,61,0.00,,---,0.20,VWS V14.00,2013-02-18 23:53:00,
2013-02-18 17:54:00,48.8,35.5,29.87,NW,316,13.0,16.0,60,0.00,,---,0.20,VWS V14.00,2013-02-18 23:54:00,
2013-02-18 17:55:00,48.8,36.0,29.87,NNW,327,16.0,18.0,61,0.00,,---,0.20,VWS V14.00,2013-02-18 23:55:00,
2013-02-18 17:56:00,48.8,35.5,29.87,NNW,330,16.0,17.0,60,0.00,,---,0.20,VWS V14.00,2013-02-18 23:56:00,
2013-02-18 17:57:00,48.8,35.5,29.87,NNW,335,18.0,19.0,60,0.00,,---,0.20,VWS V14.00,2013-02-18 23:57:00,
2013-02-18 17:58:00,48.8,35.5,29.87,NNW,335,16.0,19.0,60,0.00,,---,0.20,VWS V14.00,2013-02-18 23:58:00,
2013-02-18 17:59:00,48.8,35.1,29.87,NW,310,13.0,17.0,59,0.00,,---,0.20,VWS V14.00,2013-02-18 23:59:00,
2013-02-18 18:00:00,48.8,35.1,29.87,NW,313,13.0,13.0,59,0.00,,---,0.20,VWS V14.00,2013-02-19 00:00:00,
2013-02-18 18:01:00,48.8,35.5,29.87,NW,313,6.0,13.0,60,0.00,,---,0.20,VWS V14.00,2013-02-19 00:01:00,
2013-02-18 18:02:00,48.6,35.4,29.88,NNW,332,11.0,13.0,60,0.00,,---,0.20,VWS V14.00,2013-02-19 00:02:00,
2013-02-18 18:03:00,48.6,35.4,29.88,NNW,332,11.0,13.0,60,0.00,,---,0.20,VWS V14.00,2013-02-19 00:03:00,
2013-02-18 18:04:00,48.6,35.4,29.88,NW,325,15.0,21.0,60,0.00,,---,0.20,VWS V14.00,2013-02-19 00:04:00,
2013-02-18 18:05:00,48.6,34.9,29.88,NW,315,16.0,17.0,59,0.00,,---,0.20,VWS V14.00,2013-02-19 00:05:00,
2013-02-18 18:06:00,48.6,35.4,29.88,NW,321,9.0,16.0,60,0.00,,---,0.20,VWS V14.00,2013-02-19 00:06:00,
2013-02-18 18:07:00,48.5,35.3,29.88,NW,315,13.0,15.0,60,0.00,,---,0.20,VWS V14.00,2013-02-19 00:07:00,
2013-02-18 18:08:00,48.5,35.3,29.88,NW,315,13.0,15.0,60,0.00,,---,0.20,VWS V14.00,2013-02-19 00:08:00,
2013-02-18 18:09:00,48.5,35.3,29.89,NW,318,12.0,15.0,60,0.00,,---,0.20,VWS V14.00,2013-02-19 00:09:00,
2013-02-18 18:10:00,48.5,34.8,29.89,NW,326,14.0,17.0,59,0.00,,---,0.20,VWS V14.00,2013-02-19 00:10:00,
2013-02-18 18:11:00,48.3,35.1,29.89,NW,316,6.0,14.0,60,0.00,,---,0.20,VWS V14.00,2013-02-19 00:11:00,
2013-02-18 18:12:00,48.3,35.1,29.89,NW,315,11.0,12.0,60,0.00,,---,0.20,VWS V14.00,2013-02-19 00:12:00,
2013-02-18 18:13:00,48.3,35.1,29.89,NW,315,11.0,12.0,60,0.00,,---,0.20,VWS V14.00,2013-02-19 00:13:00,
2013-02-18 18:14:00,48.3,35.1,29.89,NNW,327,9.0,13.0,60,0.00,,---,0.20,VWS V14.00,2013-02-19 00:14:00,
2013-02-18 18:15:00,48.3,35.1,29.89,NW,313,10.0,12.0,60,0.00,,---,0.20,VWS V14.00,2013-02-19 00:15:00,
2013-02-18 18:16:00,48.2,35.0,29.89,NNW,331,12.0,13.0,60,0.00,,---,0.20,VWS V14.00,2013-02-19 00:16:00,
2013-02-18 18:17:00,48.2,35.0,29.89,NW,316,11.0,16.0,60,0.00,,---,0.20,VWS V14.00,2013-02-19 00:17:00,
2013-02-18 18:18:00,48.2,35.0,29.89,NNW,330,12.0,12.0,60,0.00,,---,0.20,VWS V14.00,2013-02-19 00:18:00,
2013-02-18 18:19:00,48.2,35.0,29.89,NW,319,9.0,11.0,60,0.00,,---,0.20,VWS V14.00,2013-02-19 00:19:00,
2013-02-18 18:20:00,48.2,35.0,29.89,NW,324,10.0,14.0,60,0.00,,---,0.20,VWS V14.00,2013-02-19 00:20:00,
2013-02-18 18:21:00,48.2,35.0,29.89,NW,324,7.0,11.0,60,0.00,,---,0.20,VWS V14.00,2013-02-19 00:21:00,
2013-02-18 18:22:00,48.0,35.2,29.89,NNW,327,12.0,14.0,61,0.00,,---,0.20,VWS V14.00,2013-02-19 00:22:00,
2013-02-18 18:23:00,48.0,35.2,29.89,NW,326,12.0,12.0,61,0.00,,---,0.20,VWS V14.00,2013-02-19 00:23:00,
2013-02-18 18:24:00,48.0,34.8,29.89,NW,326,11.0,11.0,60,0.00,,---,0.20,VWS V14.00,2013-02-19 00:24:00,
2013-02-18 18:25:00,48.0,35.2,29.89,NW,317,11.0,12.0,61,0.00,,---,0.20,VWS V14.00,2013-02-19 00:25:00,
2013-02-18 18:26:00,48.0,34.8,29.89,NW,319,7.0,14.0,60,0.00,,---,0.20,VWS V14.00,2013-02-19 00:26:00,
2013-02-18 18:27:00,47.9,34.7,29.89,NW,319,11.0,11.0,60,0.00,,---,0.20,VWS V14.00,2013-02-19 00:27:00,
2013-02-18 18:28:00,47.9,34.7,29.89,NW,319,9.0,11.0,60,0.00,,---,0.20,VWS V14.00,2013-02-19 00:28:00,
2013-02-18 18:29:00,47.9,34.7,29.90,NW,319,7.0,9.0,60,0.00,,---,0.20,VWS V14.00,2013-02-19 00:29:00,
2013-02-18 18:30:00,47.9,34.7,29.90,NW,318,5.0,8.0,60,0.00,,---,0.20,VWS V14.00,2013-02-19 00:30:00,
2013-02-18 18:31:00,47.7,34.9,29.90,NW,318,6.0,7.0,61,0.00,,---,0.20,VWS V14.00,2013-02-19 00:31:00,
2013-02-18 18:32:00,47.7,34.5,29.90,NW,317,11.0,13.0,60,0.00,,---,0.20,VWS V14.00,2013-02-19 00:32:00,
2013-02-18 18:33:00,47.7,34.5,29.90,NW,317,12.0,13.0,60,0.00,,---,0.20,VWS V14.00,2013-02-19 00:33:00,
2013-02-18 18:34:00,47.6,34.4,29.90,WNW,303,10.0,13.0,60,0.00,,---,0.20,VWS V14.00,2013-02-19 00:34:00,
2013-02-18 18:35:00,47.6,34.4,29.90,NW,308,9.0,12.0,60,0.00,,---,0.20,VWS V14.00,2013-02-19 00:35:00,
2013-02-18 18:36:00,47.6,34.4,29.90,NNW,344,12.0,16.0,60,0.00,,---,0.20,VWS V14.00,2013-02-19 00:36:00,
2013-02-18 18:37:00,47.6,34.4,29.90,NNW,334,3.0,12.0,60,0.00,,---,0.20,VWS V14.00,2013-02-19 00:37:00,
2013-02-18 18:38:00,47.6,34.4,29.90,NNW,334,3.0,4.0,60,0.00,,---,0.20,VWS V14.00,2013-02-19 00:38:00,
2013-02-18 18:39:00,47.4,34.2,29.90,NNW,333,4.0,8.0,60,0.00,,---,0.20,VWS V14.00,2013-02-19 00:39:00,
2013-02-18 18:40:00,47.4,34.2,29.91,NNW,328,4.0,9.0,60,0.00,,---,0.20,VWS V14.00,2013-02-19 00:40:00,
2013-02-18 18:41:00,47.4,34.6,29.91,NNW,328,4.0,7.0,61,0.00,,---,0.20,VWS V14.00,2013-02-19 00:41:00,
2013-02-18 18:42:00,47.3,34.5,29.91,NW,326,6.0,7.0,61,0.00,,---,0.20,VWS V14.00,2013-02-19 00:42:00,
2013-02-18 18:43:00,47.3,34.5,29.91,NW,326,5.0,6.0,61,0.00,,---,0.20,VWS V14.00,2013-02-19 00:43:00,
2013-02-18 18:44:00,47.3,34.5,29.91,NW,323,4.0,5.0,61,0.00,,---,0.20,VWS V14.00,2013-02-19 00:44:00,
2013-02-18 18:45:00,47.1,34.4,29.91,NW,323,3.0,5.0,61,0.00,,---,0.20,VWS V14.00,2013-02-19 00:45:00,
2013-02-18 18:46:00,47.1,34.4,29.91,NW,323,4.0,4.0,61,0.00,,---,0.20,VWS V14.00,2013-02-19 00:46:00,
2013-02-18 18:47:00,47.0,34.3,29.91,NW,323,4.0,5.0,61,0.00,,---,0.20,VWS V14.00,2013-02-19 00:47:00,
2013-02-18 18:48:00,47.0,34.3,29.91,NW,323,4.0,4.0,61,0.00,,---,0.20,VWS V14.00,2013-02-19 00:48:00,
2013-02-18 18:49:00,47.0,34.3,29.91,NW,322,5.0,6.0,61,0.00,,---,0.20,VWS V14.00,2013-02-19 00:49:00,
2013-02-18 18:50:00,47.0,34.3,29.91,NW,322,5.0,5.0,61,0.00,,---,0.20,VWS V14.00,2013-02-19 00:50:00,
2013-02-18 18:51:00,46.8,34.1,29.91,NW,323,5.0,7.0,61,0.00,,---,0.20,VWS V14.00,2013-02-19 00:51:00,
2013-02-18 18:52:00,46.8,34.1,29.91,NW,322,5.0,9.0,61,0.00,,---,0.20,VWS V14.00,2013-02-19 00:52:00,
2013-02-18 18:53:00,46.8,34.1,29.91,NW,322,2.0,5.0,61,0.00,,---,0.20,VWS V14.00,2013-02-19 00:53:00,
2013-02-18 18:54:00,46.8,34.1,29.91,NW,322,2.0,4.0,61,0.00,,---,0.20,VWS V14.00,2013-02-19 00:54:00,
2013-02-18 18:55:00,46.8,34.1,29.92,NW,322,2.0,9.0,61,0.00,,---,0.20,VWS V14.00,2013-02-19 00:55:00,
2013-02-18 18:56:00,46.7,34.0,29.92,NW,322,3.0,5.0,61,0.00,,---,0.20,VWS V14.00,2013-02-19 00:56:00,
2013-02-18 18:57:00,46.7,34.0,29.92,NW,322,5.0,6.0,61,0.00,,---,0.20,VWS V14.00,2013-02-19 00:57:00,
2013-02-18 18:58:00,46.7,34.0,29.92,NW,322,3.0,6.0,61,0.00,,---,0.20,VWS V14.00,2013-02-19 00:58:00,
2013-02-18 18:59:00,46.5,33.8,29.92,NW,322,0.0,4.0,61,0.00,,---,0.20,VWS V14.00,2013-02-19 00:59:00,
2013-02-18 19:00:00,46.5,33.8,29.92,NW,322,4.0,6.0,61,0.00,,---,0.20,VWS V14.00,2013-02-19 01:00:00,
2013-02-18 19:01:00,46.5,33.8,29.92,NW,322,3.0,5.0,61,0.00,,---,0.20,VWS V14.00,2013-02-19 01:01:00,
2013-02-18 19:02:00,46.4,34.1,29.92,NW,321,5.0,6.0,62,0.00,,---,0.20,VWS V14.00,2013-02-19 01:02:00,
2013-02-18 19:03:00,46.4,34.1,29.92,NW,321,4.0,6.0,62,0.00,,---,0.20,VWS V14.00,2013-02-19 01:03:00,
2013-02-18 19:04:00,46.4,34.1,29.92,NW,317,7.0,8.0,62,0.00,,---,0.20,VWS V14.00,2013-02-19 01:04:00,
2013-02-18 19:05:00,46.4,33.7,29.92,NW,317,4.0,9.0,61,0.00,,---,0.20,VWS V14.00,2013-02-19 01:05:00,
2013-02-18 19:06:00,46.4,34.1,29.92,NW,317,3.0,4.0,62,0.00,,---,0.20,VWS V14.00,2013-02-19 01:06:00,
2013-02-18 19:07:00,46.4,34.1,29.92,NW,317,5.0,5.0,62,0.00,,---,0.20,VWS V14.00,2013-02-19 01:07:00,
2013-02-18 19:08:00,46.4,34.1,29.92,NW,317,4.0,7.0,62,0.00,,---,0.20,VWS V14.00,2013-02-19 01:08:00,
2013-02-18 19:09:00,46.2,33.9,29.93,NW,304,12.0,16.0,62,0.00,,---,0.20,VWS V14.00,2013-02-19 01:09:00,
2013-02-18 19:10:00,46.2,33.5,29.93,WNW,298,5.0,13.0,61,0.00,,---,0.20,VWS V14.00,2013-02-19 01:10:00,
2013-02-18 19:11:00,46.2,33.9,29.93,NW,304,10.0,13.0,62,0.00,,---,0.20,VWS V14.00,2013-02-19 01:11:00,
2013-02-18 19:12:00,46.2,33.9,29.93,NW,316,9.0,14.0,62,0.00,,---,0.20,VWS V14.00,2013-02-19 01:12:00,
2013-02-18 19:13:00,46.4,34.1,29.93,NW,305,11.0,11.0,62,0.00,,---,0.20,VWS V14.00,2013-02-19 01:13:00,
2013-02-18 19:14:00,46.2,33.9,29.93,NW,306,6.0,11.0,62,0.00,,---,0.20,VWS V14.00,2013-02-19 01:14:00,
2013-02-18 19:15:00,46.2,33.9,29.94,NW,311,13.0,15.0,62,0.00,,---,0.20,VWS V14.00,2013-02-19 01:15:00,
2013-02-18 19:16:00,46.1,33.8,29.94,NW,304,11.0,17.0,62,0.00,,---,0.20,VWS V14.00,2013-02-19 01:16:00,
2013-02-18 19:17:00,46.1,33.8,29.94,WNW,302,12.0,14.0,62,0.00,,---,0.20,VWS V14.00,2013-02-19 01:17:00,
2013-02-18 19:18:00,46.1,33.8,29.94,NW,309,10.0,13.0,62,0.00,,---,0.20,VWS V14.00,2013-02-19 01:18:00,
2013-02-18 19:19:00,46.0,33.7,29.94,WNW,296,9.0,13.0,62,0.00,,---,0.20,VWS V14.00,2013-02-19 01:19:00,
2013-02-18 19:20:00,46.0,33.7,29.94,WNW,298,9.0,13.0,62,0.00,,---,0.20,VWS V14.00,2013-02-19 01:20:00,
2013-02-18 19:21:00,45.8,33.5,29.94,WNW,296,9.0,15.0,62,0.00,,---,0.20,VWS V14.00,2013-02-19 01:21:00,
2013-02-18 19:22:00,45.8,33.5,29.94,WNW,297,8.0,9.0,62,0.00,,---,0.20,VWS V14.00,2013-02-19 01:22:00,
2013-02-18 19:23:00,45.8,33.5,29.94,NW,316,12.0,13.0,62,0.00,,---,0.20,VWS V14.00,2013-02-19 01:23:00,
2013-02-18 19:24:00,45.7,33.4,29.94,NW,304,11.0,17.0,62,0.00,,---,0.20,VWS V14.00,2013-02-19 01:24:00,
2013-02-18 19:25:00,45.5,33.2,29.94,NNW,335,12.0,12.0,62,0.00,,---,0.20,VWS V14.00,2013-02-19 01:25:00,
2013-02-18 19:26:00,45.5,33.7,29.95,NNW,327,9.0,15.0,63,0.00,,---,0.20,VWS V14.00,2013-02-19 01:26:00,
2013-02-18 19:27:00,45.5,33.7,29.95,WNW,292,12.0,18.0,63,0.00,,---,0.20,VWS V14.00,2013-02-19 01:27:00,
2013-02-18 19:28:00,45.4,33.6,29.95,WNW,294,14.0,14.0,63,0.00,,---,0.20,VWS V14.00,2013-02-19 01:28:00,
2013-02-18 19:29:00,45.2,33.4,29.95,NW,310,11.0,15.0,63,0.00,,---,0.20,VWS V14.00,2013-02-19 01:29:00,
2013-02-18 19:30:00,45.2,33.4,29.96,NW,309,13.0,19.0,63,0.00,,---,0.20,VWS V14.00,2013-02-19 01:30:00,
2013-02-18 19:31:00,45.1,33.3,29.96,NW,320,16.0,16.0,63,0.00,,---,0.20,VWS V14.00,2013-02-19 01:31:00,
2013-02-18 19:32:00,45.1,33.3,29.96,NW,321,16.0,22.0,63,0.00,,---,0.20,VWS V14.00,2013-02-19 01:32:00,
2013-02-18 19:33:00,45.1,33.3,29.96,NW,319,15.0,16.0,63,0.00,,---,0.20,VWS V14.00,2013-02-19 01:33:00,
2013-02-18 19:34:00,44.9,33.1,29.96,NW,313,16.0,16.0,63,0.00,,---,0.20,VWS V14.00,2013-02-19 01:34:00,
2013-02-18 19:35:00,44.9,33.1,29.96,NW,315,16.0,21.0,63,0.00,,---,0.20,VWS V14.00,2013-02-19 01:35:00,
2013-02-18 19:36:00,44.9,33.1,29.96,NNW,329,14.0,19.0,63,0.00,,---,0.20,VWS V14.00,2013-02-19 01:36:00,
2013-02-18 19:37:00,44.9,33.1,29.96,NW,323,12.0,19.0,63,0.00,,---,0.20,VWS V14.00,2013-02-19 01:37:00,
2013-02-18 19:38:00,44.9,33.1,29.96,NW,312,11.0,13.0,63,0.00,,---,0.20,VWS V14.00,2013-02-19 01:38:00,
2013-02-18 19:39:00,44.8,33.4,29.96,NW,305,14.0,14.0,64,0.00,,---,0.20,VWS V14.00,2013-02-19 01:39:00,
2013-02-18 19:40:00,44.6,32.8,29.96,NW,312,9.0,14.0,63,0.00,,---,0.20,VWS V14.00,2013-02-19 01:40:00,
2013-02-18 19:41:00,44.6,32.8,29.96,NW,319,10.0,14.0,63,0.00,,---,0.20,VWS V14.00,2013-02-19 01:41:00,
2013-02-18 19:42:00,44.6,33.2,29.97,NW,322,13.0,18.0,64,0.00,,---,0.20,VWS V14.00,2013-02-19 01:42:00,
2013-02-18 19:43:00,44.6,33.2,29.97,NW,317,12.0,14.0,64,0.00,,---,0.20,VWS V14.00,2013-02-19 01:43:00,
2013-02-18 19:44:00,44.5,33.1,29.97,NW,304,12.0,17.0,64,0.00,,---,0.20,VWS V14.00,2013-02-19 01:44:00,
2013-02-18 19:45:00,44.3,32.9,29.97,NNW,336,14.0,16.0,64,0.00,,---,0.20,VWS V14.00,2013-02-19 01:45:00,
2013-02-18 19:46:00,44.3,32.9,29.97,NW,325,14.0,18.0,64,0.00,,---,0.20,VWS V14.00,2013-02-19 01:46:00,
2013-02-18 19:47:00,44.3,33.3,29.97,NW,319,12.0,19.0,65,0.00,,---,0.20,VWS V14.00,2013-02-19 01:47:00,
2013-02-18 19:48:00,44.3,33.3,29.97,NW,323,14.0,15.0,65,0.00,,---,0.20,VWS V14.00,2013-02-19 01:48:00,
2013-02-18 19:49:00,44.2,32.8,29.97,NW,323,10.0,13.0,64,0.00,,---,0.20,VWS V14.00,2013-02-19 01:49:00,
2013-02-18 19:50:00,44.1,32.7,29.97,WNW,301,16.0,16.0,64,0.00,,---,0.20,VWS V14.00,2013-02-19 01:50:00,
2013-02-18 19:51:00,44.1,32.7,29.98,NNW,336,14.0,20.0,64,0.00,,---,0.20,VWS V14.00,2013-02-19 01:51:00,
2013-02-18 19:52:00,43.9,32.1,29.98,NW,324,13.0,20.0,63,0.00,,---,0.20,VWS V14.00,2013-02-19 01:52:00,
2013-02-18 19:53:00,43.9,32.1,29.98,NW,319,13.0,16.0,63,0.00,,---,0.20,VWS V14.00,2013-02-19 01:53:00,
2013-02-18 19:54:00,43.8,32.4,29.98,NW,312,14.0,17.0,64,0.00,,---,0.20,VWS V14.00,2013-02-19 01:54:00,
2013-02-18 19:56:00,43.6,31.9,29.98,NW,318,17.0,19.0,63,0.00,,---,0.20,VWS V14.00,2013-02-19 01:56:00,
2013-02-18 19:57:00,43.5,32.2,29.98,NW,322,13.0,18.0,64,0.00,,---,0.20,VWS V14.00,2013-02-19 01:57:00,
2013-02-18 19:58:00,43.5,31.8,29.98,NW,324,20.0,22.0,63,0.00,,---,0.20,VWS V14.00,2013-02-19 01:58:00,
2013-02-18 19:59:00,43.3,31.6,29.98,NW,318,19.0,19.0,63,0.00,,---,0.20,VWS V14.00,2013-02-19 01:59:00,
2013-02-18 20:00:00,43.3,31.6,29.99,NW,319,14.0,20.0,63,0.00,,---,0.20,VWS V14.00,2013-02-19 02:00:00,
2013-02-18 20:01:00,43.3,32.0,29.99,NW,324,14.0,17.0,64,0.00,,---,0.20,VWS V14.00,2013-02-19 02:01:00,
2013-02-18 20:02:00,43.2,31.9,29.98,NW,315,9.0,14.0,64,0.00,,---,0.20,VWS V14.00,2013-02-19 02:02:00,
2013-02-18 20:03:00,43.2,31.9,29.99,NW,313,16.0,16.0,64,0.00,,---,0.20,VWS V14.00,2013-02-19 02:03:00,
2013-02-18 20:04:00,43.1,31.8,29.99,NW,321,11.0,16.0,64,0.00,,---,0.20,VWS V14.00,2013-02-19 02:04:00,
2013-02-18 20:05:00,43.1,31.8,29.99,NW,323,10.0,18.0,64,0.00,,---,0.20,VWS V14.00,2013-02-19 02:05:00,
2013-02-18 20:06:00,42.9,31.6,29.99,NW,317,12.0,17.0,64,0.00,,---,0.20,VWS V14.00,2013-02-19 02:06:00,
2013-02-18 20:07:00,42.9,31.6,29.99,NW,317,9.0,12.0,64,0.00,,---,0.20,VWS V14.00,2013-02-19 02:07:00,
2013-02-18 20:08:00,42.9,32.0,29.99,NW,319,9.0,10.0,65,0.00,,---,0.20,VWS V14.00,2013-02-19 02:08:00,
2013-02-18 20:09:00,42.9,32.0,29.99,NW,319,7.0,11.0,65,0.00,,---,0.20,VWS V14.00,2013-02-19 02:09:00,
2013-02-18 20:10:00,42.8,31.9,29.99,NW,319,5.0,7.0,65,0.00,,---,0.20,VWS V14.00,2013-02-19 02:10:00,
2013-02-18 20:11:00,42.8,31.9,29.99,NW,319,9.0,12.0,65,0.00,,---,0.20,VWS V14.00,2013-02-19 02:11:00,
2013-02-18 20:12:00,42.8,31.9,29.99,NW,321,8.0,12.0,65,0.00,,---,0.20,VWS V14.00,2013-02-19 02:12:00,
2013-02-18 20:13:00,42.6,31.7,29.99,NW,321,5.0,10.0,65,0.00,,---,0.20,VWS V14.00,2013-02-19 02:13:00,
2013-02-18 20:14:00,42.6,31.7,29.99,NW,320,4.0,9.0,65,0.00,,---,0.20,VWS V14.00,2013-02-19 02:14:00,
2013-02-18 20:15:00,42.6,31.7,29.99,NW,320,10.0,10.0,65,0.00,,---,0.20,VWS V14.00,2013-02-19 02:15:00,
2013-02-18 20:16:00,42.6,32.0,29.99,NW,319,4.0,10.0,66,0.00,,---,0.20,VWS V14.00,2013-02-19 02:16:00,
2013-02-18 20:17:00,42.6,31.7,30.00,NW,315,3.0,10.0,65,0.00,,---,0.20,VWS V14.00,2013-02-19 02:17:00,
2013-02-18 20:18:00,42.6,31.7,30.00,NW,315,4.0,5.0,65,0.00,,---,0.20,VWS V14.00,2013-02-19 02:18:00,
2013-02-18 20:19:00,42.5,32.0,30.00,NNW,333,12.0,15.0,66,0.00,,---,0.20,VWS V14.00,2013-02-19 02:19:00,
2013-02-18 20:20:00,42.5,31.6,30.00,NW,326,10.0,13.0,65,0.00,,---,0.20,VWS V14.00,2013-02-19 02:20:00,
2013-02-18 20:21:00,42.5,32.0,30.00,NW,319,7.0,12.0,66,0.00,,---,0.20,VWS V14.00,2013-02-19 02:21:00,
2013-02-18 20:22:00,42.3,31.4,30.00,NNW,335,12.0,14.0,65,0.00,,---,0.20,VWS V14.00,2013-02-19 02:22:00,
2013-02-18 20:23:00,42.3,31.4,30.01,NW,323,10.0,13.0,65,0.00,,---,0.20,VWS V14.00,2013-02-19 02:23:00,
2013-02-18 20:24:00,42.3,31.4,30.01,NW,319,8.0,13.0,65,0.00,,---,0.20,VWS V14.00,2013-02-19 02:24:00,
2013-02-18 20:25:00,42.3,31.4,30.01,NNW,335,13.0,15.0,65,0.00,,---,0.20,VWS V14.00,2013-02-19 02:25:00,
2013-02-18 20:26:00,42.3,31.4,30.01,NW,325,11.0,13.0,65,0.00,,---,0.20,VWS V14.00,2013-02-19 02:26:00,
2013-02-18 20:27:00,42.3,31.4,30.01,WNW,299,11.0,14.0,65,0.00,,---,0.20,VWS V14.00,2013-02-19 02:27:00,
2013-02-18 20:28:00,42.2,31.3,30.01,NW,306,12.0,12.0,65,0.00,,---,0.20,VWS V14.00,2013-02-19 02:28:00,
2013-02-18 20:29:00,42.2,31.7,30.01,NW,305,12.0,12.0,66,0.00,,---,0.20,VWS V14.00,2013-02-19 02:29:00,
2013-02-18 20:30:00,42.2,31.3,30.01,NW,326,11.0,15.0,65,0.00,,---,0.20,VWS V14.00,2013-02-19 02:30:00,
2013-02-18 20:31:00,42.2,31.3,30.01,NW,317,14.0,16.0,65,0.00,,---,0.20,VWS V14.00,2013-02-19 02:31:00,
2013-02-18 20:32:00,42.2,31.3,30.01,NW,315,10.0,16.0,65,0.00,,---,0.20,VWS V14.00,2013-02-19 02:32:00,
2013-02-18 20:33:00,42.2,31.3,30.01,NW,315,9.0,10.0,65,0.00,,---,0.20,VWS V14.00,2013-02-19 02:33:00,
2013-02-18 20:34:00,42.2,31.3,30.01,NW,317,10.0,12.0,65,0.00,,---,0.20,VWS V14.00,2013-02-19 02:34:00,
2013-02-18 20:35:00,42.2,31.7,30.01,NW,317,7.0,10.0,66,0.00,,---,0.20,VWS V14.00,2013-02-19 02:35:00,
2013-02-18 20:36:00,42.2,31.7,30.01,NW,317,10.0,10.0,66,0.00,,---,0.20,VWS V14.00,2013-02-19 02:36:00,
2013-02-18 20:37:00,42.2,31.7,30.01,NW,317,6.0,11.0,66,0.00,,---,0.20,VWS V14.00,2013-02-19 02:37:00,
2013-02-18 20:38:00,42.2,31.7,30.01,NW,309,9.0,11.0,66,0.00,,---,0.20,VWS V14.00,2013-02-19 02:38:00,
2013-02-18 20:39:00,42.1,31.6,30.02,NW,311,7.0,10.0,66,0.00,,---,0.20,VWS V14.00,2013-02-19 02:39:00,
2013-02-18 20:40:00,42.1,31.6,30.02,NW,311,5.0,8.0,66,0.00,,---,0.20,VWS V14.00,2013-02-19 02:40:00,
2013-02-18 20:41:00,42.1,31.6,30.02,NW,311,4.0,7.0,66,0.00,,---,0.20,VWS V14.00,2013-02-19 02:41:00,
2013-02-18 20:42:00,42.1,32.0,30.02,NW,311,5.0,7.0,67,0.00,,---,0.20,VWS V14.00,2013-02-19 02:42:00,
2013-02-18 20:43:00,42.1,32.0,30.02,NW,311,4.0,5.0,67,0.00,,---,0.20,VWS V14.00,2013-02-19 02:43:00,
2013-02-18 20:44:00,42.1,31.6,30.02,NW,311,10.0,10.0,66,0.00,,---,0.20,VWS V14.00,2013-02-19 02:44:00,
2013-02-18 20:45:00,42.1,31.6,30.02,NW,311,4.0,11.0,66,0.00,,---,0.20,VWS V14.00,2013-02-19 02:45:00,
2013-02-18 20:46:00,41.9,31.4,30.02,NW,311,3.0,7.0,66,0.00,,---,0.20,VWS V14.00,2013-02-19 02:46:00,
2013-02-18 20:47:00,41.9,31.4,30.02,NW,311,2.0,3.0,66,0.00,,---,0.20,VWS V14.00,2013-02-19 02:47:00,
2013-02-18 20:48:00,41.9,31.4,30.02,NW,309,11.0,11.0,66,0.00,,---,0.20,VWS V14.00,2013-02-19 02:48:00,
2013-02-18 20:49:00,41.9,31.4,30.02,NW,311,7.0,10.0,66,0.00,,---,0.20,VWS V14.00,2013-02-19 02:49:00,
2013-02-18 20:50:00,41.9,31.4,30.02,NW,311,3.0,7.0,66,0.00,,---,0.20,VWS V14.00,2013-02-19 02:50:00,
2013-02-18 20:51:00,41.8,31.3,30.02,NW,311,2.0,5.0,66,0.00,,---,0.20,VWS V14.00,2013-02-19 02:51:00,
2013-02-18 20:52:00,41.8,31.3,30.03,NW,311,5.0,5.0,66,0.00,,---,0.20,VWS V14.00,2013-02-19 02:52:00,
2013-02-18 20:53:00,41.8,31.7,30.03,NW,311,5.0,6.0,67,0.00,,---,0.20,VWS V14.00,2013-02-19 02:53:00,
2013-02-18 20:54:00,41.8,31.7,30.03,NW,311,6.0,6.0,67,0.00,,---,0.20,VWS V14.00,2013-02-19 02:54:00,
2013-02-18 20:55:00,41.8,31.3,30.03,NW,311,1.0,5.0,66,0.00,,---,0.20,VWS V14.00,2013-02-19 02:55:00,
2013-02-18 20:56:00,41.8,31.7,30.03,NW,311,2.0,3.0,67,0.00,,---,0.20,VWS V14.00,2013-02-19 02:56:00,
2013-02-18 20:57:00,41.8,31.7,30.03,NW,311,6.0,9.0,67,0.00,,---,0.20,VWS V14.00,2013-02-19 02:57:00,
2013-02-18 20:58:00,41.8,31.7,30.03,NW,311,5.0,7.0,67,0.00,,---,0.20,VWS V14.00,2013-02-19 02:58:00,
2013-02-18 20:59:00,41.8,31.7,30.03,NW,311,5.0,7.0,67,0.00,,---,0.20,VWS V14.00,2013-02-19 02:59:00,
2013-02-18 21:00:00,41.6,31.5,30.03,NW,311,2.0,4.0,67,0.00,,---,0.20,VWS V14.00,2013-02-19 03:00:00,
2013-02-18 21:01:00,41.6,31.5,30.03,NW,313,6.0,11.0,67,0.00,,---,0.20,VWS V14.00,2013-02-19 03:01:00,
2013-02-18 21:02:00,41.6,31.5,30.04,NW,312,4.0,6.0,67,0.00,,---,0.20,VWS V14.00,2013-02-19 03:02:00,
2013-02-18 21:03:00,41.6,31.5,30.04,NW,311,6.0,9.0,67,0.00,,---,0.20,VWS V14.00,2013-02-19 03:03:00,
2013-02-18 21:04:00,41.6,31.5,30.04,NW,311,6.0,9.0,67,0.00,,---,0.20,VWS V14.00,2013-02-19 03:04:00,
2013-02-18 21:05:00,41.6,31.5,30.04,NW,309,10.0,12.0,67,0.00,,---,0.20,VWS V14.00,2013-02-19 03:05:00,
2013-02-18 21:06:00,41.6,31.5,30.04,NW,309,6.0,10.0,67,0.00,,---,0.20,VWS V14.00,2013-02-19 03:06:00,
2013-02-18 21:07:00,41.6,31.5,30.04,NW,309,10.0,10.0,67,0.00,,---,0.20,VWS V14.00,2013-02-19 03:07:00,
2013-02-18 21:08:00,41.6,31.1,30.04,WNW,300,8.0,12.0,66,0.00,,---,0.20,VWS V14.00,2013-02-19 03:08:00,
2013-02-18 21:09:00,41.6,31.1,30.04,WNW,300,8.0,12.0,66,0.00,,---,0.20,VWS V14.00,2013-02-19 03:09:00,
2013-02-18 21:10:00,41.8,31.7,30.04,NW,304,8.0,12.0,67,0.00,,---,0.20,VWS V14.00,2013-02-19 03:10:00,
2013-02-18 21:11:00,41.8,31.7,30.04,NW,305,9.0,12.0,67,0.00,,---,0.20,VWS V14.00,2013-02-19 03:11:00,
2013-02-18 21:12:00,41.8,31.7,30.04,NW,305,8.0,11.0,67,0.00,,---,0.20,VWS V14.00,2013-02-19 03:12:00,
2013-02-18 21:13:00,41.8,31.7,30.04,NW,306,7.0,11.0,67,0.00,,---,0.20,VWS V14.00,2013-02-19 03:13:00,
2013-02-18 21:14:00,41.8,31.7,30.04,NW,306,7.0,11.0,67,0.00,,---,0.20,VWS V14.00,2013-02-19 03:14:00,
2013-02-18 21:15:00,41.8,31.7,30.04,NW,305,6.0,10.0,67,0.00,,---,0.20,VWS V14.00,2013-02-19 03:15:00,
2013-02-18 21:16:00,41.8,31.7,30.04,WNW,303,11.0,11.0,67,0.00,,---,0.20,VWS V14.00,2013-02-19 03:16:00,
2013-02-18 21:17:00,41.8,31.7,30.04,WNW,301,11.0,12.0,67,0.00,,---,0.20,VWS V14.00,2013-02-19 03:17:00,
2013-02-18 21:18:00,41.8,31.7,30.04,WNW,296,12.0,15.0,67,0.00,,---,0.20,VWS V14.00,2013-02-19 03:18:00,
2013-02-18 21:19:00,41.8,31.7,30.04,WNW,296,12.0,15.0,67,0.00,,---,0.20,VWS V14.00,2013-02-19 03:19:00,
2013-02-18 21:20:00,41.9,31.8,30.05,NW,325,10.0,16.0,67,0.00,,---,0.20,VWS V14.00,2013-02-19 03:20:00,
2013-02-18 21:21:00,41.9,31.8,30.05,NW,306,14.0,14.0,67,0.00,,---,0.20,VWS V14.00,2013-02-19 03:21:00,
2013-02-18 21:22:00,41.9,31.4,30.05,West,279,11.0,17.0,66,0.00,,---,0.20,VWS V14.00,2013-02-19 03:22:00,
2013-02-18 21:23:00,41.8,30.5,30.05,North,349,21.0,22.0,64,0.00,,---,0.20,VWS V14.00,2013-02-19 03:23:00,
2013-02-18 21:24:00,41.8,30.5,30.05,North,349,21.0,22.0,64,0.00,,---,0.20,VWS V14.00,2013-02-19 03:24:00,
2013-02-18 21:25:00,41.8,29.8,30.05,NW,313,15.0,24.0,62,0.00,,---,0.20,VWS V14.00,2013-02-19 03:25:00,
2013-02-18 21:26:00,41.6,29.6,30.05,NW,318,14.0,22.0,62,0.00,,---,0.20,VWS V14.00,2013-02-19 03:26:00,
2013-02-18 21:27:00,41.5,29.1,30.05,NW,315,13.0,17.0,61,0.00,,---,0.20,VWS V14.00,2013-02-19 03:27:00,
2013-02-18 21:28:00,41.5,29.1,30.05,NW,312,20.0,22.0,61,0.00,,---,0.20,VWS V14.00,2013-02-19 03:28:00,
2013-02-18 21:29:00,41.5,29.1,30.05,NW,312,20.0,20.0,61,0.00,,---,0.20,VWS V14.00,2013-02-19 03:29:00,
2013-02-18 21:30:00,41.3,28.9,30.06,WNW,297,13.0,18.0,61,0.00,,---,0.20,VWS V14.00,2013-02-19 03:30:00,
2013-02-18 21:31:00,41.2,28.4,30.06,NW,311,12.0,15.0,60,0.00,,---,0.20,VWS V14.00,2013-02-19 03:31:00,
2013-02-18 21:32:00,41.2,28.8,30.06,NW,310,11.0,19.0,61,0.00,,---,0.20,VWS V14.00,2013-02-19 03:32:00,
2013-02-18 21:33:00,41.1,28.7,30.06,NW,304,17.0,18.0,61,0.00,,---,0.20,VWS V14.00,2013-02-19 03:33:00,
2013-02-18 21:34:00,41.1,28.7,30.06,NW,304,17.0,18.0,61,0.00,,---,0.20,VWS V14.00,2013-02-19 03:34:00,
2013-02-18 21:35:00,41.1,28.7,30.06,NW,320,22.0,23.0,61,0.00,,---,0.20,VWS V14.00,2013-02-19 03:35:00,
2013-02-18 21:36:00,40.9,28.1,30.06,NW,326,15.0,23.0,60,0.00,,---,0.20,VWS V14.00,2013-02-19 03:36:00,
2013-02-18 21:37:00,40.9,28.5,30.06,NNW,333,13.0,19.0,61,0.00,,---,0.20,VWS V14.00,2013-02-19 03:37:00,
2013-02-18 21:38:00,40.8,28.4,30.07,NNW,334,16.0,16.0,61,0.00,,---,0.20,VWS V14.00,2013-02-19 03:38:00,
2013-02-18 21:39:00,40.8,28.4,30.07,NNW,334,16.0,16.0,61,0.00,,---,0.20,VWS V14.00,2013-02-19 03:39:00,
2013-02-18 21:40:00,40.8,28.0,30.07,NW,324,11.0,18.0,60,0.00,,---,0.20,VWS V14.00,2013-02-19 03:40:00,
2013-02-18 21:41:00,40.6,28.2,30.07,NW,309,14.0,21.0,61,0.00,,---,0.20,VWS V14.00,2013-02-19 03:41:00,
2013-02-18 21:42:00,40.6,27.8,30.07,NW,313,13.0,19.0,60,0.00,,---,0.20,VWS V14.00,2013-02-19 03:42:00,
2013-02-18 21:43:00,40.5,28.1,30.07,WNW,302,13.0,16.0,61,0.00,,---,0.20,VWS V14.00,2013-02-19 03:43:00,
2013-02-18 21:44:00,40.5,28.1,30.07,NW,304,13.0,13.0,61,0.00,,---,0.20,VWS V14.00,2013-02-19 03:44:00,
2013-02-18 21:45:00,40.3,27.9,30.07,WNW,300,14.0,17.0,61,0.00,,---,0.20,VWS V14.00,2013-02-19 03:45:00,
2013-02-18 21:46:00,40.2,27.4,30.07,NW,310,13.0,15.0,60,0.00,,---,0.20,VWS V14.00,2013-02-19 03:46:00,
2013-02-18 21:47:00,40.2,27.8,30.07,NNW,337,11.0,15.0,61,0.00,,---,0.20,VWS V14.00,2013-02-19 03:47:00,
2013-02-18 21:48:00,40.1,28.1,30.07,NW,314,12.0,15.0,62,0.00,,---,0.20,VWS V14.00,2013-02-19 03:48:00,
2013-02-18 21:49:00,40.1,28.1,30.07,NW,314,12.0,15.0,62,0.00,,---,0.20,VWS V14.00,2013-02-19 03:49:00,
2013-02-18 21:50:00,40.1,27.8,30.07,NW,321,13.0,14.0,61,0.00,,---,0.20,VWS V14.00,2013-02-19 03:50:00,
2013-02-18 21:51:00,40.1,27.8,30.07,NW,305,7.0,13.0,61,0.00,,---,0.20,VWS V14.00,2013-02-19 03:51:00,
2013-02-18 21:52:00,39.9,27.6,30.07,NW,315,9.0,13.0,61,0.00,,---,0.20,VWS V14.00,2013-02-19 03:52:00,
2013-02-18 21:53:00,39.9,27.6,30.08,NW,317,12.0,12.0,61,0.00,,---,0.20,VWS V14.00,2013-02-19 03:53:00,
2013-02-18 21:54:00,39.9,27.6,30.08,NW,317,12.0,12.0,61,0.00,,---,0.20,VWS V14.00,2013-02-19 03:54:00,
2013-02-18 21:55:00,39.8,27.9,30.08,NW,315,7.0,14.0,62,0.00,,---,0.20,VWS V14.00,2013-02-19 03:55:00,
2013-02-18 21:56:00,39.8,27.9,30.08,WNW,295,18.0,21.0,62,0.00,,---,0.20,VWS V14.00,2013-02-19 03:56:00,
2013-02-18 21:57:00,39.6,27.3,30.08,NW,315,13.0,19.0,61,0.00,,---,0.20,VWS V14.00,2013-02-19 03:57:00,
2013-02-18 21:58:00,39.6,27.7,30.08,NW,325,14.0,17.0,62,0.00,,---,0.20,VWS V14.00,2013-02-19 03:58:00,
2013-02-18 21:59:00,39.6,27.7,30.08,NW,325,14.0,17.0,62,0.00,,---,0.20,VWS V14.00,2013-02-19 03:59:00,
2013-02-18 22:00:00,39.5,27.6,30.09,NW,315,12.0,17.0,62,0.00,,---,0.20,VWS V14.00,2013-02-19 04:00:00,
2013-02-18 22:01:00,39.5,27.6,30.09,NW,320,7.0,15.0,62,0.00,,---,0.20,VWS V14.00,2013-02-19 04:01:00,
2013-02-18 22:02:00,39.5,27.6,30.09,NW,313,14.0,15.0,62,0.00,,---,0.20,VWS V14.00,2013-02-19 04:02:00,
2013-02-18 22:03:00,39.3,27.4,30.09,NW,320,11.0,17.0,62,0.00,,---,0.20,VWS V14.00,2013-02-19 04:03:00,
2013-02-18 22:04:00,39.3,27.4,30.09,NW,315,11.0,11.0,62,0.00,,---,0.20,VWS V14.00,2013-02-19 04:04:00,
2013-02-18 22:05:00,39.3,27.8,30.09,NW,306,13.0,18.0,63,0.00,,---,0.20,VWS V14.00,2013-02-19 04:05:00,
2013-02-18 22:06:00,39.3,27.4,30.09,NNW,327,14.0,16.0,62,0.00,,---,0.20,VWS V14.00,2013-02-19 04:06:00,
2013-02-18 22:07:00,39.3,28.2,30.09,NW,314,12.0,14.0,64,0.00,,---,0.20,VWS V14.00,2013-02-19 04:07:00,
2013-02-18 22:08:00,39.2,28.1,30.09,NW,319,13.0,16.0,64,0.00,,---,0.20,VWS V14.00,2013-02-19 04:08:00,
2013-02-18 22:09:00,39.2,28.1,30.09,NNW,327,14.0,15.0,64,0.00,,---,0.20,VWS V14.00,2013-02-19 04:09:00,
2013-02-18 22:10:00,39.2,27.7,30.09,NW,310,5.0,11.0,63,0.00,,---,0.20,VWS V14.00,2013-02-19 04:10:00,
2013-02-18 22:11:00,39.2,28.1,30.09,NW,315,9.0,13.0,64,0.00,,---,0.20,VWS V14.00,2013-02-19 04:11:00,
2013-02-18 22:12:00,39.2,28.1,30.09,NNW,329,14.0,14.0,64,0.00,,---,0.20,VWS V14.00,2013-02-19 04:12:00,
2013-02-18 22:13:00,39.1,28.0,30.09,WNW,292,12.0,16.0,64,0.00,,---,0.20,VWS V14.00,2013-02-19 04:13:00,
2013-02-18 22:14:00,39.1,28.0,30.09,WNW,302,11.0,13.0,64,0.00,,---,0.20,VWS V14.00,2013-02-19 04:14:00,
2013-02-18 22:15:00,39.1,28.0,30.09,NW,324,13.0,16.0,64,0.00,,---,0.20,VWS V14.00,2013-02-19 04:15:00,
2013-02-18 22:16:00,39.1,28.0,30.09,NNW,331,12.0,15.0,64,0.00,,---,0.20,VWS V14.00,2013-02-19 04:16:00,
2013-02-18 22:17:00,38.9,28.1,30.09,NW,315,13.0,14.0,65,0.00,,---,0.20,VWS V14.00,2013-02-19 04:17:00,
2013-02-18 22:18:00,38.9,27.8,30.10,NW,306,13.0,13.0,64,0.00,,---,0.20,VWS V14.00,2013-02-19 04:18:00,
2013-02-18 22:19:00,38.9,27.8,30.10,NW,308,14.0,14.0,64,0.00,,---,0.20,VWS V14.00,2013-02-19 04:19:00,
2013-02-18 22:20:00,38.9,28.1,30.10,WNW,302,7.0,11.0,65,0.00,,---,0.20,VWS V14.00,2013-02-19 04:20:00,
2013-02-18 22:21:00,38.8,28.1,30.10,WNW,302,9.0,15.0,65,0.00,,---,0.20,VWS V14.00,2013-02-19 04:21:00,
2013-02-18 22:22:00,38.8,28.1,30.10,NW,314,12.0,13.0,65,0.00,,---,0.20,VWS V14.00,2013-02-19 04:22:00,
2013-02-18 22:23:00,38.8,28.1,30.10,NW,313,10.0,12.0,65,0.00,,---,0.20,VWS V14.00,2013-02-19 04:23:00,
2013-02-18 22:24:00,38.8,28.1,30.10,NW,313,7.0,10.0,65,0.00,,---,0.20,VWS V14.00,2013-02-19 04:24:00,
2013-02-18 22:25:00,38.6,27.9,30.10,NW,309,10.0,13.0,65,0.00,,---,0.20,VWS V14.00,2013-02-19 04:25:00,
2013-02-18 22:26:00,38.6,27.9,30.10,NW,314,6.0,12.0,65,0.00,,---,0.20,VWS V14.00,2013-02-19 04:26:00,
2013-02-18 22:27:00,38.6,28.2,30.10,NW,312,12.0,15.0,66,0.00,,---,0.20,VWS V14.00,2013-02-19 04:27:00,
2013-02-18 22:28:00,38.5,27.8,30.11,WNW,302,12.0,15.0,65,0.00,,---,0.20,VWS V14.00,2013-02-19 04:28:00,
2013-02-18 22:29:00,38.5,27.4,30.10,NNW,344,16.0,16.0,64,0.00,,---,0.20,VWS V14.00,2013-02-19 04:29:00,
2013-02-18 22:30:00,38.5,27.0,30.11,NNW,344,16.0,19.0,63,0.00,,---,0.20,VWS V14.00,2013-02-19 04:30:00,
2013-02-18 22:31:00,38.5,27.0,30.11,NW,321,10.0,16.0,63,0.00,,---,0.20,VWS V14.00,2013-02-19 04:31:00,
2013-02-18 22:32:00,38.5,27.4,30.11,NW,316,11.0,16.0,64,0.00,,---,0.20,VWS V14.00,2013-02-19 04:32:00,
2013-02-18 22:33:00,38.5,27.0,30.11,NW,319,12.0,14.0,63,0.00,,---,0.20,VWS V14.00,2013-02-19 04:33:00,
2013-02-18 22:34:00,38.5,27.0,30.11,NW,320,10.0,12.0,63,0.00,,---,0.20,VWS V14.00,2013-02-19 04:34:00,
2013-02-18 22:35:00,38.5,26.6,30.11,NNW,340,17.0,21.0,62,0.00,,---,0.20,VWS V14.00,2013-02-19 04:35:00,
2013-02-18 22:36:00,38.6,26.7,30.11,NNW,332,21.0,21.0,62,0.00,,---,0.20,VWS V14.00,2013-02-19 04:36:00,
2013-02-18 22:37:00,38.6,26.7,30.11,NW,326,15.0,21.0,62,0.00,,---,0.20,VWS V14.00,2013-02-19 04:37:00,
2013-02-18 22:38:00,38.6,26.3,30.11,NNW,327,14.0,15.0,61,0.00,,---,0.20,VWS V14.00,2013-02-19 04:38:00,
2013-02-18 22:39:00,38.6,26.3,30.11,NNW,332,15.0,20.0,61,0.00,,---,0.20,VWS V14.00,2013-02-19 04:39:00,
2013-02-18 22:40:00,38.6,25.9,30.11,NNW,330,10.0,15.0,60,0.00,,---,0.20,VWS V14.00,2013-02-19 04:40:00,
2013-02-18 22:41:00,38.6,26.3,30.11,NNW,331,14.0,17.0,61,0.00,,---,0.20,VWS V14.00,2013-02-19 04:41:00,
2013-02-18 22:42:00,38.6,26.3,30.11,NW,313,11.0,16.0,61,0.00,,---,0.20,VWS V14.00,2013-02-19 04:42:00,
2013-02-18 22:43:00,38.5,25.8,30.12,NW,319,9.0,16.0,60,0.00,,---,0.20,VWS V14.00,2013-02-19 04:43:00,
2013-02-18 22:44:00,38.5,25.8,30.12,NNW,328,11.0,15.0,60,0.00,,---,0.20,VWS V14.00,2013-02-19 04:44:00,
2013-02-18 22:45:00,38.5,25.8,30.12,NW,324,12.0,18.0,60,0.00,,---,0.20,VWS V14.00,2013-02-19 04:45:00,
2013-02-18 22:46:00,38.5,26.2,30.12,NW,322,10.0,13.0,61,0.00,,---,0.20,VWS V14.00,2013-02-19 04:46:00,
2013-02-18 22:47:00,38.5,26.2,30.12,NW,322,11.0,11.0,61,0.00,,---,0.20,VWS V14.00,2013-02-19 04:47:00,
2013-02-18 22:48:00,38.3,26.0,30.12,NW,317,11.0,11.0,61,0.00,,---,0.20,VWS V14.00,2013-02-19 04:48:00,
2013-02-18 22:49:00,38.3,26.0,30.13,NW,319,10.0,12.0,61,0.00,,---,0.20,VWS V14.00,2013-02-19 04:49:00,
2013-02-18 22:50:00,38.3,26.0,30.13,NW,318,13.0,13.0,61,0.00,,---,0.20,VWS V14.00,2013-02-19 04:50:00,
2013-02-18 22:51:00,38.2,26.0,30.13,NW,322,6.0,13.0,61,0.00,,---,0.20,VWS V14.00,2013-02-19 04:51:00,
2013-02-18 22:52:00,38.2,26.0,30.13,NW,322,10.0,10.0,61,0.00,,---,0.20,VWS V14.00,2013-02-19 04:52:00,
2013-02-18 22:53:00,38.2,26.0,30.13,NW,319,9.0,12.0,61,0.00,,---,0.20,VWS V14.00,2013-02-19 04:53:00,
2013-02-18 22:54:00,38.2,26.0,30.13,NW,319,7.0,11.0,61,0.00,,---,0.20,VWS V14.00,2013-02-19 04:54:00,
2013-02-18 22:55:00,38.0,25.8,30.13,NW,318,10.0,10.0,61,0.00,,---,0.20,VWS V14.00,2013-02-19 04:55:00,
2013-02-18 22:56:00,38.0,25.8,30.13,NW,318,10.0,12.0,61,0.00,,---,0.20,VWS V14.00,2013-02-19 04:56:00,
2013-02-18 22:57:00,38.0,25.8,30.13,NW,318,6.0,10.0,61,0.00,,---,0.20,VWS V14.00,2013-02-19 04:57:00,
2013-02-18 22:58:00,38.0,26.1,30.13,NW,317,9.0,9.0,62,0.00,,---,0.20,VWS V14.00,2013-02-19 04:58:00,
2013-02-18 22:59:00,38.0,26.1,30.13,NW,317,7.0,11.0,62,0.00,,---,0.20,VWS V14.00,2013-02-19 04:59:00,
2013-02-18 23:00:00,37.9,26.1,30.13,NW,317,6.0,6.0,62,0.00,,---,0.20,VWS V14.00,2013-02-19 05:00:00,
2013-02-18 23:01:00,37.8,26.0,30.13,NW,315,6.0,11.0,62,0.00,,---,0.20,VWS V14.00,2013-02-19 05:01:00,
2013-02-18 23:02:00,37.8,26.0,30.13,NW,315,5.0,10.0,62,0.00,,---,0.20,VWS V14.00,2013-02-19 05:02:00,
2013-02-18 23:03:00,37.8,26.0,30.13,NW,315,3.0,7.0,62,0.00,,---,0.20,VWS V14.00,2013-02-19 05:03:00,
2013-02-18 23:04:00,37.6,25.8,30.13,NW,315,6.0,7.0,62,0.00,,---,0.20,VWS V14.00,2013-02-19 05:04:00,
2013-02-18 23:05:00,37.6,25.8,30.13,NW,315,4.0,6.0,62,0.00,,---,0.20,VWS V14.00,2013-02-19 05:05:00,
2013-02-18 23:06:00,37.5,26.1,30.13,NW,315,5.0,7.0,63,0.00,,---,0.20,VWS V14.00,2013-02-19 05:06:00,
2013-02-18 23:07:00,37.5,26.1,30.13,NW,315,5.0,7.0,63,0.00,,---,0.20,VWS V14.00,2013-02-19 05:07:00,
2013-02-18 23:08:00,37.3,25.9,30.14,NW,315,3.0,5.0,63,0.00,,---,0.20,VWS V14.00,2013-02-19 05:08:00,
2013-02-18 23:09:00,37.3,25.9,30.14,NW,315,6.0,6.0,63,0.00,,---,0.20,VWS V14.00,2013-02-19 05:09:00,
2013-02-18 23:10:00,37.3,25.9,30.14,WNW,301,17.0,17.0,63,0.00,,---,0.20,VWS V14.00,2013-02-19 05:10:00,
2013-02-18 23:11:00,37.2,25.4,30.14,NW,307,14.0,18.0,62,0.00,,---,0.20,VWS V14.00,2013-02-19 05:11:00,
2013-02-18 23:12:00,37.2,25.4,30.14,NNW,334,14.0,16.0,62,0.00,,---,0.20,VWS V14.00,2013-02-19 05:12:00,
2013-02-18 23:13:00,37.2,25.4,30.14,NW,319,16.0,20.0,62,0.00,,---,0.20,VWS V14.00,2013-02-19 05:13:00,
2013-02-18 23:14:00,37.2,25.0,30.14,NNW,342,22.0,22.0,61,0.00,,---,0.20,VWS V14.00,2013-02-19 05:14:00,
2013-02-18 23:15:00,37.2,25.0,30.14,NW,316,19.0,22.0,61,0.00,,---,0.20,VWS V14.00,2013-02-19 05:15:00,
2013-02-18 23:16:00,37.2,25.0,30.14,NW,318,16.0,21.0,61,0.00,,---,0.20,VWS V14.00,2013-02-19 05:16:00,
2013-02-18 23:17:00,37.3,25.1,30.14,NW,314,14.0,17.0,61,0.00,,---,0.20,VWS V14.00,2013-02-19 05:17:00,
2013-02-18 23:18:00,37.3,25.1,30.15,NNW,333,11.0,18.0,61,0.00,,---,0.20,VWS V14.00,2013-02-19 05:18:00,
2013-02-18 23:19:00,37.3,25.1,30.15,NNW,333,9.0,17.0,61,0.00,,---,0.20,VWS V14.00,2013-02-19 05:19:00,
2013-02-18 23:20:00,37.3,25.1,30.15,NW,323,15.0,15.0,61,0.00,,---,0.20,VWS V14.00,2013-02-19 05:20:00,
2013-02-18 23:21:00,37.3,25.1,30.15,NW,319,14.0,14.0,61,0.00,,---,0.20,VWS V14.00,2013-02-19 05:21:00,
2013-02-18 23:22:00,37.3,25.1,30.15,NNW,335,14.0,15.0,61,0.00,,---,0.20,VWS V14.00,2013-02-19 05:22:00,
2013-02-18 23:23:00,37.2,24.6,30.15,NW,309,13.0,19.0,60,0.00,,---,0.20,VWS V14.00,2013-02-19 05:23:00,
2013-02-18 23:24:00,37.2,24.6,30.15,NNW,334,10.0,15.0,60,0.00,,---,0.20,VWS V14.00,2013-02-19 05:24:00,
2013-02-18 23:25:00,37.2,24.6,30.15,NNW,331,13.0,13.0,60,0.00,,---,0.20,VWS V14.00,2013-02-19 05:25:00,
2013-02-18 23:26:00,37.2,24.6,30.15,NNW,334,14.0,17.0,60,0.00,,---,0.20,VWS V14.00,2013-02-19 05:26:00,
2013-02-18 23:27:00,37.2,24.6,30.15,NW,306,12.0,16.0,60,0.00,,---,0.20,VWS V14.00,2013-02-19 05:27:00,
2013-02-18 23:28:00,37.2,23.8,30.15,NNW,331,10.0,13.0,58,0.00,,---,0.20,VWS V14.00,2013-02-19 05:28:00,
2013-02-18 23:29:00,37.2,25.4,30.15,NW,326,10.0,13.0,62,0.00,,---,0.20,VWS V14.00,2013-02-19 05:29:00,
2013-02-18 23:30:00,37.2,25.4,30.15,NNW,330,12.0,14.0,62,0.00,,---,0.20,VWS V14.00,2013-02-19 05:30:00,
2013-02-18 23:31:00,37.2,25.0,30.15,NW,321,7.0,10.0,61,0.00,,---,0.20,VWS V14.00,2013-02-19 05:31:00,
2013-02-18 23:32:00,37.0,24.8,30.15,WNW,294,11.0,13.0,61,0.00,,---,0.20,VWS V14.00,2013-02-19 05:32:00,
2013-02-18 23:33:00,37.0,24.8,30.15,NNW,327,12.0,14.0,61,0.00,,---,0.20,VWS V14.00,2013-02-19 05:33:00,
2013-02-18 23:34:00,36.9,24.7,30.16,NW,321,12.0,14.0,61,0.00,,---,0.20,VWS V14.00,2013-02-19 05:34:00,
2013-02-18 23:35:00,36.9,24.7,30.16,NW,316,15.0,17.0,61,0.00,,---,0.20,VWS V14.00,2013-02-19 05:35:00,
2013-02-18 23:36:00,36.9,24.3,30.16,NW,316,10.0,17.0,60,0.00,,---,0.20,VWS V14.00,2013-02-19 05:36:00,
2013-02-18 23:37:00,36.9,24.7,30.16,NW,314,15.0,18.0,61,0.00,,---,0.20,VWS V14.00,2013-02-19 05:37:00,
2013-02-18 23:38:00,36.9,24.3,30.16,NNW,338,24.0,24.0,60,0.00,,---,0.20,VWS V14.00,2013-02-19 05:38:00,
2013-02-18 23:39:00,36.9,24.3,30.16,NW,326,14.0,24.0,60,0.00,,---,0.20,VWS V14.00,2013-02-19 05:39:00,
2013-02-18 23:40:00,36.9,24.3,30.16,NNW,329,14.0,16.0,60,0.00,,---,0.20,VWS V14.00,2013-02-19 05:40:00,
2013-02-18 23:41:00,36.9,24.7,30.16,NW,326,20.0,20.0,61,0.00,,---,0.20,VWS V14.00,2013-02-19 05:41:00,
2013-02-18 23:42:00,36.9,23.9,30.16,NW,320,13.0,20.0,59,0.00,,---,0.20,VWS V14.00,2013-02-19 05:42:00,
2013-02-18 23:43:00,36.9,25.1,30.16,NW,316,12.0,14.0,62,0.00,,---,0.20,VWS V14.00,2013-02-19 05:43:00,
2013-02-18 23:44:00,36.9,24.3,30.16,NW,316,13.0,16.0,60,0.00,,---,0.20,VWS V14.00,2013-02-19 05:44:00,
2013-02-18 23:45:00,36.9,24.7,30.16,NNW,336,17.0,17.0,61,0.00,,---,0.20,VWS V14.00,2013-02-19 05:45:00,
2013-02-18 23:46:00,36.9,24.3,30.16,NW,321,15.0,21.0,60,0.00,,---,0.20,VWS V14.00,2013-02-19 05:46:00,
2013-02-18 23:47:00,36.9,24.7,30.16,NNW,333,14.0,15.0,61,0.00,,---,0.20,VWS V14.00,2013-02-19 05:47:00,
2013-02-18 23:48:00,36.9,24.7,30.16,NNW,332,9.0,15.0,61,0.00,,---,0.20,VWS V14.00,2013-02-19 05:48:00,
2013-02-18 23:49:00,36.9,24.7,30.16,NNW,329,14.0,14.0,61,0.00,,---,0.20,VWS V14.00,2013-02-19 05:49:00,
2013-02-18 23:50:00,36.9,24.7,30.16,NNW,332,11.0,14.0,61,0.00,,---,0.20,VWS V14.00,2013-02-19 05:50:00,
2013-02-18 23:51:00,36.8,24.6,30.16,NW,315,13.0,14.0,61,0.00,,---,0.20,VWS V14.00,2013-02-19 05:51:00,
2013-02-18 23:52:00,36.8,24.6,30.16,NW,316,7.0,13.0,61,0.00,,---,0.20,VWS V14.00,2013-02-19 05:52:00,
2013-02-18 23:53:00,36.8,24.6,30.16,NW,320,6.0,12.0,61,0.00,,---,0.20,VWS V14.00,2013-02-19 05:53:00,
2013-02-18 23:54:00,36.6,24.4,30.16,NW,321,10.0,11.0,61,0.00,,---,0.20,VWS V14.00,2013-02-19 05:54:00,
2013-02-18 23:55:00,36.6,24.8,30.16,NW,319,12.0,13.0,62,0.00,,---,0.20,VWS V14.00,2013-02-19 05:55:00,
2013-02-18 23:56:00,36.6,24.8,30.16,NW,320,10.0,13.0,62,0.00,,---,0.20,VWS V14.00,2013-02-19 05:56:00,
2013-02-18 23:57:00,36.5,24.7,30.16,NW,319,7.0,13.0,62,0.00,,---,0.20,VWS V14.00,2013-02-19 05:57:00,
2013-02-18 23:58:00,36.5,24.3,30.16,NW,312,12.0,12.0,61,0.00,,---,0.20,VWS V14.00,2013-02-19 05:58:00,
2013-02-18 23:59:00,36.5,24.3,30.16,NW,314,11.0,13.0,61,0.00,,---,0.20,VWS V14.00,2013-02-19 05:59:00,